[[{"header":{"parameterUnit":"m.s-1","parameterCategory":1,"la1":31.0,"la2":29.5877,"lo1":-88.7671,"lo2":-86.6584,"dy":0.0162,"dx":0.0185,"nx":115,"ny":88,"refTime":"2023-08-17T18:00:00:Z","depth":0,"parameterNumber":2,"parameterNumberName":"U-component_of_WINDS"},"data":[0.0,0.0,0.0,0.0,0.0,0.0,0.0,0.0,0.0,0.0,0.0,0.0,0.0,0.0,0.0,0.0,0.0,0.0,0.0,0.0,0.0,0.0,0.0,0.0,0.0,0.0,0.0,0.0,0.0,0.0,0.0,0.0,0.0,0.0,0.0,0.0,0.0,0.0,0.0,0.0,0.0,0.0,0.0,0.0,0.0,0.0,0.0,0.0,0.0,0.0,0.0,0.0,0.0,0.0,0.0,0.0,0.0,0.0,0.0,0.0,0.0,0.0,0.0,0.0,0.0,0.0,0.0,0.0,0.0,0.0,0.0,0.0,0.0,0.0,0.0,0.0,0.0,0.0,0.0,0.0,0.0,0.0,0.0,0.0,0.0,0.0,0.0,0.0,0.0,0.0,0.0,0.0,0.0,0.0,0.0,0.0,0.0,0.0,0.0,0.0,0.0,0.0,0.0,0.0,0.0,0.0,0.0,0.0,0.0,0.0,0.0,0.0,0.0,0.0,0.0,0.0,0.0,0.0,0.0,0.0,0.0,0.0,0.0,0.0,0.0,0.0,0.0,0.0,0.0,0.0,0.0,0.0,0.0,0.0,0.0,0.0,0.0,0.0,0.0,0.0,0.0,0.0,0.0,0.0,0.0,0.0,0.0,0.0,0.0,0.0,0.0,0.0,0.0,0.0,0.0,0.0,0.0,0.0,0.0,0.0,0.0,0.0,0.0,0.0,0.0,0.0,0.0,0.0,0.0,0.0,0.0,0.0,0.0,0.0,0.0,0.0,0.0,0.0,0.0,0.0,0.0,0.0,0.0,0.0,0.0,0.0,0.0,0.0,0.0,0.0,0.0,0.0,0.0,0.0,0.0,0.0,0.0,0.0,0.0,0.0,0.0,0.0,0.0,0.0,0.0,0.0,0.0,0.0,0.0,0.0,0.0,0.0,0.0,0.0,0.0,0.0,0.0,0.0,0.0,0.0,0.0,0.0,0.0,0.0,0.0,0.0,0.0,0.0,0.0,0.0,0.0,0.0,0.0,0.0,0.0,0.0,0.0,0.0,0.0,0.0,0.0,0.0,0.0,0.0,0.0,0.0,0.0,0.0,0.0,0.0,0.0,0.0,0.0,0.0,0.0,0.0,0.0,0.0,0.0,0.0,0.0,0.0,0.0,0.0,0.0,0.0,0.0,0.0,0.0,0.0,0.0,0.0,0.0,0.0,0.0,0.0,0.0,0.0,0.0,0.0,0.0,0.0,0.0,0.0,0.0,0.0,0.0,0.0,0.0,0.0,0.0,0.0,0.0,0.0,0.0,0.0,0.0,0.0,0.0,0.0,0.0,0.0,0.0,0.0,0.0,0.0,0.0,0.0,0.0,0.0,0.0,0.0,0.0,0.0,0.0,0.0,0.0,0.0,0.0,0.0,0.0,0.0,0.0,0.0,0.0,0.0,0.0,0.0,0.0,0.0,0.0,0.0,0.0,0.0,0.0,0.0,0.0,0.0,0.0,0.0,0.0,0.0,0.0,0.0,0.0,0.0,0.0,0.0,0.0,0.0,0.0,0.0,0.0,0.0,0.0,0.0,0.0,0.0,0.0,0.0,0.0,0.0,0.0,0.0,0.0,0.0,0.0,0.0,0.0,0.0,0.0,0.0,0.0,0.0,0.0,0.0,0.0,0.0,0.0,0.0,0.0,0.0,0.0,0.0,0.0,0.0,0.0,0.0,0.0,0.0,0.0,0.0,0.0,0.0,0.0,0.0,0.0,0.0,0.0,0.0,0.0,0.0,0.0,0.0,0.0,0.0,0.0,0.0,0.0,0.0,0.0,0.0,0.0,0.0,0.0,0.0,0.0,0.0,0.0,0.0,0.0,0.0,0.0,0.0,0.0,0.0,0.0,0.0,0.0,0.0,0.0,0.0,0.0,0.0,0.0,0.0,0.0,0.0,0.0,0.0,0.0,0.0,0.0,0.0,0.0,0.0,0.0,0.0,0.0,0.0,0.0,0.0,0.0,0.0,0.0,0.0,0.0,0.0,0.0,0.0,0.0,0.0,0.0,0.0,0.0,0.0,0.0,0.0,0.0,0.0,0.0,0.0,0.0,0.0,0.0,0.0,0.0,0.0,0.0,0.0,0.0,0.0,0.0,0.0,0.0,0.0,0.0,0.0,0.0,0.0,0.0,0.0,0.0,0.0,0.0,0.0,0.0,0.0,0.0,0.0,0.0,0.0,0.0,0.0,0.0,0.0,0.0,0.0,0.0,0.0,0.0,0.0,0.0,0.0,0.0,0.0,0.0,0.0,0.0,0.0,0.0,0.0,0.0,0.0,0.0,0.0,0.0,0.0,0.0,0.0,0.0,0.0,0.0,0.0,0.0,0.0,0.0,0.0,0.0,0.0,0.0,0.0,0.0,0.0,0.0,0.0,0.0,0.0,0.0,0.0,0.0,0.0,0.0,0.0,0.0,0.0,0.0,0.0,0.0,0.0,0.0,0.0,0.0,0.0,0.0,0.0,0.0,0.0,0.0,0.0,0.0,0.0,0.0,0.0,0.0,0.0,0.0,0.0,0.0,0.0,0.0,0.0,0.0,0.0,0.0,0.0,0.0,0.0,0.0,0.0,0.0,0.0,0.0,0.0,0.0,0.0,0.0,0.0,0.0,0.0,0.0,0.0,0.0,0.0,0.0,0.0,0.0,0.0,0.0,0.0,0.0,0.0,0.0,0.0,0.0,0.0,0.0,0.0,0.0,0.0,0.0,0.0,0.0,0.0,0.0,0.0,0.0,0.0,0.0,0.0,0.0,0.0,0.0,0.0,0.0,0.0,0.0,0.0,0.0,0.0,0.0,0.0,0.0,0.0,0.0,0.0,0.0,0.0,0.0,0.0,0.0,0.0,0.0,0.0,0.0,0.0,0.0,0.0,0.0,0.0,0.0,0.0,0.0,0.0,0.0,0.0,0.0,0.0,0.0,0.0,0.0,0.0,0.0,0.0,0.0,0.0,0.0,0.0,0.0,0.0,0.0,0.0,0.0,0.0,0.0,0.0,0.0,0.0,0.0,0.0,0.0,0.0,0.0,0.0,0.0,0.0,0.0,0.0,0.0,0.0,0.0,0.0,0.0,0.0,0.0,0.0,0.0,0.0,0.0,0.0,0.0,0.0,0.0,0.0,0.0,0.0,0.0,0.0,0.0,0.0,0.0,0.0,0.0,0.0,0.0,0.0,0.0,0.0,0.0,0.0,0.0,0.0,0.0,0.0,0.0,0.0,0.0,0.0,0.0,0.0,0.0,0.0,0.0,0.0,0.0,0.0,0.0,0.0,0.0,0.0,0.0,0.0,0.0,0.0,0.0,0.0,0.0,0.0,0.0,0.0,0.0,0.0,0.0,0.0,0.0,0.0,0.0,0.0,0.0,0.0,0.0,0.0,0.0,0.0,0.0,0.0,0.0,0.0,0.0,0.0,0.0,0.0,0.0,0.0,0.0,0.0,0.0,0.0,0.0,0.0,0.0,0.0,0.0,0.0,0.0,0.0,0.0,0.0,0.0,0.0,0.0,0.0,0.0,0.0,0.0,0.0,0.0,0.0,0.0,0.0,0.0,0.0,0.0,0.0,0.0,0.0,0.0,0.0,0.0,0.0,0.0,0.0,0.0,0.0,0.0,0.0,0.0,0.0,0.0,0.0,0.0,0.0,0.0,0.0,0.0,0.0,0.0,0.0,0.0,0.0,0.0,0.0,0.0,0.0,0.0,0.0,0.0,0.0,0.0,0.0,0.0,0.0,0.0,0.0,0.0,0.0,0.0,0.0,0.0,0.0,0.0,0.0,0.0,0.0,0.0,0.0,0.0,0.0,0.0,0.0,0.0,0.0,0.0,0.0,0.0,0.0,0.0,0.0,0.0,0.0,0.0,0.0,0.0,0.0,0.0,0.0,0.0,0.0,0.0,0.0,0.0,0.0,0.0,0.0,0.0,0.0,0.0,0.0,0.0,0.0,0.0,0.0,0.0,0.0,0.0,0.0,0.0,0.0,0.0,0.0,0.0,0.0,0.0,0.0,0.0,0.0,0.0,0.0,0.0,0.0,0.0,0.0,0.0,0.0,0.0,0.0,0.0,0.0,0.0,0.0,0.0,0.0,0.0,0.0,0.0,0.0,0.0,0.0,0.0,0.0,0.0,0.0,0.0,0.0,0.0,0.0,0.0,0.0,0.0,0.0,0.0,0.0,0.0,0.0,0.0,0.0,0.0,0.0,0.0,0.0,0.0,0.0,0.0,0.0,0.0,0.0,-1.3516,0.0,0.0,0.0,0.0,0.0,0.0,0.0,0.0,0.0,0.0,0.0,0.0,0.0,0.0,0.0,0.0,0.0,0.0,0.0,0.0,0.0,0.0,0.0,0.0,0.0,0.0,0.0,0.0,0.0,0.0,0.0,0.0,0.0,0.0,0.0,0.0,0.0,0.0,0.0,0.0,0.0,0.0,0.0,0.0,0.0,0.0,0.0,0.0,0.0,0.0,0.0,0.0,0.0,0.0,0.0,0.0,0.0,0.0,0.0,0.0,0.0,0.0,0.0,0.0,0.0,0.0,0.0,0.0,0.0,0.0,0.0,0.0,0.0,0.0,0.0,0.0,0.0,0.0,0.0,0.0,0.0,0.0,0.0,0.0,0.0,0.0,0.0,0.0,0.0,0.0,0.0,0.0,0.0,0.0,0.0,0.0,0.0,0.0,0.0,0.0,0.0,0.0,0.0,0.0,0.0,0.0,0.0,0.0,0.0,0.0,-1.2576,-1.3261,-1.2223,-1.2194,-1.3419,0.0,0.0,0.0,0.0,0.0,0.0,0.0,0.0,0.0,0.0,0.0,0.0,0.0,0.0,0.0,0.0,0.0,0.0,0.0,0.0,0.0,0.0,0.0,0.0,0.0,0.0,0.0,0.0,0.0,0.0,0.0,0.0,0.0,0.0,0.0,0.0,0.0,0.0,0.0,0.0,0.0,0.0,0.0,0.0,0.0,0.0,0.0,0.0,0.0,0.0,0.0,0.0,0.0,0.0,0.0,0.0,0.0,0.0,0.0,0.0,0.0,0.0,0.0,0.0,0.0,0.0,0.0,0.0,0.0,0.0,0.0,0.0,0.0,0.0,0.0,0.0,0.0,0.0,0.0,0.0,0.0,0.0,0.0,0.0,0.0,0.0,0.0,0.0,0.0,0.0,0.0,0.0,0.0,0.0,0.0,0.0,0.0,0.0,0.0,0.0,0.0,0.0,0.0,0.0,0.0,0.0,0.0,0.0,0.0,0.0,0.0,0.0,-1.2412,-1.2397,-1.3653,0.0,0.0,0.0,0.0,0.0,0.0,0.0,0.0,0.0,0.0,0.0,0.0,0.0,0.0,0.0,0.0,0.0,0.0,0.0,0.0,0.0,0.0,0.0,0.0,0.0,0.0,0.0,0.0,0.0,0.0,0.0,0.0,0.0,0.0,0.0,0.0,0.0,0.0,0.0,0.0,0.0,0.0,0.0,0.0,0.0,0.0,0.0,0.0,0.0,0.0,0.0,0.0,0.0,0.0,0.0,0.0,0.0,0.0,0.0,0.0,0.0,0.0,0.0,0.0,0.0,0.0,0.0,0.0,0.0,0.0,0.0,0.0,0.0,0.0,0.0,0.0,0.0,0.0,0.0,0.0,0.0,0.0,0.0,0.0,0.0,0.0,0.0,0.0,0.0,0.0,0.0,0.0,0.0,0.0,0.0,0.0,0.0,0.0,0.0,0.0,0.0,0.0,0.0,0.0,0.0,0.0,0.0,0.0,0.0,0.0,-1.3674,-1.5041,-1.487,0.0,-1.4976,0.0,0.0,0.0,0.0,0.0,0.0,0.0,0.0,0.0,0.0,0.0,0.0,0.0,0.0,0.0,0.0,0.0,0.0,0.0,0.0,0.0,0.0,0.0,0.0,0.0,0.0,0.0,0.0,0.0,0.0,0.0,0.0,0.0,0.0,0.0,0.0,0.0,0.0,0.0,0.0,0.0,0.0,0.0,0.0,0.0,0.0,0.0,0.0,0.0,0.0,0.0,0.0,0.0,0.0,0.0,0.0,0.0,0.0,0.0,0.0,0.0,0.0,0.0,0.0,0.0,0.0,0.0,0.0,0.0,0.0,0.0,0.0,0.0,0.0,0.0,0.0,0.0,0.0,0.0,0.0,0.0,0.0,0.0,0.0,0.0,0.0,0.0,0.0,0.0,0.0,0.0,0.0,0.0,0.0,0.0,0.0,0.0,0.0,0.0,0.0,0.0,0.0,0.0,0.0,0.0,0.0,0.0,0.0,0.0,0.0,-1.4455,-1.5032,-1.5033,-1.481,0.0,0.0,0.0,0.0,0.0,0.0,0.0,0.0,0.0,0.0,0.0,0.0,0.0,0.0,0.0,0.0,0.0,0.0,0.0,0.0,0.0,0.0,0.0,0.0,0.0,0.0,0.0,0.0,0.0,0.0,0.0,0.0,0.0,0.0,0.0,0.0,0.0,0.0,0.0,0.0,0.0,0.0,0.0,0.0,0.0,0.0,0.0,0.0,0.0,0.0,0.0,0.0,0.0,0.0,0.0,0.0,0.0,0.0,0.0,0.0,0.0,0.0,0.0,0.0,0.0,0.0,0.0,0.0,0.0,0.0,0.0,0.0,0.0,0.0,0.0,0.0,0.0,0.0,0.0,0.0,0.0,0.0,0.0,0.0,0.0,0.0,0.0,0.0,0.0,0.0,0.0,0.0,0.0,0.0,0.0,0.0,0.0,0.0,0.0,0.0,0.0,0.0,0.0,0.0,0.0,0.0,0.0,0.0,0.0,0.0,-1.4589,-1.5101,-1.5468,-1.53,-1.4756,-1.3856,0.0,0.0,0.0,0.0,0.0,0.0,0.0,0.0,0.0,0.0,0.0,0.0,0.0,0.0,0.0,0.0,0.0,0.0,0.0,0.0,0.0,0.0,0.0,0.0,0.0,0.0,0.0,0.0,0.0,0.0,0.0,0.0,0.0,0.0,0.0,0.0,0.0,0.0,0.0,0.0,0.0,0.0,0.0,0.0,0.0,0.0,0.0,0.0,0.0,0.0,0.0,0.0,0.0,0.0,0.0,0.0,0.0,0.0,0.0,0.0,0.0,0.0,0.0,0.0,0.0,0.0,0.0,0.0,0.0,0.0,0.0,0.0,0.0,0.0,0.0,0.0,0.0,0.0,0.0,0.0,0.0,0.0,0.0,0.0,0.0,0.0,0.0,0.0,0.0,0.0,0.0,0.0,0.0,0.0,0.0,0.0,0.0,0.0,0.0,0.0,0.0,0.0,0.0,0.0,0.0,0.0,0.0,0.0,-1.6763,-1.5595,-1.5565,-1.6901,-1.6249,-1.5238,0.0,0.0,0.0,0.0,0.0,0.0,0.0,0.0,0.0,0.0,0.0,0.0,0.0,0.0,0.0,0.0,0.0,0.0,0.0,0.0,0.0,0.0,0.0,0.0,0.0,0.0,0.0,0.0,0.0,0.0,0.0,0.0,0.0,0.0,0.0,0.0,0.0,0.0,0.0,0.0,0.0,0.0,0.0,0.0,0.0,0.0,0.0,0.0,0.0,0.0,0.0,0.0,0.0,0.0,0.0,0.0,0.0,0.0,0.0,0.0,0.0,0.0,0.0,0.0,0.0,0.0,0.0,0.0,0.0,0.0,0.0,0.0,0.0,0.0,0.0,0.0,0.0,0.0,0.0,0.0,0.0,0.0,0.0,0.0,0.0,0.0,0.0,0.0,0.0,0.0,0.0,0.0,0.0,0.0,0.0,0.0,0.0,0.0,0.0,0.0,0.0,0.0,0.0,0.0,0.0,0.0,0.0,0.0,0.0,-1.4265,-1.4664,-1.5537,-1.6872,-1.5859,-1.5013,0.0,0.0,0.0,0.0,0.0,0.0,0.0,0.0,0.0,0.0,0.0,0.0,0.0,0.0,0.0,0.0,0.0,0.0,0.0,0.0,0.0,0.0,0.0,0.0,0.0,0.0,0.0,0.0,0.0,0.0,0.0,0.0,0.0,0.0,0.0,0.0,0.0,0.0,0.0,0.0,0.0,0.0,0.0,0.0,0.0,0.0,0.0,0.0,0.0,0.0,0.0,0.0,0.0,0.0,0.0,0.0,0.0,0.0,0.0,0.0,0.0,0.0,0.0,0.0,0.0,0.0,0.0,0.0,0.0,0.0,0.0,0.0,0.0,0.0,0.0,0.0,0.0,0.0,0.0,0.0,0.0,0.0,0.0,0.0,0.0,0.0,0.0,0.0,0.0,0.0,0.0,0.0,0.0,0.0,0.0,0.0,0.0,0.0,0.0,0.0,0.0,0.0,0.0,0.0,0.0,0.0,0.0,0.0,0.0,-1.3668,0.0,-1.5815,-1.6472,-1.5663,-1.4754,0.0,0.0,0.0,0.0,0.0,0.0,0.0,0.0,0.0,0.0,0.0,0.0,0.0,0.0,0.0,0.0,0.0,0.0,0.0,0.0,0.0,0.0,0.0,0.0,0.0,0.0,0.0,0.0,0.0,0.0,0.0,0.0,0.0,0.0,0.0,0.0,0.0,0.0,0.0,0.0,0.0,0.0,0.0,0.0,0.0,0.0,0.0,0.0,0.0,0.0,0.0,0.0,0.0,0.0,0.0,0.0,0.0,0.0,0.0,0.0,0.0,0.0,0.0,0.0,0.0,0.0,0.0,0.0,0.0,0.0,0.0,0.0,0.0,0.0,0.0,0.0,0.0,0.0,0.0,0.0,0.0,0.0,0.0,0.0,0.0,0.0,0.0,0.0,0.0,0.0,0.0,0.0,0.0,0.0,0.0,0.0,0.0,0.0,0.0,0.0,0.0,0.0,0.0,0.0,0.0,0.0,0.0,0.0,-1.36,-1.5567,-1.639,-1.6447,-1.5863,-1.5759,-1.4517,0.0,0.0,0.0,0.0,0.0,0.0,0.0,0.0,0.0,0.0,0.0,0.0,0.0,0.0,0.0,0.0,0.0,0.0,0.0,0.0,0.0,0.0,0.0,0.0,0.0,0.0,0.0,0.0,0.0,0.0,0.0,0.0,0.0,0.0,0.0,0.0,0.0,0.0,0.0,0.0,0.0,0.0,0.0,0.0,0.0,0.0,0.0,0.0,0.0,0.0,0.0,0.0,0.0,0.0,0.0,0.0,0.0,0.0,0.0,0.0,0.0,0.0,0.0,0.0,0.0,0.0,0.0,0.0,0.0,0.0,0.0,0.0,0.0,0.0,0.0,0.0,0.0,0.0,0.0,0.0,0.0,0.0,0.0,0.0,0.0,0.0,0.0,0.0,0.0,0.0,0.0,0.0,0.0,0.0,0.0,0.0,0.0,0.0,0.0,0.0,0.0,0.0,0.0,0.0,0.0,0.0,0.0,0.0,0.0,-1.4896,-1.513,-1.5826,-1.6916,-1.5288,-1.4594,0.0,0.0,0.0,0.0,0.0,0.0,0.0,0.0,0.0,0.0,0.0,0.0,0.0,0.0,0.0,0.0,0.0,0.0,0.0,0.0,0.0,0.0,0.0,0.0,0.0,0.0,0.0,0.0,0.0,0.0,0.0,0.0,0.0,0.0,0.0,0.0,0.0,0.0,0.0,0.0,0.0,0.0,0.0,0.0,0.0,0.0,0.0,0.0,0.0,0.0,0.0,0.0,0.0,0.0,0.0,0.0,0.0,0.0,0.0,0.0,0.0,0.0,0.0,0.0,0.0,0.0,0.0,0.0,0.0,0.0,0.0,0.0,0.0,0.0,0.0,0.0,0.0,0.0,0.0,0.0,0.0,0.0,0.0,0.0,0.0,0.0,0.0,0.0,0.0,0.0,0.0,0.0,0.0,0.0,0.0,0.0,0.0,0.0,0.0,0.0,0.0,0.0,0.0,0.0,0.0,0.0,0.0,0.0,0.0,-1.618,-1.6019,-1.6405,-1.7465,-1.5937,-1.5189,-1.5352,0.0,0.0,0.0,0.0,0.0,0.0,0.0,0.0,0.0,0.0,0.0,0.0,0.0,0.0,0.0,0.0,0.0,0.0,0.0,0.0,0.0,0.0,0.0,0.0,0.0,0.0,0.0,0.0,0.0,0.0,0.0,0.0,0.0,0.0,0.0,0.0,0.0,0.0,0.0,0.0,0.0,0.0,0.0,0.0,0.0,0.0,0.0,0.0,0.0,0.0,0.0,0.0,0.0,0.0,0.0,0.0,0.0,0.0,0.0,0.0,0.0,0.0,0.0,0.0,0.0,0.0,0.0,0.0,0.0,0.0,0.0,0.0,0.0,0.0,0.0,0.0,0.0,0.0,0.0,0.0,0.0,0.0,0.0,0.0,0.0,0.0,0.0,0.0,0.0,0.0,0.0,0.0,0.0,0.0,0.0,0.0,0.0,0.0,0.0,0.0,0.0,0.0,0.0,0.0,0.0,0.0,0.0,0.0,-1.9023,-1.8729,-1.8269,-1.765,-1.7536,-1.6314,0.0,0.0,0.0,0.0,0.0,0.0,0.0,0.0,0.0,0.0,0.0,0.0,0.0,0.0,0.0,0.0,0.0,0.0,0.0,0.0,0.0,0.0,0.0,0.0,0.0,0.0,0.0,0.0,0.0,0.0,0.0,0.0,0.0,0.0,0.0,0.0,0.0,0.0,0.0,0.0,0.0,0.0,0.0,0.0,0.0,0.0,0.0,0.0,0.0,0.0,0.0,0.0,0.0,0.0,0.0,0.0,0.0,0.0,0.0,0.0,0.0,0.0,0.0,0.0,0.0,0.0,0.0,0.0,0.0,0.0,0.0,0.0,0.0,0.0,0.0,0.0,0.0,0.0,0.0,0.0,0.0,0.0,0.0,0.0,0.0,0.0,0.0,0.0,0.0,0.0,0.0,0.0,0.0,0.0,0.0,0.0,0.0,0.0,0.0,0.0,0.0,0.0,0.0,0.0,0.0,0.0,0.0,0.0,0.0,-1.9697,-2.0995,-2.1379,-2.0821,-1.891,-1.7471,0.0,0.0,0.0,0.0,0.0,0.0,0.0,0.0,0.0,0.0,0.0,0.0,0.0,0.0,0.0,0.0,0.0,0.0,0.0,0.0,0.0,0.0,0.0,0.0,0.0,0.0,0.0,0.0,0.0,0.0,0.0,0.0,0.0,0.0,0.0,0.0,0.0,0.0,0.0,0.0,0.0,0.0,0.0,0.0,0.0,0.0,0.0,0.0,0.0,0.0,0.0,0.0,0.0,0.0,0.0,0.0,0.0,0.0,0.0,0.0,0.0,0.0,0.0,0.0,0.0,0.0,0.0,0.0,0.0,0.0,0.0,0.0,0.0,0.0,0.0,0.0,0.0,0.0,0.0,0.0,0.0,0.0,0.0,0.0,0.0,0.0,0.0,0.0,0.0,0.0,0.0,0.0,0.0,0.0,0.0,0.0,0.0,0.0,0.0,0.0,0.0,0.0,0.0,0.0,0.0,0.0,0.0,0.0,-1.785,-2.0833,-2.2384,-2.3199,-2.324,-2.1407,-1.9344,0.0,0.0,0.0,0.0,0.0,0.0,0.0,0.0,0.0,0.0,0.0,0.0,0.0,0.0,0.0,0.0,0.0,0.0,0.0,0.0,0.0,0.0,0.0,0.0,0.0,0.0,0.0,0.0,0.0,0.0,0.0,0.0,0.0,0.0,0.0,0.0,0.0,0.0,0.0,0.0,0.0,0.0,0.0,0.0,0.0,0.0,0.0,0.0,0.0,0.0,0.0,0.0,0.0,0.0,0.0,0.0,0.0,0.0,0.0,0.0,0.0,0.0,0.0,0.0,0.0,0.0,0.0,0.0,0.0,0.0,0.0,0.0,0.0,0.0,0.0,0.0,0.0,0.0,0.0,0.0,0.0,0.0,0.0,0.0,0.0,0.0,0.0,0.0,0.0,0.0,0.0,0.0,0.0,0.0,0.0,0.0,0.0,0.0,0.0,0.0,0.0,0.0,0.0,0.0,0.0,0.0,0.0,0.0,-1.8914,-2.1837,-2.321,-2.4235,-2.4814,-2.3992,-2.1312,0.0,0.0,0.0,0.0,0.0,0.0,0.0,0.0,0.0,0.0,0.0,0.0,0.0,0.0,0.0,0.0,0.0,0.0,0.0,0.0,0.0,0.0,0.0,0.0,0.0,0.0,0.0,0.0,0.0,0.0,0.0,0.0,0.0,0.0,0.0,0.0,0.0,0.0,0.0,0.0,0.0,0.0,0.0,0.0,0.0,0.0,0.0,0.0,0.0,0.0,0.0,0.0,0.0,0.0,0.0,0.0,0.0,0.0,0.0,0.0,0.0,0.0,0.0,0.0,0.0,0.0,0.0,0.0,0.0,0.0,0.0,0.0,0.0,0.0,0.0,0.0,0.0,0.0,0.0,0.0,0.0,0.0,0.0,0.0,0.0,0.0,0.0,0.0,0.0,0.0,0.0,0.0,0.0,0.0,0.0,0.0,0.0,0.0,0.0,0.0,0.0,0.0,0.0,0.0,0.0,0.0,0.0,0.0,-1.9407,-2.1289,-2.3934,-2.5369,-2.5434,-2.3299,-2.0934,0.0,0.0,0.0,0.0,0.0,0.0,0.0,0.0,0.0,0.0,0.0,0.0,0.0,0.0,0.0,0.0,0.0,0.0,0.0,0.0,0.0,0.0,0.0,0.0,0.0,0.0,0.0,0.0,0.0,0.0,0.0,0.0,0.0,0.0,0.0,0.0,0.0,0.0,0.0,0.0,0.0,0.0,0.0,0.0,0.0,0.0,0.0,0.0,-1.3592,0.0,0.0,0.0,0.0,0.0,0.0,0.0,0.0,0.0,0.0,0.0,0.0,0.0,0.0,0.0,0.0,0.0,0.0,0.0,0.0,0.0,0.0,0.0,0.0,0.0,0.0,0.0,0.0,0.0,0.0,0.0,0.0,0.0,0.0,0.0,0.0,0.0,0.0,0.0,0.0,0.0,0.0,0.0,0.0,0.0,0.0,0.0,0.0,0.0,0.0,0.0,0.0,0.0,0.0,0.0,0.0,0.0,0.0,0.0,-2.0161,-2.2109,-2.4349,-2.5589,-2.5647,-2.3534,-2.133,0.0,0.0,0.0,0.0,0.0,0.0,0.0,0.0,0.0,0.0,0.0,0.0,0.0,0.0,0.0,0.0,0.0,0.0,0.0,0.0,0.0,0.0,0.0,0.0,0.0,0.0,0.0,0.0,0.0,0.0,0.0,0.0,0.0,0.0,0.0,0.0,0.0,0.0,0.0,0.0,0.0,0.0,0.0,0.0,0.0,0.0,0.0,0.0,0.0,0.0,0.0,0.0,0.0,0.0,0.0,0.0,0.0,0.0,0.0,0.0,0.0,0.0,0.0,0.0,0.0,0.0,0.0,0.0,0.0,0.0,0.0,0.0,0.0,0.0,0.0,0.0,0.0,0.0,0.0,0.0,0.0,0.0,0.0,0.0,0.0,0.0,0.0,0.0,0.0,0.0,0.0,0.0,0.0,0.0,0.0,0.0,0.0,0.0,0.0,0.0,0.0,0.0,0.0,0.0,0.0,0.0,0.0,-1.8598,-2.0948,-2.3191,-2.4612,-2.5521,-2.5851,-2.4056,-2.1978,-1.9649,0.0,0.0,0.0,0.0,0.0,0.0,0.0,0.0,0.0,0.0,0.0,0.0,0.0,0.0,0.0,0.0,0.0,0.0,0.0,0.0,0.0,0.0,0.0,0.0,0.0,0.0,0.0,0.0,0.0,0.0,0.0,0.0,0.0,0.0,0.0,0.0,0.0,0.0,-1.2551,-1.3371,0.0,0.0,0.0,0.0,0.0,0.0,0.0,0.0,-1.2638,0.0,0.0,0.0,0.0,0.0,0.0,0.0,0.0,0.0,0.0,0.0,0.0,0.0,0.0,0.0,0.0,0.0,0.0,0.0,0.0,0.0,0.0,0.0,0.0,0.0,0.0,0.0,0.0,0.0,0.0,0.0,0.0,0.0,0.0,0.0,0.0,0.0,0.0,0.0,0.0,0.0,0.0,0.0,0.0,0.0,0.0,0.0,0.0,0.0,0.0,0.0,0.0,0.0,0.0,0.0,0.0,-1.6747,-1.9151,-2.1264,-2.3094,-2.4866,-2.5808,-2.5837,-2.3931,-2.2038,-2.0252,0.0,0.0,0.0,0.0,0.0,0.0,0.0,0.0,0.0,0.0,0.0,0.0,0.0,0.0,0.0,0.0,0.0,0.0,0.0,0.0,0.0,0.0,0.0,0.0,0.0,0.0,0.0,0.0,0.0,0.0,0.0,0.0,0.0,0.0,0.0,0.0,0.0,0.0,0.0,-1.3735,-1.3976,0.0,0.0,0.0,0.0,0.0,0.0,0.0,0.0,-1.3526,0.0,0.0,0.0,0.0,0.0,0.0,0.0,0.0,0.0,0.0,0.0,0.0,0.0,0.0,0.0,0.0,0.0,0.0,0.0,0.0,0.0,0.0,0.0,0.0,0.0,0.0,0.0,0.0,0.0,0.0,0.0,0.0,0.0,0.0,0.0,0.0,0.0,0.0,0.0,0.0,0.0,0.0,0.0,0.0,0.0,0.0,0.0,0.0,0.0,0.0,0.0,0.0,0.0,0.0,0.0,-1.7298,-1.9694,-2.1803,-2.3586,-2.5093,-2.5739,-2.5414,-2.3518,-2.1639,0.0,0.0,0.0,0.0,0.0,0.0,0.0,0.0,0.0,0.0,0.0,0.0,0.0,0.0,0.0,0.0,0.0,0.0,0.0,0.0,0.0,0.0,0.0,0.0,0.0,0.0,0.0,0.0,0.0,0.0,0.0,0.0,0.0,0.0,0.0,0.0,0.0,0.0,0.0,0.0,-1.3722,-1.3914,-1.4014,0.0,0.0,0.0,0.0,0.0,0.0,-1.3642,-1.3419,0.0,0.0,0.0,0.0,0.0,0.0,0.0,0.0,0.0,0.0,0.0,0.0,0.0,0.0,0.0,0.0,0.0,0.0,0.0,0.0,0.0,0.0,0.0,0.0,0.0,0.0,0.0,0.0,0.0,0.0,0.0,0.0,0.0,0.0,0.0,0.0,0.0,0.0,0.0,0.0,0.0,0.0,0.0,0.0,0.0,0.0,0.0,0.0,0.0,0.0,0.0,0.0,0.0,0.0,0.0,-1.7682,-1.9957,-2.2104,-2.4022,-2.5049,-2.5345,-2.4978,-2.3041,-2.112,0.0,0.0,0.0,0.0,0.0,0.0,0.0,0.0,0.0,0.0,0.0,0.0,0.0,0.0,0.0,0.0,0.0,0.0,0.0,0.0,0.0,0.0,0.0,0.0,0.0,0.0,0.0,0.0,0.0,0.0,0.0,0.0,0.0,0.0,0.0,0.0,0.0,0.0,0.0,0.0,0.0,-1.393,-1.3909,-1.3909,0.0,0.0,0.0,0.0,-1.4408,-1.4,0.0,0.0,0.0,0.0,0.0,0.0,0.0,0.0,0.0,0.0,0.0,0.0,0.0,0.0,0.0,0.0,0.0,0.0,0.0,0.0,0.0,0.0,0.0,0.0,0.0,0.0,0.0,0.0,0.0,0.0,0.0,0.0,0.0,0.0,0.0,0.0,0.0,0.0,0.0,0.0,0.0,0.0,0.0,0.0,0.0,0.0,0.0,0.0,0.0,0.0,0.0,0.0,0.0,0.0,0.0,0.0,-1.7654,-1.961,-2.1713,-2.3952,-2.4233,-2.4528,-2.495,-2.2538,-2.0634,0.0,0.0,0.0,0.0,0.0,0.0,0.0,0.0,0.0,0.0,0.0,0.0,0.0,0.0,0.0,0.0,0.0,0.0,0.0,0.0,0.0,0.0,0.0,0.0,0.0,0.0,0.0,0.0,0.0,0.0,0.0,0.0,0.0,0.0,0.0,0.0,0.0,0.0,0.0,0.0,0.0,-1.4408,-1.4336,-1.4336,-1.4326,0.0,0.0,-1.489,-1.5005,-1.5315,0.0,0.0,0.0,0.0,0.0,0.0,0.0,0.0,0.0,0.0,0.0,0.0,0.0,0.0,0.0,0.0,0.0,0.0,0.0,0.0,0.0,0.0,0.0,0.0,0.0,0.0,0.0,0.0,0.0,0.0,0.0,0.0,0.0,0.0,0.0,0.0,0.0,0.0,0.0,0.0,0.0,0.0,0.0,0.0,0.0,0.0,0.0,0.0,0.0,0.0,0.0,0.0,0.0,0.0,0.0,-1.5868,-1.8295,-2.0048,-2.1812,-2.3572,-2.3946,-2.405,-2.3938,-2.1829,-2.0083,0.0,0.0,0.0,0.0,0.0,0.0,0.0,0.0,0.0,0.0,0.0,0.0,0.0,0.0,0.0,0.0,0.0,0.0,0.0,0.0,0.0,0.0,0.0,0.0,0.0,0.0,0.0,0.0,0.0,0.0,0.0,0.0,0.0,0.0,0.0,0.0,0.0,0.0,0.0,0.0,0.0,0.0,-1.4718,-1.4798,0.0,0.0,0.0,-1.5956,-1.5945,0.0,0.0,0.0,0.0,0.0,0.0,0.0,0.0,0.0,0.0,0.0,0.0,0.0,0.0,0.0,0.0,0.0,0.0,0.0,0.0,0.0,0.0,0.0,0.0,0.0,0.0,0.0,0.0,0.0,0.0,0.0,0.0,0.0,0.0,0.0,0.0,0.0,0.0,0.0,0.0,0.0,0.0,0.0,0.0,0.0,0.0,0.0,0.0,0.0,0.0,0.0,0.0,0.0,0.0,0.0,0.0,0.0,-1.8755,-2.0365,-2.1843,-2.3249,-2.3685,-2.3554,-2.2883,-2.1375,0.0,0.0,0.0,0.0,0.0,0.0,0.0,0.0,0.0,0.0,0.0,0.0,0.0,0.0,0.0,0.0,0.0,0.0,0.0,0.0,0.0,0.0,0.0,0.0,0.0,0.0,0.0,-1.1476,0.0,0.0,0.0,0.0,0.0,0.0,0.0,0.0,0.0,0.0,0.0,0.0,0.0,0.0,-1.4442,-1.5188,-1.551,-1.5774,0.0,0.0,-1.6793,-1.6782,-1.6598,-1.6002,0.0,0.0,0.0,0.0,0.0,0.0,0.0,0.0,0.0,0.0,0.0,0.0,0.0,0.0,0.0,0.0,0.0,0.0,0.0,0.0,0.0,0.0,0.0,0.0,0.0,0.0,0.0,0.0,0.0,0.0,0.0,0.0,0.0,0.0,0.0,0.0,0.0,0.0,0.0,0.0,0.0,0.0,0.0,0.0,0.0,0.0,0.0,0.0,0.0,0.0,0.0,0.0,0.0,0.0,0.0,-1.8774,-2.0098,-2.1567,-2.3244,-2.3334,-2.3003,-2.2278,-2.1475,-1.9942,0.0,0.0,0.0,0.0,0.0,0.0,0.0,0.0,0.0,0.0,0.0,0.0,0.0,0.0,0.0,0.0,0.0,0.0,0.0,0.0,0.0,0.0,0.0,0.0,0.0,0.0,0.0,0.0,0.0,0.0,0.0,0.0,0.0,0.0,0.0,0.0,0.0,0.0,0.0,0.0,0.0,-1.5762,-1.5832,-1.6648,-1.706,0.0,0.0,-1.7361,-1.735,-1.7664,-1.7271,-1.5291,0.0,0.0,0.0,0.0,0.0,0.0,0.0,0.0,0.0,0.0,0.0,0.0,0.0,0.0,0.0,0.0,0.0,0.0,0.0,0.0,0.0,0.0,0.0,0.0,0.0,0.0,0.0,0.0,0.0,0.0,0.0,0.0,0.0,0.0,0.0,0.0,0.0,0.0,0.0,0.0,0.0,0.0,0.0,0.0,0.0,0.0,0.0,0.0,0.0,0.0,0.0,0.0,0.0,-1.7049,-1.8974,-2.0489,-2.1826,-2.2949,-2.3601,-2.3405,-2.2352,-2.1626,-2.0223,0.0,0.0,0.0,0.0,0.0,0.0,0.0,0.0,0.0,0.0,0.0,0.0,0.0,0.0,0.0,0.0,0.0,0.0,0.0,0.0,0.0,0.0,0.0,0.0,0.0,0.0,0.0,0.0,-1.2936,-1.309,-1.3064,0.0,0.0,0.0,0.0,0.0,0.0,0.0,0.0,0.0,0.0,-1.5533,-1.5854,-1.6474,0.0,0.0,-1.7281,-1.7396,-1.7396,-1.7278,-1.6701,-1.5291,-1.4687,0.0,0.0,0.0,0.0,0.0,0.0,0.0,0.0,0.0,0.0,0.0,0.0,0.0,0.0,0.0,0.0,0.0,0.0,0.0,0.0,0.0,0.0,0.0,0.0,0.0,0.0,0.0,0.0,0.0,0.0,0.0,0.0,0.0,0.0,0.0,0.0,0.0,0.0,0.0,0.0,0.0,0.0,0.0,0.0,0.0,0.0,0.0,0.0,0.0,0.0,0.0,0.0,-1.7609,-1.9391,-2.1082,-2.2294,-2.3069,-2.3887,-2.3609,-2.2195,-2.16,-2.04,0.0,0.0,0.0,0.0,0.0,0.0,0.0,0.0,0.0,0.0,0.0,0.0,0.0,0.0,0.0,0.0,0.0,0.0,0.0,0.0,0.0,0.0,0.0,0.0,0.0,0.0,0.0,0.0,-1.3393,-1.3429,-1.3129,0.0,0.0,0.0,0.0,0.0,0.0,0.0,0.0,0.0,0.0,-1.5923,-1.6302,-1.6747,-1.7126,-1.7373,-1.7396,-1.7465,-1.7576,-1.7174,-1.6541,-1.5658,0.0,0.0,0.0,0.0,0.0,0.0,0.0,0.0,0.0,0.0,0.0,0.0,0.0,0.0,0.0,0.0,0.0,0.0,0.0,0.0,0.0,0.0,0.0,0.0,0.0,0.0,0.0,0.0,0.0,0.0,-2.1134,0.0,0.0,0.0,0.0,0.0,0.0,0.0,0.0,0.0,0.0,0.0,0.0,0.0,0.0,0.0,0.0,0.0,0.0,0.0,0.0,0.0,0.0,-1.8782,-2.0088,-2.178,-2.3002,-2.3645,-2.4146,-2.3483,-2.1656,-2.1403,-2.0421,-1.8554,0.0,0.0,0.0,0.0,0.0,0.0,0.0,0.0,0.0,0.0,0.0,0.0,0.0,0.0,0.0,0.0,0.0,0.0,0.0,0.0,0.0,0.0,0.0,0.0,0.0,0.0,-1.4316,-1.3815,-1.3391,0.0,0.0,0.0,0.0,0.0,0.0,0.0,0.0,0.0,0.0,-1.6804,-1.7324,-1.7361,-1.7771,-1.7859,-1.7488,-1.7396,-1.7542,-1.7985,-1.7668,-1.7197,0.0,0.0,0.0,0.0,0.0,0.0,0.0,0.0,0.0,0.0,0.0,0.0,0.0,0.0,0.0,0.0,0.0,0.0,0.0,0.0,0.0,0.0,0.0,0.0,0.0,0.0,0.0,-2.754,-2.5895,0.0,0.0,0.0,0.0,0.0,0.0,0.0,0.0,0.0,0.0,0.0,-2.6802,-2.6944,0.0,0.0,0.0,0.0,0.0,0.0,0.0,0.0,0.0,0.0,0.0,0.0,-1.9246,-2.1293,-2.233,-2.3161,-2.3806,-2.4283,-2.3813,-2.2409,-2.2224,-2.1061,-1.8705,0.0,0.0,0.0,0.0,0.0,0.0,0.0,0.0,0.0,0.0,0.0,0.0,0.0,0.0,0.0,0.0,0.0,0.0,0.0,0.0,0.0,0.0,0.0,0.0,0.0,-1.4964,0.0,0.0,0.0,0.0,0.0,0.0,0.0,0.0,0.0,0.0,0.0,-1.5508,-1.6632,-1.712,-1.7433,-1.7523,-1.7583,-1.7691,0.0,0.0,0.0,0.0,0.0,0.0,0.0,0.0,0.0,0.0,0.0,0.0,0.0,0.0,-1.4959,-1.4114,-1.3377,-1.2772,-1.2447,0.0,0.0,0.0,0.0,0.0,0.0,0.0,0.0,0.0,0.0,0.0,0.0,0.0,0.0,-2.9879,0.0,-2.8088,0.0,0.0,0.0,0.0,0.0,0.0,0.0,0.0,-2.7695,-2.8621,-2.9109,-2.8997,-2.8453,0.0,-2.7056,-2.5085,0.0,0.0,0.0,0.0,0.0,0.0,0.0,0.0,-2.0451,-2.2272,-2.3328,-2.4066,-2.453,-2.4586,-2.411,-2.3141,-2.2359,-2.0919,-1.8749,-1.7252,-1.6338,0.0,0.0,0.0,0.0,0.0,0.0,0.0,0.0,0.0,0.0,0.0,0.0,0.0,0.0,0.0,0.0,0.0,0.0,0.0,0.0,0.0,0.0,0.0,-1.4933,0.0,0.0,0.0,0.0,0.0,0.0,0.0,0.0,0.0,-1.5473,-1.5772,-1.6455,-1.7804,-1.7842,-1.7789,-1.7868,0.0,0.0,0.0,0.0,0.0,0.0,0.0,-1.7117,-1.7611,-1.6893,-1.6158,-1.5866,-1.5991,-1.6019,-1.5741,0.0,0.0,-1.4841,-1.4027,-1.3498,-1.3273,-1.3289,-1.3243,-1.2858,-1.3087,-1.3429,0.0,0.0,0.0,0.0,0.0,0.0,0.0,0.0,-3.1753,-3.1586,0.0,-3.0145,0.0,0.0,0.0,0.0,0.0,-2.6471,0.0,0.0,-3.0048,-3.1146,-3.0955,-3.0411,-2.9972,-2.9653,-2.9479,-2.8206,-2.5861,-2.2966,0.0,0.0,0.0,0.0,0.0,0.0,-2.2316,-2.3033,-2.4659,-2.5611,-2.5691,-2.4986,-2.4293,-2.363,-2.1771,-2.0135,-1.8839,-1.8237,-1.7544,-1.6754,-1.5698,0.0,0.0,0.0,0.0,0.0,0.0,0.0,0.0,0.0,0.0,0.0,0.0,0.0,0.0,0.0,0.0,0.0,0.0,0.0,0.0,-1.4976,0.0,0.0,0.0,0.0,0.0,0.0,0.0,0.0,0.0,0.0,-1.681,-1.7051,-1.7833,-1.942,0.0,0.0,0.0,0.0,-1.8084,-1.8084,-1.8134,-1.8478,-1.9482,-1.9206,-1.9034,-1.9562,0.0,0.0,-1.6248,-1.6365,-1.6436,-1.5596,-1.6123,-1.6404,-1.5537,-1.4963,-1.4664,-1.4717,-1.4624,-1.4636,-1.4738,-1.4586,-1.4723,-3.8057,0.0,0.0,0.0,0.0,-3.488,-3.5473,-3.6564,-3.5682,-3.469,-3.364,-3.2831,0.0,0.0,0.0,0.0,0.0,0.0,-2.9245,-3.0294,-3.1737,-3.2162,-3.1721,-3.2255,-3.1968,-3.0958,-3.0494,-2.9885,-2.9145,-2.6963,-2.4374,-2.1496,0.0,0.0,0.0,0.0,-2.2976,-2.4849,-2.5046,-2.509,-2.5085,-2.4438,-2.3777,-2.3155,-2.165,-2.0666,-2.0272,-1.9137,-1.819,-1.7446,-1.71,0.0,0.0,0.0,0.0,0.0,0.0,0.0,0.0,0.0,0.0,0.0,0.0,0.0,0.0,0.0,0.0,0.0,0.0,0.0,-1.4698,-1.515,-1.5492,0.0,0.0,0.0,0.0,0.0,0.0,0.0,0.0,0.0,-1.9461,-1.8847,-1.8825,0.0,0.0,-1.8958,-1.908,-1.8517,-1.8084,-1.8084,0.0,0.0,0.0,-1.9,-1.908,-1.9608,-1.8939,-1.8023,-1.7185,-1.6864,-1.6521,-1.5977,-1.6114,-1.6095,-1.5566,-1.5576,-1.543,-1.4971,-1.4991,-1.5022,-1.477,-1.5167,-1.5585,-4.1245,-3.8458,-3.7467,-3.756,-3.8273,-3.7917,-3.8289,-3.9127,-3.8224,-3.7404,-3.6677,-3.5611,-3.3627,-3.104,-3.0437,0.0,0.0,0.0,-3.0851,-3.1748,-3.2681,-3.2959,-3.2639,-3.2928,-3.2687,-3.1857,-3.0942,-3.0538,-3.0583,-2.9102,-2.6975,-2.4326,0.0,0.0,-2.3557,-2.3525,-2.4278,-2.573,-2.5716,-2.5502,-2.5212,-2.4293,-2.3609,-2.319,-2.1701,-2.0851,-2.0824,-1.9588,-1.8683,-1.8125,-1.7892,-1.7107,0.0,0.0,0.0,0.0,0.0,0.0,0.0,0.0,0.0,0.0,0.0,-1.2581,0.0,0.0,0.0,0.0,-1.4311,-1.526,-1.5629,-1.6225,0.0,0.0,0.0,0.0,0.0,0.0,0.0,-1.8946,-1.9339,-1.9883,-2.0754,-2.0101,-1.9933,-2.1103,-2.0091,-1.9345,-1.9681,0.0,-1.8233,-1.8673,-1.9023,-1.9344,-1.9723,-1.9821,-1.9817,-1.9759,-1.9235,-1.8438,-1.7663,-1.7219,-1.6836,-1.6465,-1.6328,-1.6191,-1.5752,-1.5919,-1.5899,-1.5195,-1.5371,-1.5488,-1.5031,-1.5547,-1.5986,-4.3402,-4.2648,-4.1351,-4.0735,-4.0659,-4.0659,-4.0305,-3.9721,-3.9613,-3.9567,-3.9459,-3.8185,-3.6751,-3.5202,-3.2509,0.0,-3.1383,-3.2154,-3.2441,-3.2447,-3.3235,-3.358,-3.3474,-3.2919,-3.2611,-3.2539,-3.1168,-3.0561,-3.0713,-2.9927,-2.8944,-2.7813,-2.6634,-2.56,-2.4879,-2.5466,-2.5832,-2.5865,-2.6486,-2.6431,-2.572,-2.4418,-2.3668,-2.3539,-2.1773,-2.0766,-2.064,-1.9671,-1.8984,-1.8716,-1.8237,-1.7623,-1.6877,0.0,0.0,0.0,0.0,0.0,0.0,0.0,0.0,0.0,0.0,0.0,0.0,0.0,0.0,0.0,-1.6608,0.0,-1.7096,-1.7835,0.0,0.0,0.0,-1.7974,-1.8377,-1.9296,-2.0113,-2.0718,0.0,0.0,-2.1137,0.0,-2.1091,-2.2096,-2.0593,-1.9611,-2.0152,-1.9099,-1.8563,-1.9505,-1.9711,-2.0097,-2.0787,-2.1017,-2.0776,-2.004,-1.9748,-1.9088,-1.7968,-1.7448,-1.7181,-1.6699,-1.6619,-1.6475,-1.6095,-1.5997,-1.5919,-1.5469,-1.5703,-1.5899,-1.5498,-1.5772,-1.6065,-4.5187,-4.4095,-4.3756,-4.3048,-4.2125,-4.2109,-4.2017,-4.1786,-4.0739,-4.0243,-4.0166,-3.8829,-3.7703,-3.6607,-3.4574,-3.3996,-3.4565,-3.4158,-3.4082,-3.4266,-3.446,-3.4186,-3.3518,-3.3804,-3.3703,-3.3209,-3.2394,-3.2,-3.2004,-3.0871,-2.9855,-2.8987,-2.832,-2.7432,-2.6292,-2.5966,-2.605,-2.6573,-2.6718,-2.6228,-2.5056,-2.4273,-2.338,-2.2424,-2.1468,-2.0709,-2.0255,-1.9498,-1.9007,-1.8798,-1.866,-1.8214,-1.7448,-1.6666,0.0,0.0,0.0,0.0,0.0,0.0,0.0,0.0,0.0,-1.4938,-1.3338,0.0,-1.6039,0.0,-1.652,-1.7297,-1.7661,-1.8119,0.0,0.0,-1.9532,-1.9736,-2.0335,-2.055,-2.0852,-2.1409,-2.1684,-2.2005,-2.2402,-2.2152,-2.2068,-2.2267,-2.0744,-1.9859,-2.0582,-1.9668,-1.9039,-1.9615,-2.001,-2.032,-2.0572,-2.0928,-2.0882,-2.0037,-1.9716,-1.9271,-1.8347,-1.7434,-1.6748,-1.6309,-1.5937,-1.5713,-1.5596,-1.5566,-1.5547,-1.5439,-1.5498,-1.5537,-1.5439,-1.5752,-1.5997,-4.5695,-4.5103,-4.5341,-4.488,-4.391,-4.3618,-4.3156,-4.2556,-4.175,-4.1074,-4.0413,-3.9315,-3.8453,-3.7699,-3.6322,-3.5872,-3.6079,-3.5477,-3.5051,-3.4802,-3.4868,-3.4383,-3.3518,-3.3867,-3.3804,-3.3489,-3.2817,-3.2481,-3.2423,-3.1482,-3.0654,-2.9912,-2.9392,-2.8608,-2.7663,-2.6733,-2.6442,-2.6779,-2.6489,-2.5981,-2.523,-2.4307,-2.3473,-2.2756,-2.1867,-2.105,-2.0428,-1.9846,-1.931,-1.8817,-1.887,-1.8508,-1.7692,-1.7608,-1.717,0.0,0.0,0.0,0.0,0.0,0.0,0.0,0.0,0.0,0.0,0.0,-1.6983,-1.667,-1.7497,-1.8267,-1.8772,-1.9349,-1.999,-2.0715,-2.0804,-2.102,-2.1578,-2.1587,-2.1746,-2.2261,-2.241,-2.2474,-2.2548,-2.2249,-2.2037,-2.2025,-2.0892,-2.0282,-2.0789,-2.0106,-1.9611,-2.009,-2.03,-2.0381,-2.0381,-2.0323,-2.0093,-1.9518,-1.909,-1.8669,-1.8091,-1.7253,-1.6502,-1.6215,-1.5831,-1.5517,-1.542,-1.542,-1.542,-1.542,-1.542,-1.542,-1.542,-1.5605,-1.5684,-4.5703,-4.5634,-4.6219,-4.6126,-4.5526,-4.4902,-4.3925,-4.2848,-4.2679,-4.1817,-4.0459,-3.9753,-3.9171,-3.869,-3.7851,-3.7255,-3.6872,-3.6398,-3.5711,-3.4898,-3.4935,-3.4508,-3.3685,-3.362,-3.362,-3.3605,-3.2933,-3.26,-3.2498,-3.1845,-3.1192,-3.0598,-2.9943,-2.9305,-2.868,-2.7532,-2.6893,-2.6806,-2.6213,-2.5905,-2.5789,-2.4534,-2.3755,-2.3553,-2.2457,-2.1456,-2.0736,-2.0391,-1.9821,-1.8994,-1.9109,-1.887,-1.8087,-1.8512,-1.8285,0.0,-1.7486,0.0,0.0,0.0,0.0,0.0,0.0,0.0,0.0,-1.7883,-1.7948,-1.8183,-1.914,-1.9837,-2.0118,-2.0964,-2.1503,-2.1554,-2.1787,-2.2027,-2.2317,-2.2401,-2.2573,-2.2987,-2.298,-2.2752,-2.2342,-2.1952,-2.1799,-2.1793,-2.1305,-2.1014,-2.1206,-2.06,-2.021,-2.071,-2.0538,-2.0389,-2.0232,-1.9682,-1.9123,-1.8673,-1.8344,-1.7904,-1.7605,-1.6971,-1.6477,-1.6337,-1.596,-1.5653,-1.5478,-1.5449,-1.542,-1.5449,-1.5439,-1.542,-1.542,-1.543,-1.542,-4.608,-4.5618,-4.5726,-4.5711,-4.5526,-4.4864,-4.4471,-4.4163,-4.3063,-4.1817,-4.0505,-4.0243,-4.0052,-3.9918,-3.9146,-3.8485,-3.7885,-3.7439,-3.6682,-3.575,-3.5462,-3.5077,-3.4626,-3.4374,-3.424,-3.4182,-3.3587,-3.3021,-3.2513,-3.1845,-3.1206,-3.0598,-2.9943,-2.9305,-2.8709,0.0,0.0,0.0,-2.6689,-2.6355,-2.5818,-2.5003,-2.4081,-2.3082,-2.2352,0.0,-2.0309,-2.0605,-2.0422,-1.9618,-2.0075,0.0,0.0,0.0,0.0,0.0,0.0,0.0,0.0,0.0,0.0,0.0,-1.8731,-1.8194,-1.8318,-1.9162,-1.9872,-2.0361,-2.1001,-2.127,-2.0936,-2.1886,-2.2309,-2.1905,-2.2572,-2.3005,-2.2757,-2.2988,-2.3052,-2.2643,-2.2879,-2.304,-2.2897,-2.2747,-2.2609,-2.2463,-2.2238,-2.2043,-2.2005,-2.1258,-2.0836,-2.1019,-2.0672,-2.0262,-1.9895,-1.9474,-1.8837,-1.8283,-1.8048,-1.7863,-1.7492,-1.6931,-1.6497,-1.6437,-1.6058,-1.574,-1.5759,-1.5575,-1.5449,-1.5585,-1.5507,-1.542,-1.542,-1.542,-1.5449,-4.6388,0.0,-4.608,-4.6095,0.0,-4.5357,-4.488,-4.4479,-4.3187,-4.1817,-4.0505,-4.0436,-4.0401,-4.037,-3.968,-3.899,-3.833,-3.7735,-3.6932,-3.5988,-3.5784,-3.5429,-3.4902,-3.4735,-3.4582,-3.4399,-3.4095,-3.3634,-3.2977,-3.2338,-3.1685,-3.1032,-3.0408,-2.9624,-2.8694,-2.7737,-2.7099,-2.6794,-2.6794,-2.6445,-2.5807,-2.5473,-2.4679,-2.3447,0.0,0.0,0.0,0.0,0.0,0.0,0.0,0.0,0.0,0.0,0.0,-2.0895,-2.1066,-2.1122,-2.1046,-2.0964,-2.1089,-2.1489,-2.0796,-2.0003,-1.9292,-1.9969,-2.0591,-2.1014,-2.128,-2.1479,-2.1703,-2.2365,-2.2725,-2.2553,-2.3048,-2.3263,-2.3018,-2.3111,-2.3144,-2.2888,-2.2962,-2.3095,-2.3095,-2.2987,-2.2878,-2.28,-2.2647,-2.2451,-2.2204,-2.1692,-2.1241,-2.0966,-2.0488,-1.9962,-1.946,-1.877,-1.8233,-1.7726,-1.7411,-1.7165,-1.6997,-1.6664,-1.6412,-1.6304,-1.6064,-1.5904,-1.5798,-1.5672,-1.5575,-1.5546,-1.5478,-1.542,-1.542,-1.542,-1.542,-4.6603,-4.6588,-4.6465,-4.6403,-4.6372,-4.5695,-4.5018,-4.4363,0.0,0.0,0.0,-4.0674,-4.0612,-4.0439,-3.992,-3.929,-3.8662,-3.7984,-3.718,-3.6251,-3.6098,-3.5671,-3.51,-3.4968,-3.4769,-3.4501,-3.4448,-3.4095,-3.3489,-3.2948,-3.2338,-3.1669,-3.1047,-3.006,-2.8709,-2.7534,-2.6895,-2.6794,-2.6794,-2.6544,-2.6006,-2.5876,-2.5241,-2.4109,-2.4051,-2.3455,-2.2207,-2.2381,-2.212,-2.1291,-2.1499,-2.1513,-2.1267,-2.2227,-2.279,-2.2776,-2.359,-2.3817,-2.3202,-2.3621,-2.3522,-2.2677,-2.23,-2.1656,-2.0513,-2.0671,-2.1004,-2.1387,-2.1366,-2.1635,-2.2333,-2.2712,-2.2919,-2.3022,-2.3207,-2.3271,-2.3138,-2.3095,-2.3095,-2.3095,-2.3083,-2.3095,-2.3108,-2.3017,-2.2939,-2.2878,-2.28,-2.2629,-2.2247,-2.1851,-2.1385,-2.085,-2.0403,-1.9848,-1.935,-1.8583,-1.7761,-1.7536,-1.7038,-1.6592,-1.6423,-1.6402,-1.6345,-1.6233,-1.6153,-1.6009,-1.5817,-1.5769,-1.5662,-1.5507,-1.5459,-1.5449,-1.542,-1.542,-1.541,-4.6603,-4.6557,-4.5972,-4.5726,-4.568,-4.5003,-4.4326,-4.3747,-4.3547,-4.2606,-4.1204,-4.1361,-4.1039,-4.0331,-4.0328,-3.9982,-3.9321,-3.8677,-3.7967,0.0,-3.6406,-3.5941,-3.5799,-3.5184,-3.4868,-3.4802,-3.4534,-3.4095,-3.3547,-3.3416,-3.3006,-3.2367,-3.17,-3.048,-2.8768,-2.7955,-2.7331,-2.6808,-2.6794,-2.6762,-2.666,-2.6108,-2.5498,-2.4791,-2.4694,-2.4085,-2.2867,-2.3876,-2.4119,-2.3357,-2.387,-2.411,-2.3955,-2.3985,-2.4024,-2.4039,-2.4083,-2.3999,-2.3789,-2.3858,-2.3509,-2.2718,-2.2833,-2.2626,-2.1752,-2.1693,-2.1992,-2.2657,-2.284,-2.2954,-2.2799,-2.3072,-2.3128,-2.2694,-2.2921,-2.3108,-2.3095,-2.3095,-2.3095,-2.3095,-2.3095,-2.3095,-2.3108,-2.3078,-2.303,-2.2939,-2.2848,-2.2708,-2.2247,-2.1757,-2.1376,-2.1103,-2.0661,-2.035,-2.001,-1.9489,-1.8654,-1.8009,-1.7593,-1.7074,-1.6511,-1.6402,-1.6384,-1.6345,-1.621,-1.6095,-1.6028,-1.5961,-1.5827,-1.5672,-1.5643,-1.5604,-1.5478,-1.5449,-1.5439,-4.6927,-4.6526,-4.5865,-4.5588,-4.5526,-4.4902,-4.4456,-4.4163,-4.4148,-4.3119,-4.1541,-4.1566,-4.1181,-4.0466,-4.0455,-4.012,-3.9477,-3.8816,-3.8338,-3.8,-3.7194,-3.6712,-3.652,-3.6016,-3.5459,-3.4902,-3.4568,-3.4269,-3.3964,-3.3678,-3.3344,-3.298,-3.1685,-3.0553,-2.9711,-2.839,-2.755,-2.7275,-2.6953,-2.6794,-2.6806,-2.6489,-2.601,-2.54,-2.5357,-2.4921,-2.4012,-2.4559,-2.4699,-2.4235,-2.4596,-2.4731,-2.4607,-2.4848,-2.4983,-2.4907,-2.5142,-2.5196,-2.4998,-2.4918,-2.4547,-2.3873,-2.3792,-2.3511,-2.281,-2.2525,-2.2609,-2.3158,-2.3228,-2.3176,-2.3127,-2.3369,-2.3318,-2.2875,-2.3089,-2.3198,-2.3108,-2.3095,-2.3095,-2.3095,-2.3095,-2.3095,-2.3095,-2.3095,-2.3078,-2.3017,-2.2921,-2.2665,-2.234,-2.1906,-2.1444,-2.107,-2.0734,-2.0407,-2.0146,-1.9438,-1.8818,-1.8307,-1.7633,-1.7102,-1.6641,-1.6516,-1.6402,-1.6374,-1.6316,-1.622,-1.6153,-1.6066,-1.5961,-1.5827,-1.573,-1.5662,-1.5662,-1.5633,-1.5575,-4.7284,-4.6621,-4.5904,-4.5511,-4.5311,-4.4803,-4.461,-4.461,-4.4594,-4.3618,-4.2171,-4.2032,-4.1535,-4.0731,-4.072,-4.0351,-3.969,-3.9046,-3.8739,-3.8662,-3.8046,-3.7579,-3.7303,-3.6839,-3.6144,-3.527,-3.4742,-3.4467,-3.4356,-3.3906,-3.3634,-3.3358,-3.1992,-3.1048,-3.0583,-2.9102,-2.813,-2.771,-2.7244,-2.6939,-2.6794,-2.6794,-2.646,-2.5876,-2.5963,-2.5759,-2.5139,-2.5226,-2.5288,-2.5174,-2.5288,-2.5288,-2.5218,-2.5585,-2.5767,-2.5707,-2.6081,-2.626,-2.6002,-2.5839,-2.5464,-2.4798,-2.4626,-2.4285,-2.3699,-2.3447,-2.3311,-2.3478,-2.3339,-2.3338,-2.3496,-2.3539,-2.345,-2.3198,-2.3271,-2.3241,-2.3138,-2.3095,-2.3095,-2.3095,-2.3095,-2.3095,-2.3095,-2.3095,-2.3095,-2.3078,-2.2909,-2.2726,-2.2512,-2.2123,-2.1673,-2.1247,-2.0899,-2.0665,-2.0213,-1.9631,-1.9077,-1.8739,-1.7827,-1.7173,-1.6853,-1.6573,-1.6441,-1.6374,-1.6402,-1.6306,-1.6153,-1.6153,-1.6066,-1.5943,-1.5856,-1.5807,-1.5856,-1.5759,-1.5643,-4.753,-4.6779,-4.5958,-4.5218,-4.4733,-4.4603,-4.461,-4.461,-4.461,-4.4194,-4.3424,-4.3424,-4.256,-4.1357,-4.1377,-4.1032,-4.032,-3.9705,-3.9382,-3.9354,-3.8723,-3.8383,-3.8256,-3.7395,-3.6733,-3.6219,-3.53,-3.4668,-3.4433,-3.4346,-3.4022,-3.3561,-3.3314,-3.2312,-3.0816,-3.0409,-2.9464,-2.7753,-2.7652,-2.736,-2.6823,-2.6794,-2.6474,-2.5847,-2.6413,-2.6387,-2.5774,-2.6312,-2.6605,-2.6605,-2.6576,-2.6591,-2.6564,-2.6488,-2.6397,-2.6397,-2.6441,-2.6418,-2.6245,-2.6029,-2.5532,-2.4746,-2.5107,-2.4984,-2.4205,-2.4489,-2.4487,-2.4021,-2.3848,-2.3888,-2.3995,-2.3671,-2.342,-2.333,-2.3198,-2.3108,-2.3095,-2.3095,-2.3095,-2.3095,-2.3095,-2.3095,-2.3095,-2.3095,-2.3095,-2.3095,-2.306,-2.2927,-2.2787,-2.2482,-2.213,-2.1779,-2.1424,-2.1126,-2.0899,-2.0615,-1.9832,-1.919,-1.8419,-1.7658,-1.7048,-1.6658,-1.6402,-1.6402,-1.6402,-1.6335,-1.6239,-1.6239,-1.623,-1.6058,-1.6,-1.6038,-1.5914,-1.5798,-1.5662,-4.7926,-4.6849,-4.6374,-4.5557,-4.4671,-4.461,-4.461,-4.461,-4.461,-4.4456,-4.4178,-4.3793,-4.2796,-4.1464,-4.112,-4.0766,-4.0443,-3.9831,-3.9721,-3.9982,-3.9382,-3.9093,-3.8964,-3.8071,-3.7237,-3.6435,-3.5396,-3.4835,-3.4662,-3.4354,-3.4222,-3.4204,-3.3394,-3.28,-3.2507,-3.127,-3.0176,-2.9421,-2.8666,-2.7984,-2.7347,-2.6982,-2.6663,-2.6457,-2.666,-2.6678,-2.6431,-2.6675,-2.6794,-2.6794,-2.6794,-2.6794,-2.6794,-2.6727,-2.6618,-2.651,-2.6418,-2.6353,-2.6313,-2.6206,-2.5916,-2.5393,-2.5521,-2.5412,-2.4998,-2.4995,-2.4855,-2.4594,-2.4302,-2.4099,-2.3979,-2.3641,-2.333,-2.3241,-2.3138,-2.3095,-2.3095,-2.3095,-2.3095,-2.3095,-2.3095,-2.3095,-2.3095,-2.3095,-2.3095,-2.3108,-2.3047,-2.2957,-2.28,-2.2482,-2.2204,-2.1925,-2.1569,-2.1197,-2.0912,-2.0437,-1.9892,-1.9287,-1.8516,-1.7729,-1.7333,-1.6874,-1.6591,-1.6431,-1.6402,-1.6374,-1.6306,-1.6316,-1.6327,-1.6212,-1.6202,-1.622,-1.5943,-1.5933,-1.5855,-4.846,-4.7269,-4.6614,-4.5649,-4.4641,-4.461,-4.461,-4.461,-4.461,-4.461,-4.4548,-4.3901,-4.2956,-4.1878,-4.1105,-4.0689,-4.0443,-3.9982,-4.0013,-4.0413,-3.9982,-3.9767,-3.969,-3.8659,-3.7719,-3.6827,-3.575,-3.5151,-3.4963,-3.4401,-3.431,-3.4416,-3.3469,-3.3098,-3.336,-3.1853,-3.0946,-3.0525,-2.9479,-2.855,-2.7753,-2.726,-2.7041,-2.7026,-2.6866,-2.6866,-2.7026,-2.6907,-2.6794,-2.6794,-2.6794,-2.6794,-2.6794,-2.6965,-2.6973,-2.6823,-2.6519,-2.6326,-2.6313,-2.6313,-2.6179,-2.5893,-2.577,-2.5674,-2.5494,-2.5285,-2.5131,-2.502,-2.4679,-2.4347,-2.4041,-2.373,-2.342,-2.3228,-2.3138,-2.3095,-2.3095,-2.3095,-2.3095,-2.3095,-2.3095,-2.3095,-2.3095,-2.3095,-2.3095,-2.3108,-2.3017,-2.2939,-2.28,-2.2543,-2.2278,-2.2061,-2.1757,-2.1315,-2.0775,-2.0261,-1.9785,-1.9272,-1.8562,-1.7899,-1.7579,-1.7145,-1.6751,-1.6563,-1.6449,-1.6374,-1.6363,-1.6374,-1.6384,-1.6402,-1.6374,-1.6316,-1.6144,-1.6095,-1.6038,-4.903,-4.7995,-4.6329,-4.5249,-4.4625,-4.461,-4.461,-4.461,-4.461,-4.461,-4.4517,-4.3901,-4.3223,-4.2479,-4.1786,-4.1155,-4.0551,-4.0428,-4.0428,-4.0489,-4.0428,-4.0428,-4.0351,-3.9121,-3.8295,-3.7749,-3.6544,-3.5748,-3.5337,-3.4692,-3.4265,-3.4038,-3.3797,-3.3355,-3.2797,-3.2518,-3.1801,-3.0786,-3.0016,-2.8971,-2.7898,-2.7695,-2.7666,-2.7608,-2.7099,-2.7055,-2.7478,-2.7099,-2.6794,-2.6794,-2.6823,-2.6835,-2.6837,-2.7318,-2.7608,-2.7538,-2.6924,-2.6445,-2.634,-2.634,-2.6179,-2.5811,-2.5839,-2.5798,-2.5578,-2.5467,-2.5369,-2.5216,-2.4948,-2.4677,-2.4334,-2.3995,-2.3713,-2.3403,-2.3198,-2.3125,-2.3095,-2.3095,-2.3095,-2.3095,-2.3095,-2.3145,-2.3133,-2.3095,-2.3133,-2.3145,-2.3133,-2.3078,-2.2987,-2.2787,-2.2586,-2.2371,-2.2075,-2.1642,-2.0988,-2.0363,-1.9831,-1.9275,-1.8666,-1.8034,-1.7678,-1.7329,-1.6976,-1.6666,-1.6477,-1.6402,-1.6402,-1.6402,-1.6402,-1.6402,-1.6402,-1.6316,-1.6259,-1.6181,-1.6095,-4.8724,-4.7348,-4.6245,-4.5341,-4.4625,-4.461,-4.461,-4.461,-4.461,-4.461,-4.4502,-4.3901,-4.3217,-4.2571,-4.1894,-4.1201,-4.0536,-4.0489,-4.0489,-4.0489,-4.0489,-4.0489,-4.0397,-3.9536,-3.8708,-3.7937,-3.7084,-3.6207,-3.5359,-3.4555,-3.4223,-3.4153,-3.3388,-3.3099,-3.3319,-3.3052,-3.2472,-3.1833,-3.1147,-3.0001,-2.8507,-2.8332,-2.8332,-2.8317,-2.7316,-2.7084,-2.7681,-2.7113,-2.6794,-2.6794,-2.7171,-2.72,-2.6922,-2.7389,-2.771,-2.7681,-2.7409,-2.7025,-2.6558,-2.6553,-2.6474,-2.6138,-2.6029,-2.599,-2.5785,-2.5605,-2.5467,-2.5411,-2.5327,-2.5117,-2.4721,-2.4144,-2.3671,-2.3509,-2.3288,-2.3108,-2.3095,-2.3095,-2.3095,-2.3095,-2.3108,-2.3233,-2.3434,-2.3333,-2.3258,-2.3577,-2.3346,-2.3115,-2.2987,-2.2878,-2.2769,-2.2616,-2.2365,-2.1891,-2.0959,-2.0481,-1.9963,-1.9298,-1.8684,-1.8286,-1.792,-1.7523,-1.7171,-1.6694,-1.6477,-1.6402,-1.6402,-1.6402,-1.6402,-1.6402,-1.6402,-1.6402,-1.6402,-1.6249,-1.6153,-4.848,-4.6935,-4.633,-4.5542,-4.4641,-4.461,-4.4663,-4.4701,-4.4625,-4.4648,-4.4593,-4.4132,-4.3417,-4.2679,-4.234,-4.1724,-4.0909,-4.0628,-4.0489,-4.0489,-4.0489,-4.0489,-4.0382,-3.9831,-3.902,-3.8134,-3.7247,-3.6356,-3.5437,-3.4577,-3.4121,-3.3923,-3.3066,-3.296,-3.3467,-3.3004,-3.2654,-3.2605,-3.1787,-3.0524,-2.9406,-2.8912,-2.8811,-2.8768,-2.7752,-2.749,-2.8246,-2.7737,-2.7403,-2.7447,-2.781,-2.794,-2.7766,-2.7681,-2.7797,-2.7969,-2.7594,-2.7265,-2.6911,-2.6963,-2.6984,-2.6897,-2.6604,-2.641,-2.6511,-2.619,-2.6022,-2.6077,-2.6146,-2.5991,-2.543,-2.4784,-2.4164,-2.3785,-2.3437,-2.3198,-2.3138,-2.3095,-2.3095,-2.3095,-2.3095,-2.3296,-2.3577,-2.3308,-2.3321,-2.369,-2.3321,-2.3072,-2.2957,-2.2909,-2.2878,-2.2781,-2.2616,-2.2146,-2.1484,-2.1024,-2.0132,-1.9407,-1.9173,-1.8729,-1.8118,-1.7723,-1.7288,-1.6811,-1.6524,-1.642,-1.6402,-1.6402,-1.6402,-1.6402,-1.6402,-1.6402,-1.6374,-1.6316,-1.6192,-4.84,-4.7028,-4.6691,-4.5842,-4.4779,-4.4641,-4.4685,-4.4799,-4.4685,-4.4685,-4.4821,-4.4624,-4.384,-4.2956,-4.3193,-4.2771,-4.1663,-4.0997,-4.0674,-4.0612,-4.0536,-4.0489,-4.0459,-3.989,-3.9182,-3.8411,-3.7152,-3.6245,-3.5569,-3.4801,-3.4038,-3.3254,-3.2969,-3.2871,-3.3018,-3.2547,-3.2614,-3.287,-3.1745,-3.0714,-3.0452,-2.942,-2.9071,-2.9377,-2.8405,-2.8389,-2.9508,-2.8927,-2.8534,-2.8593,-2.8665,-2.8971,-2.9232,-2.8507,-2.8043,-2.8347,-2.7576,-2.7176,-2.7402,-2.7459,-2.762,-2.7782,-2.7484,-2.7314,-2.7471,-2.7173,-2.696,-2.7237,-2.7319,-2.7134,-2.6489,-2.606,-2.5279,-2.4063,-2.3679,-2.3437,-2.3228,-2.3095,-2.312,-2.3145,-2.3158,-2.312,-2.3133,-2.3145,-2.3183,-2.3271,-2.3183,-2.3095,-2.3047,-2.2987,-2.2909,-2.2878,-2.2763,-2.2431,-2.2058,-2.1609,-2.0504,-1.9579,-1.9557,-1.9317,-1.8483,-1.7934,-1.7489,-1.7023,-1.6534,-1.6431,-1.6402,-1.6402,-1.6402,-1.6402,-1.6402,-1.6402,-1.6374,-1.6316,-1.622,-4.888,-4.7815,-4.7105,-4.6198,-4.5287,-4.481,-4.4663,-4.4701,-4.461,-4.4723,-4.4836,-4.4685,-4.417,-4.3627,-4.3568,-4.311,-4.2309,-4.2032,-4.1724,-4.1263,-4.0751,-4.0536,-4.0459,-4.0259,-3.9616,-3.8539,-3.7615,-3.683,-3.6045,-3.5044,-3.419,-3.3649,-3.2911,-3.2746,-3.3007,-3.2952,-3.3183,-3.3321,-3.2454,-3.1526,-3.0686,-2.9987,-2.9666,-2.9581,-2.9418,-2.9651,-3.0191,-2.9247,-2.8723,-2.8752,-2.9102,-2.9624,-2.9972,-2.9465,-2.8942,-2.8694,-2.8375,-2.7911,-2.7641,-2.7628,-2.7729,-2.7876,-2.7965,-2.7881,-2.771,-2.767,-2.7682,-2.7835,-2.7777,-2.7562,-2.7392,-2.7176,-2.6282,-2.4671,-2.406,-2.3704,-2.3467,-2.3228,-2.3326,-2.3602,-2.3358,-2.3296,-2.3496,-2.3421,-2.3296,-2.3547,-2.3358,-2.3108,-2.312,-2.3072,-2.3047,-2.3017,-2.2907,-2.2742,-2.2313,-2.1911,-2.1182,-2.0245,-1.9961,-1.9483,-1.8685,-1.8163,-1.7734,-1.7158,-1.668,-1.6431,-1.6402,-1.6402,-1.6402,-1.6402,-1.6402,-1.6374,-1.6384,-1.6345,-1.6249,-4.8981,-4.8126,-4.7174,-4.6415,-4.5658,-4.4941,-4.4648,-4.4685,-4.461,-4.4723,-4.4927,-4.4723,-4.4331,-4.3979,-4.3945,-4.3608,-4.3017,-4.2971,-4.2725,-4.2263,-4.1632,-4.1166,-4.0828,-4.0305,-3.9582,-3.8585,-3.7815,-3.7015,-3.6076,-3.5075,-3.4249,-3.3703,-3.2984,-3.2804,-3.3102,-3.3206,-3.3433,-3.3758,-3.2893,-3.2225,-3.1881,-3.0984,-3.0455,-3.0514,-3.0382,-3.0426,-3.0525,-2.9798,-2.9406,-2.9479,-2.9784,-3.0176,-3.051,-2.974,-2.9102,-2.8738,-2.8258,-2.7853,-2.7724,-2.7942,-2.8188,-2.8378,-2.8683,-2.8656,-2.8325,-2.8354,-2.8322,-2.8335,-2.8441,-2.8366,-2.8169,-2.804,-2.7286,-2.5981,-2.5105,-2.4341,-2.3857,-2.3335,-2.3251,-2.3471,-2.354,-2.3534,-2.3527,-2.369,-2.3565,-2.3853,-2.3471,-2.3246,-2.3283,-2.3246,-2.3158,-2.3095,-2.3053,-2.2795,-2.2481,-2.2127,-2.1788,-2.1034,-2.0402,-1.9547,-1.8682,-1.8411,-1.8075,-1.7218,-1.6591,-1.6488,-1.6431,-1.6402,-1.6402,-1.6402,-1.6402,-1.6402,-1.6374,-1.6345,-1.6278,-4.8836,-4.8013,-4.7031,-4.6383,-4.5889,-4.5025,-4.4685,-4.4799,-4.4685,-4.4814,-4.5055,-4.4776,-4.443,-4.4186,-4.4377,-4.4141,-4.3747,-4.367,-4.3655,-4.3454,-4.294,-4.2294,-4.1278,-4.0385,-3.9508,-3.8523,-3.7984,-3.6984,-3.5814,-3.5028,-3.4227,-3.3725,-3.3293,-3.3154,-3.3499,-3.3296,-3.3824,-3.4466,-3.3168,-3.3028,-3.4065,-3.2377,-3.1427,-3.1944,-3.1233,-3.0761,-3.0644,-3.0497,-3.0481,-3.0569,-3.0496,-3.0539,-3.0394,-2.9435,-2.884,-2.8796,-2.7634,-2.7578,-2.7868,-2.8448,-2.8869,-2.9204,-2.9377,-2.9348,-2.9016,-2.8911,-2.8931,-2.8859,-2.9188,-2.9279,-2.8844,-2.8745,-2.8288,-2.7567,-2.6276,-2.5165,-2.4014,-2.3433,-2.3316,-2.3369,-2.3627,-2.3766,-2.3271,-2.3597,-2.3866,-2.3791,-2.3459,-2.3521,-2.3484,-2.3346,-2.3158,-2.3095,-2.3095,-2.2955,-2.2648,-2.2563,-2.2154,-2.1404,-2.0737,-1.9873,-1.8846,-1.8557,-1.8064,-1.719,-1.6637,-1.6534,-1.6459,-1.6431,-1.6402,-1.6402,-1.6402,-1.6402,-1.6374,-1.6335,-1.6335,-4.9247,-4.9021,-4.732,-4.6614,-4.6431,-4.521,-4.4625,-4.4701,-4.4625,-4.4814,-4.5055,-4.4776,-4.4668,-4.4822,-4.4631,-4.4502,-4.4348,-4.4317,-4.4348,-4.4332,-4.4209,-4.274,-4.1309,-4.0986,-4.0108,-3.8769,-3.8675,-3.8031,-3.6292,-3.5568,-3.5121,-3.4891,-3.3836,-3.3723,-3.4394,-3.4452,-3.4748,-3.5108,-3.439,-3.3976,-3.431,-3.3728,-3.2916,-3.2348,-3.2139,-3.1575,-3.0984,-3.0687,-3.0612,-3.0612,-3.0612,-3.0612,-3.0539,-2.9798,-2.9305,-2.9174,-2.8652,-2.8419,-2.8928,-2.9204,-2.9261,-2.9044,-2.9784,-2.9638,-2.8278,-2.9186,-2.9408,-2.9275,-2.9377,-2.9546,-2.9392,-2.935,-2.8979,-2.8138,-2.6758,-2.5412,-2.449,-2.3812,-2.356,-2.3837,-2.3748,-2.3455,-2.3326,-2.3597,-2.3891,-2.3609,-2.3584,-2.3659,-2.3647,-2.3333,-2.3095,-2.3095,-2.3095,-2.3017,-2.2932,-2.2854,-2.2498,-2.1689,-2.1025,-2.0358,-1.9329,-1.8548,-1.7807,-1.6948,-1.6676,-1.6516,-1.6459,-1.6402,-1.6402,-1.6392,-1.6402,-1.6431,-1.6402,-1.6374,-1.6374,-4.9517,-4.9463,-4.7962,-4.7417,-4.7388,-4.5843,-4.5156,-4.504,-4.4756,-4.4776,-4.4964,-4.4739,-4.4761,-4.5017,-4.4723,-4.461,-4.461,-4.461,-4.4648,-4.4662,-4.4399,-4.3168,-4.174,-4.1401,-4.0355,-3.9139,-3.9275,-3.8508,-3.7076,-3.623,-3.5799,-3.5338,-3.4572,-3.4424,-3.488,-3.515,-3.5329,-3.5475,-3.5085,-3.4875,-3.5258,-3.4713,-3.388,-3.3096,-3.2766,-3.2167,-3.1027,-3.0687,-3.0612,-3.0612,-3.0612,-3.0612,-3.0554,-2.9943,-2.961,-2.9566,-2.9029,-2.8855,-2.9189,-2.9421,-2.945,-2.9334,-3.006,-2.9798,-2.9045,-2.9517,-2.9824,-2.9252,-2.9419,-2.9577,-2.9602,-2.9602,-2.9201,-2.8327,-2.7314,-2.6237,-2.531,-2.4333,-2.3984,-2.4006,-2.3887,-2.3467,-2.3195,-2.3797,-2.4036,-2.396,-2.3941,-2.3948,-2.3898,-2.3446,-2.3095,-2.3095,-2.3095,-2.3047,-2.3017,-2.2927,-2.2804,-2.207,-2.126,-2.0621,-1.9586,-1.861,-1.7896,-1.7192,-1.6821,-1.6555,-1.6569,-1.653,-1.6449,-1.6449,-1.6449,-1.6431,-1.6431,-1.6402,-1.6402,-4.9597,-4.955,-4.8693,-4.8396,-4.8247,-4.6679,-4.5819,-4.5703,-4.4963,-4.4723,-4.4836,-4.4723,-4.4761,-4.4874,-4.4761,-4.461,-4.461,-4.461,-4.4577,-4.4458,-4.4062,-4.3123,-4.2186,-4.1278,-4.037,-3.9585,-3.9505,-3.8769,-3.7615,-3.6815,-3.6245,-3.5722,-3.5233,-3.5034,-3.5186,-3.5391,-3.5631,-3.561,-3.5444,-3.5507,-3.5875,-3.5462,-3.4774,-3.394,-3.3212,-3.2476,-3.1421,-3.0947,-3.0917,-3.0859,-3.0743,-3.083,-3.0713,-3.0161,-2.9842,-2.9755,-2.9348,-2.8941,-2.9058,-2.9581,-2.9668,-2.9682,-3.0161,-3.0219,-2.9565,-2.9703,-2.9809,-2.9108,-2.9405,-2.9577,-2.9602,-2.9602,-2.9268,-2.8591,-2.826,-2.766,-2.6569,-2.5154,-2.4229,-2.4171,-2.4091,-2.3777,-2.3584,-2.3935,-2.4612,-2.3797,-2.3891,-2.3941,-2.3772,-2.3396,-2.3158,-2.3095,-2.3095,-2.3095,-2.3047,-2.2987,-2.2827,-2.2446,-2.156,-2.0733,-1.9613,-1.8721,-1.8103,-1.7588,-1.7417,-1.7126,-1.6838,-1.6767,-1.6594,-1.6495,-1.6534,-1.6477,-1.6431,-1.6402,-1.6402,-4.9661,-4.9749,-4.8732,-4.8411,-4.8302,-4.6679,-4.5935,-4.585,-4.4994,-4.4739,-4.4836,-4.4836,-4.4836,-4.4874,-4.4836,-4.4776,-4.4625,-4.4579,-4.4401,-4.3784,-4.3381,-4.2644,-4.196,-4.1401,-4.0678,-3.9939,-4.0093,-3.9277,-3.7877,-3.7323,-3.6923,-3.6276,-3.5707,-3.54,-3.5416,-3.586,-3.5707,-3.5201,-3.5646,-3.5922,-3.5876,-3.6061,-3.5692,-3.4912,-3.3893,-3.3119,-3.2603,-3.2234,-3.2092,-3.1975,-3.1671,-3.1584,-3.1685,-3.0959,-3.0597,-3.064,-3.0016,-2.9624,-3.0075,-3.0205,-3.0147,-2.9784,-3.0147,-3.0029,-2.8872,-2.9601,-2.9649,-2.9215,-2.9329,-2.9574,-2.9602,-2.9602,-2.9411,-2.9101,-2.8827,-2.847,-2.7795,-2.6595,-2.54,-2.4604,-2.4358,-2.4073,-2.3276,-2.3841,-2.4092,-2.3672,-2.3697,-2.3803,-2.3597,-2.3358,-2.3208,-2.3095,-2.3095,-2.3095,-2.3095,-2.3035,-2.29,-2.2648,-2.1903,-2.1357,-2.0184,-1.9312,-1.8891,-1.8479,-1.813,-1.7745,-1.7134,-1.6889,-1.6722,-1.6666,-1.6581,-1.6534,-1.6488,-1.6459,-1.642,-4.9812,-4.986,-4.926,-4.9119,-4.8907,-4.7333,-4.6547,-4.6307,-4.5254,-4.4723,-4.4761,-4.4836,-4.4836,-4.4761,-4.4776,-4.4701,-4.4663,-4.4685,-4.4516,-4.3991,-4.336,-4.2613,-4.1991,-4.1386,-4.0632,-3.9997,-3.9936,-3.9152,-3.8231,-3.76,-3.7123,-3.6538,-3.6138,-3.5799,-3.5645,-3.6138,-3.5922,-3.5399,-3.5922,-3.6292,-3.6107,-3.6261,-3.6076,-3.5187,-3.4013,-3.3146,-3.2961,-3.266,-3.2704,-3.2788,-3.2629,-3.2396,-3.2338,-3.1598,-3.1264,-3.125,-3.0684,-3.0219,-3.0525,-3.0583,-3.0438,-3.0118,-3.0438,-3.0072,-2.9563,-2.9843,-2.9805,-2.9511,-2.9484,-2.9602,-2.9602,-2.9602,-2.954,-2.9509,-2.9306,-2.8994,-2.8442,-2.7335,-2.6206,-2.5351,-2.5,-2.4517,-2.4202,-2.4192,-2.4129,-2.4003,-2.418,-2.423,-2.3766,-2.3496,-2.3208,-2.3095,-2.3095,-2.3095,-2.3095,-2.3053,-2.2942,-2.2665,-2.2224,-2.1907,-2.1403,-2.0629,-1.9936,-1.9366,-1.8688,-1.7824,-1.728,-1.7084,-1.6874,-1.6684,-1.6609,-1.6591,-1.6534,-1.6477,-1.6477,-4.9829,-4.9773,-4.9758,-4.971,-4.9347,-4.784,-4.72,-4.7099,-4.5592,-4.4892,-4.4809,-4.4914,-4.4799,-4.4648,-4.4648,-4.4648,-4.4663,-4.4836,-4.4728,-4.4229,-4.3603,-4.3009,-4.2417,-4.1514,-4.0847,-4.0566,-3.9955,-3.9139,-3.8462,-3.7831,-3.7153,-3.6599,-3.6492,-3.6061,-3.5799,-3.6122,-3.6014,-3.5367,-3.5999,-3.6353,-3.6276,-3.6353,-3.6045,-3.5276,-3.4434,-3.373,-3.3619,-3.338,-3.3287,-3.3755,-3.3733,-3.3351,-3.2736,-3.2077,-3.1671,-3.1656,-3.0974,-3.0598,-3.0569,-3.0612,-3.0612,-3.0699,-3.0627,-3.0609,-3.0427,-3.0205,-3.0009,-2.987,-2.9758,-2.962,-2.9602,-2.9602,-2.9602,-2.9571,-2.9602,-2.9369,-2.8753,-2.7702,-2.6978,-2.6161,-2.5709,-2.5303,-2.475,-2.45,-2.4456,-2.4418,-2.4551,-2.4513,-2.4004,-2.3627,-2.3369,-2.3195,-2.3233,-2.312,-2.3095,-2.3095,-2.2985,-2.2825,-2.2474,-2.2369,-2.225,-2.1723,-2.0879,-1.9842,-1.9052,-1.8358,-1.7735,-1.7464,-1.7207,-1.685,-1.6684,-1.6751,-1.6666,-1.6534,-1.6573,-4.9584,-4.9062,-4.9062,-4.8746,-4.8123,-4.7076,-4.7025,-4.7175,-4.5683,-4.5215,-4.5533,-4.5137,-4.4814,-4.4685,-4.4799,-4.4776,-4.4701,-4.4874,-4.4732,-4.4248,-4.3816,-4.3521,-4.2644,-4.1791,-4.134,-4.1063,-4.0185,-3.917,-3.8508,-3.7831,-3.7092,-3.6599,-3.6492,-3.6153,-3.5876,-3.6061,-3.5953,-3.526,-3.5937,-3.6261,-3.6061,-3.6245,-3.6337,-3.5794,-3.5332,-3.5127,-3.4934,-3.4897,-3.4984,-3.5041,-3.4824,-3.4324,-3.361,-3.2757,-3.2324,-3.2034,-3.1177,-3.0627,-3.0801,-3.0685,-3.0887,-3.109,-3.0961,-3.0841,-3.0847,-3.0582,-3.0187,-2.9991,-2.9867,-2.9713,-2.9602,-2.9602,-2.9602,-2.9602,-2.9571,-2.9446,-2.9058,-2.8525,-2.76,-2.6562,-2.6348,-2.6093,-2.5464,-2.4814,-2.4535,-2.4333,-2.4233,-2.4236,-2.3915,-2.3682,-2.3498,-2.3424,-2.3396,-2.3246,-2.3095,-2.3095,-2.3053,-2.3022,-2.2825,-2.2735,-2.261,-2.2439,-2.1765,-2.0811,-2.0009,-1.9376,-1.8786,-1.8051,-1.7536,-1.7159,-1.7034,-1.692,-1.6797,-1.6676,-1.6683,-4.8983,-4.843,-4.8746,-4.8715,-4.8329,-4.786,-4.7518,-4.7277,-4.6149,-4.5423,-4.5254,-4.5082,-4.4889,-4.4723,-4.4799,-4.4799,-4.4739,-4.4889,-4.4741,-4.4319,-4.4105,-4.3593,-4.2762,-4.1991,-4.1401,-4.0863,-3.9951,-3.9152,-3.8462,-3.7446,-3.6907,-3.6599,-3.6492,-3.6153,-3.5829,-3.6107,-3.5907,-3.5444,-3.5937,-3.6338,-3.603,-3.6384,-3.6367,-3.6258,-3.6068,-3.5894,-3.5752,-3.5479,-3.5385,-3.526,-3.4762,-3.4351,-3.3839,-3.3191,-3.2527,-3.2324,-3.1351,-3.0975,-3.1322,-3.1322,-3.1235,-3.1379,-3.1221,-3.094,-3.0805,-3.0454,-3.0205,-2.9976,-2.9884,-2.9761,-2.9634,-2.9602,-2.9602,-2.9602,-2.9602,-2.9509,-2.9383,-2.9194,-2.8265,-2.7055,-2.6641,-2.6321,-2.5894,-2.5277,-2.4715,-2.4333,-2.4059,-2.3959,-2.3876,-2.3775,-2.3723,-2.345,-2.3384,-2.3233,-2.3095,-2.3095,-2.3095,-2.3078,-2.306,-2.2987,-2.2866,-2.2671,-2.2469,-2.1902,-2.1199,-2.0213,-1.927,-1.8378,-1.7922,-1.7459,-1.7244,-1.7062,-1.6941,-1.6857,-1.6835,-4.8494,-4.7956,-4.862,-4.881,-4.8699,-4.8528,-4.8004,-4.7278,-4.6499,-4.5701,-4.497,-4.5005,-4.4889,-4.4685,-4.4723,-4.4723,-4.4625,-4.4799,-4.4768,-4.4637,-4.4356,-4.3731,-4.3081,-4.2135,-4.1546,-4.1212,-3.9837,-3.918,-3.8613,-3.7507,-3.6846,-3.6707,-3.6645,-3.6276,-3.5999,-3.6292,-3.6076,-3.6076,-3.6153,-3.6476,-3.6492,-3.6492,-3.646,-3.6429,-3.6195,-3.6068,-3.5926,-3.5816,-3.5752,-3.5488,-3.4993,-3.4411,-3.4093,-3.3331,-3.2844,-3.2608,-3.1631,-3.1714,-3.199,-3.2031,-3.183,-3.2092,-3.183,-3.1375,-3.0937,-3.0702,-3.0237,-2.9962,-2.9901,-2.9898,-2.9789,-2.9651,-2.9651,-2.9634,-2.9634,-2.9571,-2.954,-2.9341,-2.8983,-2.7976,-2.7192,-2.6456,-2.5984,-2.566,-2.5068,-2.4571,-2.4296,-2.4458,-2.4367,-2.4165,-2.4001,-2.355,-2.3308,-2.3183,-2.3095,-2.3095,-2.3095,-2.3108,-2.3078,-2.3047,-2.2957,-2.2866,-2.2665,-2.2408,-2.1533,-2.0515,-1.9595,-1.877,-1.8224,-1.7783,-1.7437,-1.7212,-1.7114,-1.7041,-1.7002,-4.8494,-4.794,-4.8604,-4.8557,-4.8083,-4.806,-4.7867,-4.7471,-4.6622,-4.6057,-4.5479,-4.5001,-4.4701,-4.4663,-4.461,-4.461,-4.4663,-4.4799,-4.4874,-4.4768,-4.4682,-4.4549,-4.4242,-4.2892,-4.2237,-4.1623,-4.0171,-3.9465,-3.9026,-3.8031,-3.7369,-3.7246,-3.6815,-3.6446,-3.6292,-3.6399,-3.6445,-3.6415,-3.643,-3.643,-3.6399,-3.6384,-3.629,-3.6165,-3.6196,-3.6258,-3.6054,-3.6071,-3.6166,-3.6227,-3.5899,-3.5424,-3.4906,-3.4237,-3.3891,-3.3554,-3.2984,-3.2321,-3.2568,-3.2498,-3.2571,-3.2788,-3.2658,-3.2379,-3.1855,-3.1116,-3.0548,-3.0267,-3.0221,-3.0144,-2.9988,-2.9867,-2.9792,-2.9699,-2.9651,-2.9602,-2.9571,-2.9509,-2.9136,-2.8628,-2.7709,-2.6743,-2.6028,-2.5735,-2.5405,-2.4935,-2.4619,-2.4756,-2.4759,-2.448,-2.426,-2.3838,-2.3326,-2.3133,-2.3095,-2.3095,-2.3095,-2.3095,-2.3095,-2.3078,-2.3047,-2.2969,-2.2909,-2.2512,-2.1687,-2.1125,-2.0542,-1.9696,-1.8708,-1.8103,-1.7805,-1.754,-1.7294,-1.7236,-1.7177,-4.7233,-4.6685,-4.825,-4.8471,-4.7898,-4.8606,-4.8395,-4.7465,-4.6989,-4.619,-4.5256,-4.4931,-4.4761,-4.4723,-4.4648,-4.461,-4.4648,-4.4799,-4.4836,-4.4799,-4.4805,-4.4635,-4.3967,-4.3063,-4.2458,-4.1699,-4.0793,-4.0098,-3.9613,-3.8785,-3.7938,-3.7507,-3.7184,-3.6846,-3.6538,-3.6492,-3.6492,-3.6368,-3.6122,-3.5722,-3.5583,-3.5707,-3.5876,-3.5738,-3.5907,-3.6076,-3.6229,-3.5968,-3.6168,-3.6214,-3.5873,-3.5243,-3.4751,-3.425,-3.393,-3.367,-3.37,-3.3587,-3.3587,-3.3238,-3.3282,-3.3358,-3.318,-3.2904,-3.2454,-3.1654,-3.1,-3.0888,-3.0513,-3.0278,-3.0142,-2.9929,-2.9839,-2.9747,-2.9713,-2.9634,-2.9602,-2.9509,-2.9268,-2.876,-2.8229,-2.7335,-2.6442,-2.5888,-2.5598,-2.5157,-2.4927,-2.4999,-2.4813,-2.444,-2.4271,-2.4128,-2.3576,-2.3108,-2.3095,-2.3095,-2.3095,-2.3095,-2.3095,-2.3108,-2.3108,-2.306,-2.2987,-2.2657,-2.191,-2.1498,-2.1322,-2.0238,-1.8833,-1.8426,-1.8187,-1.7838,-1.754,-1.7467,-1.7523,-4.6297,-4.5704,-4.7747,-4.8182,-4.7682,-4.8843,-4.8388,-4.7021,-4.6967,-4.612,-4.4986,-4.4723,-4.4799,-4.4799,-4.4648,-4.461,-4.4625,-4.4761,-4.4723,-4.4685,-4.4646,-4.4353,-4.3655,-4.2873,-4.2176,-4.1586,-4.0758,-4.032,-3.9942,-3.9262,-3.8431,-3.7754,-3.7246,-3.6953,-3.663,-3.6492,-3.6492,-3.6445,-3.6122,-3.5691,-3.5398,-3.5645,-3.5799,-3.5799,-3.5799,-3.5999,-3.6322,-3.6107,-3.6138,-3.623,-3.5797,-3.5319,-3.5023,-3.4607,-3.4268,-3.4098,-3.4151,-3.4292,-3.4205,-3.402,-3.3779,-3.3649,-3.3314,-3.289,-3.2513,-3.1828,-3.1248,-3.0995,-3.0706,-3.0369,-3.0205,-3.0068,-2.9976,-2.9884,-2.982,-2.9727,-2.9634,-2.9602,-2.9463,-2.9052,-2.8565,-2.8107,-2.7201,-2.6277,-2.5766,-2.5389,-2.5271,-2.527,-2.5019,-2.4699,-2.4402,-2.4296,-2.3723,-2.3223,-2.3108,-2.3108,-2.3108,-2.3095,-2.3095,-2.3108,-2.3108,-2.3078,-2.3047,-2.2595,-2.2103,-2.1965,-2.1829,-2.0384,-1.9048,-1.8899,-1.8643,-1.8064,-1.7729,-1.7695,-1.7743,-4.6297,-4.5641,-4.7092,-4.7626,-4.7572,-4.7705,-4.7129,-4.6198,-4.6251,-4.5678,-4.4671,-4.4625,-4.4648,-4.461,-4.461,-4.461,-4.461,-4.4625,-4.4564,-4.4564,-4.4548,-4.4101,-4.338,-4.2683,-4.2042,-4.155,-4.0789,-4.0262,-3.9856,-3.9447,-3.8893,-3.8415,-3.74,-3.6784,-3.6507,-3.6492,-3.6399,-3.6353,-3.6153,-3.6122,-3.5984,-3.6122,-3.623,-3.6276,-3.6353,-3.6461,-3.6492,-3.6292,-3.6292,-3.6445,-3.6089,-3.5792,-3.5557,-3.5155,-3.4815,-3.4677,-3.457,-3.4668,-3.4629,-3.4447,-3.4327,-3.4008,-3.3514,-3.2948,-3.2832,-3.1453,-3.0829,-3.0886,-3.0754,-3.0567,-3.0477,-3.0372,-3.016,-3.0083,-2.9974,-2.982,-2.9744,-2.973,-2.9574,-2.9243,-2.8825,-2.8343,-2.7922,-2.7,-2.6188,-2.5796,-2.5814,-2.5855,-2.5651,-2.5306,-2.4745,-2.4371,-2.3776,-2.3364,-2.315,-2.3108,-2.3108,-2.3095,-2.3095,-2.3095,-2.3108,-2.3095,-2.3078,-2.2907,-2.2517,-2.2457,-2.2195,-2.0948,-1.9973,-1.9549,-1.9068,-1.8317,-1.7969,-1.7918,-1.7921,-4.5698,-4.5541,-4.5947,-4.6438,-4.6944,-4.73,-4.6911,-4.615,-4.6034,-4.5494,-4.461,-4.461,-4.461,-4.461,-4.461,-4.461,-4.461,-4.461,-4.4363,-4.4101,-4.3917,-4.3541,-4.2919,-4.2335,-4.1766,-4.1427,-4.0808,-4.0393,-4.022,-3.9447,-3.8893,-3.8231,-3.7507,-3.6938,-3.6661,-3.6461,-3.6292,-3.5999,-3.5876,-3.5737,-3.5353,-3.5722,-3.5861,-3.5861,-3.5891,-3.6122,-3.6353,-3.6045,-3.6168,-3.6337,-3.632,-3.6195,-3.6005,-3.5638,-3.5397,-3.5201,-3.5004,-3.4953,-3.4835,-3.4601,-3.4414,-3.437,-3.3964,-3.3587,-3.3293,-3.2396,-3.1874,-3.1613,-3.0959,-3.0641,-3.0568,-3.0403,-3.0266,-3.0205,-3.0113,-3.0005,-2.991,-2.9879,-2.9727,-2.9429,-2.9022,-2.8547,-2.8163,-2.7687,-2.6927,-2.6289,-2.6358,-2.6349,-2.6013,-2.5613,-2.4965,-2.4405,-2.3846,-2.3526,-2.3313,-2.3198,-2.3138,-2.3108,-2.3138,-2.3095,-2.3095,-2.3095,-2.3065,-2.2975,-2.2927,-2.2775,-2.2311,-2.1536,-2.0766,-2.0059,-1.9211,-1.8352,-1.8158,-1.8159,-1.8178,-4.5278,-4.5352,-4.5204,-4.5506,-4.6141,-4.6528,-4.6297,-4.5763,-4.5647,-4.5278,-4.461,-4.461,-4.461,-4.461,-4.461,-4.4425,-4.4317,-4.4209,-4.3818,-4.351,-4.3217,-4.2863,-4.234,-4.1878,-4.1474,-4.1247,-4.0863,-4.0462,-4.013,-3.9265,-3.8679,-3.8263,-3.7955,-3.7369,-3.663,-3.6461,-3.6245,-3.5907,-3.5737,-3.5614,-3.5306,-3.5568,-3.5876,-3.5907,-3.5953,-3.6107,-3.6322,-3.6215,-3.6184,-3.6337,-3.6352,-3.6241,-3.6037,-3.5863,-3.5688,-3.5479,-3.5285,-3.5201,-3.5004,-3.4635,-3.4414,-3.4351,-3.3833,-3.3732,-3.3525,-3.273,-3.1598,-3.1613,-3.1004,-3.0612,-3.0598,-3.0477,-3.0357,-3.0296,-3.0357,-3.0249,-3.0088,-3.0007,-2.9857,-2.9627,-2.9337,-2.9251,-2.868,-2.8282,-2.7529,-2.6831,-2.66,-2.64,-2.5978,-2.5499,-2.4827,-2.4361,-2.3906,-2.3658,-2.3492,-2.336,-2.3271,-2.321,-2.3198,-2.3138,-2.3095,-2.3095,-2.3095,-2.3065,-2.3017,-2.2957,-2.2496,-2.179,-2.1095,-2.035,-1.9455,-1.8527,-1.8425,-1.8435,-1.8494,-4.5167,-4.5167,-4.5002,-4.5055,-4.5313,-4.5245,-4.5073,-4.4862,-4.4922,-4.4838,-4.4625,-4.461,-4.461,-4.461,-4.461,-4.4317,-4.387,-4.3732,-4.3347,-4.2771,-4.2602,-4.2217,-4.1817,-4.1432,-4.1155,-4.0659,-4.0474,-4.0297,-3.9939,-3.9496,-3.8835,-3.8126,-3.7861,-3.7568,-3.6584,-3.6492,-3.6476,-3.6445,-3.6399,-3.6307,-3.6245,-3.6261,-3.6292,-3.6307,-3.6322,-3.6415,-3.6384,-3.6384,-3.6368,-3.6445,-3.6289,-3.6163,-3.6068,-3.5784,-3.564,-3.5576,-3.5234,-3.5201,-3.5317,-3.4754,-3.4481,-3.4341,-3.3804,-3.3296,-3.2597,-3.1743,-3.1163,-3.1598,-3.0901,-3.0685,-3.0627,-3.0568,-3.0477,-3.0447,-3.0477,-3.0416,-3.0242,-3.0432,-3.0296,-3.008,-3.0164,-3.0149,-2.9493,-2.8853,-2.809,-2.7452,-2.6993,-2.6504,-2.6007,-2.5284,-2.4584,-2.4313,-2.3922,-2.3794,-2.3611,-2.3492,-2.3403,-2.3343,-2.3271,-2.3198,-2.3138,-2.3095,-2.3095,-2.3095,-2.3078,-2.3047,-2.263,-2.211,-2.136,-2.0592,-1.9655,-1.8895,-1.8805,-1.8728,-1.8816,-4.4889,-4.5002,-4.4927,-4.4949,-4.4964,-4.4852,-4.4814,-4.4761,-4.4723,-4.4648,-4.461,-4.461,-4.461,-4.461,-4.4548,-4.4255,-4.3701,-4.3562,-4.3146,-4.2032,-4.1955,-4.1478,-4.1109,-4.0905,-4.0766,-4.0566,-4.0474,-4.0462,-4.0281,-3.9847,-3.9041,-3.8319,-3.7536,-3.7104,-3.6983,-3.683,-3.6492,-3.6492,-3.6476,-3.6476,-3.6492,-3.6492,-3.6492,-3.6492,-3.6492,-3.6492,-3.6492,-3.6492,-3.6492,-3.6492,-3.6304,-3.6289,-3.6289,-3.6085,-3.6085,-3.6116,-3.5941,-3.572,-3.5479,-3.4971,-3.4635,-3.4326,-3.3964,-3.3572,-3.3616,-3.3038,-3.2443,-3.1758,-3.1279,-3.1032,-3.0714,-3.0627,-3.0538,-3.0538,-3.0538,-3.0447,-3.0409,-3.0852,-3.0974,-3.0602,-3.0524,-2.9776,-2.9095,-2.8693,-2.8072,-2.7352,-2.677,-2.6347,-2.5858,-2.4971,-2.4253,-2.4181,-2.3975,-2.3874,-2.376,-2.3641,-2.3522,-2.3463,-2.336,-2.3271,-2.3198,-2.3138,-2.3095,-2.3095,-2.3095,-2.3058,-2.2572,-2.2093,-2.1526,-2.08,-1.9888,-1.9287,-1.9124,-1.9068,-1.9129,-4.4685,-4.4799,-4.4799,-4.4799,-4.4799,-4.4723,-4.4761,-4.4761,-4.4648,-4.461,-4.461,-4.461,-4.461,-4.461,-4.4564,-4.4255,-4.3624,-4.3279,-4.2786,-4.1648,-4.1309,-4.0986,-4.0643,-4.0489,-4.0551,-4.0489,-4.0489,-4.0474,-4.0462,-4.0078,-3.949,-3.8563,-3.7148,-3.7044,-3.7061,-3.6892,-3.6492,-3.6492,-3.6492,-3.6492,-3.6492,-3.6492,-3.6492,-3.6492,-3.6492,-3.6492,-3.6492,-3.6492,-3.6492,-3.6492,-3.6492,-3.6492,-3.6492,-3.6492,-3.6492,-3.6492,-3.6195,-3.5816,-3.5267,-3.4887,-3.4568,-3.4404,-3.424,-3.4095,-3.3978,-3.3256,-3.2643,-3.2121,-3.177,-3.1264,-3.0786,-3.0685,-3.0612,-3.0612,-3.0582,-3.0477,-3.0574,-3.0974,-3.1295,-3.0949,-3.0954,-2.9998,-2.8855,-2.8314,-2.7916,-2.7171,-2.645,-2.6143,-2.5798,-2.4922,-2.4269,-2.4279,-2.4103,-2.4008,-2.3907,-2.3819,-2.37,-2.3582,-2.348,-2.336,-2.3271,-2.3198,-2.3138,-2.3095,-2.3095,-2.2982,-2.251,-2.2018,-2.156,-2.0954,-2.0192,-1.9738,-1.9483,-1.938,-1.9355,-4.461,-4.461,-4.461,-4.461,-4.461,-4.4761,-4.4761,-4.4625,-4.4625,-4.461,-4.461,-4.461,-4.461,-4.461,-4.461,-4.4225,-4.3655,-4.3048,-4.2355,-4.1678,-4.117,-4.0751,-4.0551,-4.0489,-4.0489,-4.0489,-4.0489,-4.0489,-4.0489,-3.9932,-3.9594,-3.9013,-3.729,-3.7046,-3.6985,-3.6862,-3.6538,-3.6492,-3.6492,-3.6492,-3.6492,-3.6492,-3.6492,-3.6492,-3.6492,-3.6492,-3.6492,-3.6492,-3.6492,-3.6492,-3.6492,-3.6492,-3.6492,-3.6492,-3.6492,-3.632,-3.5894,-3.5527,-3.5103,-3.4787,-3.4582,-3.4457,-3.4064,-3.3711,-3.3529,-3.3383,-3.2948,-3.2382,-3.1917,-3.1337,-3.0874,-3.0728,-3.0612,-3.0612,-3.0612,-3.0594,-3.0603,-3.0914,-3.1292,-3.1493,-3.1842,-3.1157,-2.9683,-2.8844,-2.8003,-2.7232,-2.6636,-2.6396,-2.5913,-2.5027,-2.4543,-2.4661,-2.4461,-2.4122,-2.4037,-2.3975,-2.3789,-2.3641,-2.3582,-2.3492,-2.339,-2.3241,-2.3198,-2.3138,-2.3095,-2.2915,-2.2533,-2.2105,-2.1657,-2.1044,-2.0439,-2.0311,-2.0093,-1.9625,-1.9497,-4.461,-4.461,-4.461,-4.461,-4.461,-4.4648,-4.4648,-4.4625,-4.461,-4.461,-4.461,-4.461,-4.4564,-4.461,-4.4594,-4.4148,-4.3762,-4.327,-4.254,-4.1863,-4.1263,-4.094,-4.0659,-4.0489,-4.0489,-4.0489,-4.0489,-4.0474,-4.0194,-3.9714,-3.9185,-3.867,-3.7214,-3.6892,-3.6863,-3.6724,-3.6615,-3.6569,-3.6584,-3.6492,-3.6492,-3.6492,-3.6492,-3.6492,-3.6492,-3.6492,-3.6492,-3.6492,-3.6492,-3.6492,-3.6492,-3.6492,-3.6492,-3.6492,-3.6492,-3.6492,-3.6258,-3.599,-3.5415,-3.5299,-3.5151,-3.4769,-3.4515,-3.4397,-3.418,-3.3823,-3.3416,-3.2817,-3.2135,-3.1569,-3.109,-3.0888,-3.0714,-3.0612,-3.0612,-3.0626,-3.0707,-3.1154,-3.1533,-3.1987,-3.2366,-3.1582,-3.0147,-2.908,-2.8222,-2.7386,-2.6879,-2.6731,-2.6248,-2.5393,-2.5074,-2.5205,-2.4857,-2.4557,-2.4269,-2.4142,-2.3929,-2.373,-2.3684,-2.3595,-2.336,-2.3228,-2.3198,-2.313,-2.3037,-2.2862,-2.262,-2.2184,-2.1807,-2.135,-2.0818,-2.0771,-2.0621,-2.0186,-1.9878,-4.4549,-4.4511,-4.4572,-4.461,-4.4526,-4.4219,-4.4197,-4.4465,-4.4587,-4.461,-4.4579,-4.4317,-4.4363,-4.4486,-4.4048,-4.3771,-4.4009,-4.2992,-4.2309,-4.2217,-4.1463,-4.0889,-4.0582,-4.0489,-4.0489,-4.0489,-4.0489,-4.0489,-4.0105,-3.921,-3.8554,-3.8544,-3.7043,-3.6924,-3.6987,-3.694,-3.6879,-3.6863,-3.6785,-3.6569,-3.6492,-3.6492,-3.6492,-3.6492,-3.6492,-3.6492,-3.6492,-3.6492,-3.6523,-3.6538,-3.6569,-3.6616,-3.6647,-3.6647,-3.6585,-3.6569,-3.6383,-3.6211,-3.5879,-3.5752,-3.5527,-3.5267,-3.5085,-3.4905,-3.4578,-3.42,-3.3791,-3.33,-3.2542,-3.1843,-3.1424,-3.1018,-3.083,-3.0612,-3.0612,-3.0612,-3.1003,-3.1467,-3.191,-3.2396,-3.2134,-3.1482,-3.0502,-2.9417,-2.8563,-2.796,-2.7651,-2.7571,-2.7011,-2.6179,-2.5946,-2.6007,-2.5481,-2.4975,-2.47,-2.4426,-2.4268,-2.4072,-2.3896,-2.3765,-2.3433,-2.3258,-2.3228,-2.3097,-2.2882,-2.2725,-2.2543,-2.232,-2.1956,-2.1516,-2.1321,-2.1391,-2.1223,-2.0787,-2.0588,-4.4412,-4.4305,-4.4412,-4.4395,-4.438,-4.3639,-4.3639,-4.4159,-4.4319,-4.4457,-4.4303,-4.3826,-4.3857,-4.385,-4.3199,-4.3343,-4.3297,-4.2621,-4.2191,-4.2427,-4.1447,-4.0766,-4.0532,-4.0489,-4.0489,-4.0489,-4.0351,-4.0105,-3.989,-3.9121,-3.8429,-3.8385,-3.7339,-3.7095,-3.7514,-3.7437,-3.7468,-3.7608,-3.7188,-3.6739,-3.6585,-3.6523,-3.6492,-3.6492,-3.6492,-3.6492,-3.6492,-3.6523,-3.6554,-3.6631,-3.6723,-3.677,-3.6831,-3.6831,-3.677,-3.6693,-3.6538,-3.6414,-3.632,-3.6164,-3.6023,-3.5769,-3.5559,-3.5379,-3.5083,-3.4508,-3.4076,-3.3463,-3.2704,-3.2004,-3.1527,-3.1048,-3.0728,-3.089,-3.1037,-3.1197,-3.1545,-3.1951,-3.2307,-3.2634,-3.2439,-3.1757,-3.1071,-3.0052,-2.9406,-2.8723,-2.8306,-2.8306,-2.7865,-2.7,-2.6691,-2.6654,-2.5761,-2.5158,-2.5053,-2.4818,-2.47,-2.4523,-2.4187,-2.3837,-2.3463,-2.336,-2.33,-2.3122,-2.2932,-2.2681,-2.2472,-2.2293,-2.2114,-2.1861,-2.1753,-2.1967,-2.1769,-2.1224,-2.1096,-4.3899,-4.422,-4.3617,-4.3366,-4.3351,-4.3176,-4.3122,-4.329,-4.3366,-4.3464,-4.3509,-4.3266,-4.3037,-4.2858,-4.238,-4.2456,-4.2603,-4.2251,-4.1924,-4.1797,-4.1203,-4.0635,-4.0431,-4.0332,-4.0397,-4.032,-4.0028,-3.9505,-3.917,-3.8677,-3.8246,-3.7831,-3.7403,-3.7731,-3.8028,-3.7997,-3.8247,-3.8215,-3.767,-3.7049,-3.6739,-3.6631,-3.66,-3.6554,-3.6492,-3.6492,-3.6492,-3.6507,-3.6523,-3.6554,-3.6662,-3.68,-3.6984,-3.6938,-3.6938,-3.6892,-3.6831,-3.6708,-3.6585,-3.6461,-3.6291,-3.6228,-3.6024,-3.5879,-3.5514,-3.4857,-3.42,-3.3547,-3.2812,-3.2125,-3.1646,-3.1151,-3.0832,-3.1169,-3.1477,-3.1784,-3.2105,-3.2433,-3.273,-3.2698,-3.2622,-3.2092,-3.1449,-3.0831,-3.0236,-2.9638,-2.9111,-2.8821,-2.857,-2.7953,-2.732,-2.6993,-2.5792,-2.524,-2.528,-2.5118,-2.4949,-2.4566,-2.4181,-2.3841,-2.3522,-2.339,-2.3271,-2.3155,-2.2995,-2.2757,-2.2556,-2.2418,-2.2243,-2.2105,-2.1917,-2.1985,-2.177,-2.1276,-2.1308,-4.3006,-4.3198,-4.2546,-4.2395,-4.2447,-4.2152,-4.213,-4.2327,-4.2115,-4.2053,-4.2149,-4.2127,-4.2104,-4.191,-4.1459,-4.1715,-4.1937,-4.1519,-4.1387,-4.1275,-4.0974,-4.0392,-4.0167,-4.0017,-3.969,-3.9567,-3.9275,-3.8846,-3.8554,-3.8492,-3.8262,-3.7971,-3.8101,-3.8292,-3.8419,-3.8701,-3.8686,-3.8386,-3.7949,-3.7451,-3.6892,-3.6754,-3.66,-3.6523,-3.6492,-3.6492,-3.6523,-3.6538,-3.6647,-3.677,-3.6953,-3.6717,-3.6823,-3.6917,-3.7074,-3.7089,-3.7059,-3.7044,-3.689,-3.6658,-3.6471,-3.6335,-3.6076,-3.5753,-3.5187,-3.4584,-3.4584,-3.388,-3.2134,-3.1315,-3.1767,-3.1519,-3.1377,-3.1526,-3.1773,-3.199,-3.2574,-3.3127,-3.3284,-3.3237,-3.2896,-3.2173,-3.1546,-3.0924,-3.0389,-3.0026,-2.9585,-2.9257,-2.9008,-2.8675,-2.8123,-2.7498,-2.64,-2.5865,-2.5999,-2.5615,-2.5075,-2.4653,-2.4171,-2.3887,-2.3611,-2.339,-2.3241,-2.3143,-2.3037,-2.2844,-2.2656,-2.2506,-2.2556,-2.2518,-2.2209,-2.1933,-2.1628,-2.1387,-2.1494,-4.201,-4.1736,-4.1415,-4.149,-4.1676,-4.1036,-4.1023,-4.1399,-4.0962,-4.0624,-4.0601,-4.0777,-4.1182,-4.1082,-4.0622,-4.1161,-4.1294,-4.0684,-4.0649,-4.072,-4.0517,-4.0111,-3.9814,-3.9584,-3.9407,-3.9259,-3.9044,-3.88,-3.8523,-3.8631,-3.8692,-3.8541,-3.8642,-3.8804,-3.8762,-3.8717,-3.8528,-3.8368,-3.7992,-3.7551,-3.7152,-3.68,-3.6662,-3.6569,-3.6523,-3.6523,-3.6569,-3.6631,-3.68,-3.6984,-3.715,-3.702,-3.6924,-3.7035,-3.7161,-3.7224,-3.7004,-3.7064,-3.6999,-3.651,-3.6306,-3.6122,-3.5829,-3.5436,-3.4872,-3.4561,-3.4547,-3.3765,-3.2028,-3.1261,-3.17,-3.192,-3.1792,-3.2,-3.2219,-3.2524,-3.3228,-3.3677,-3.3618,-3.3571,-3.3007,-3.2283,-3.1527,-3.0903,-3.065,-3.0305,-2.9958,-2.9665,-2.9352,-2.899,-2.8515,-2.8037,-2.7267,-2.6942,-2.6606,-2.5869,-2.5092,-2.4644,-2.4171,-2.3959,-2.3717,-2.3539,-2.3335,-2.3148,-2.303,-2.2967,-2.2774,-2.2569,-2.2681,-2.2828,-2.2266,-2.1819,-2.1637,-2.1483,-2.164,-4.1034,-4.0688,-4.0628,-4.0628,-4.0658,-4.0501,-4.0524,-4.0621,-4.0516,-4.0164,-3.9811,-3.9691,-3.9905,-4.0145,-3.9748,-4.0022,-4.0374,-3.9879,-3.9813,-3.9914,-4.0071,-3.9869,-3.9616,-3.9478,-3.9665,-3.9502,-3.9321,-3.9351,-3.8739,-3.8923,-3.8769,-3.7969,-3.8596,-3.8633,-3.8372,-3.8435,-3.8716,-3.843,-3.8132,-3.7756,-3.7333,-3.7043,-3.6922,-3.6816,-3.6646,-3.6662,-3.6662,-3.6677,-3.6831,-3.6984,-3.7134,-3.7158,-3.7154,-3.72,-3.7358,-3.731,-3.7044,-3.69,-3.6753,-3.6279,-3.6058,-3.5872,-3.5613,-3.5406,-3.4798,-3.4135,-3.4061,-3.3898,-3.2524,-3.1634,-3.1751,-3.1868,-3.1884,-3.2626,-3.3069,-3.3632,-3.425,-3.39,-3.3507,-3.3355,-3.3071,-3.2147,-3.1185,-3.0877,-3.093,-3.0587,-3.0233,-2.9913,-2.954,-2.9226,-2.8862,-2.8383,-2.7873,-2.708,-2.6303,-2.5642,-2.4983,-2.456,-2.4213,-2.4005,-2.3819,-2.3688,-2.3514,-2.331,-2.3263,-2.3237,-2.3018,-2.2774,-2.2791,-2.2812,-2.2154,-2.1703,-2.1572,-2.1575,-2.1735]},{"header":{"parameterUnit":"m.s-1","parameterCategory":1,"la1":31.0,"la2":29.5877,"lo1":-88.7671,"lo2":-86.6584,"dy":0.0162,"dx":0.0185,"nx":115,"ny":88,"refTime":"2023-08-17T18:00:00:Z","depth":0,"parameterNumber":3,"parameterNumberName":"V-component_of_WINDS"},"data":[0.0,0.0,0.0,0.0,0.0,0.0,0.0,0.0,0.0,0.0,0.0,0.0,0.0,0.0,0.0,0.0,0.0,0.0,0.0,0.0,0.0,0.0,0.0,0.0,0.0,0.0,0.0,0.0,0.0,0.0,0.0,0.0,0.0,0.0,0.0,0.0,0.0,0.0,0.0,0.0,0.0,0.0,0.0,0.0,0.0,0.0,0.0,0.0,0.0,0.0,0.0,0.0,0.0,0.0,0.0,0.0,0.0,0.0,0.0,0.0,0.0,0.0,0.0,0.0,0.0,0.0,0.0,0.0,0.0,0.0,0.0,0.0,0.0,0.0,0.0,0.0,0.0,0.0,0.0,0.0,0.0,0.0,0.0,0.0,0.0,0.0,0.0,0.0,0.0,0.0,0.0,0.0,0.0,0.0,0.0,0.0,0.0,0.0,0.0,0.0,0.0,0.0,0.0,0.0,0.0,0.0,0.0,0.0,0.0,0.0,0.0,0.0,0.0,0.0,0.0,0.0,0.0,0.0,0.0,0.0,0.0,0.0,0.0,0.0,0.0,0.0,0.0,0.0,0.0,0.0,0.0,0.0,0.0,0.0,0.0,0.0,0.0,0.0,0.0,0.0,0.0,0.0,0.0,0.0,0.0,0.0,0.0,0.0,0.0,0.0,0.0,0.0,0.0,0.0,0.0,0.0,0.0,0.0,0.0,0.0,0.0,0.0,0.0,0.0,0.0,0.0,0.0,0.0,0.0,0.0,0.0,0.0,0.0,0.0,0.0,0.0,0.0,0.0,0.0,0.0,0.0,0.0,0.0,0.0,0.0,0.0,0.0,0.0,0.0,0.0,0.0,0.0,0.0,0.0,0.0,0.0,0.0,0.0,0.0,0.0,0.0,0.0,0.0,0.0,0.0,0.0,0.0,0.0,0.0,0.0,0.0,0.0,0.0,0.0,0.0,0.0,0.0,0.0,0.0,0.0,0.0,0.0,0.0,0.0,0.0,0.0,0.0,0.0,0.0,0.0,0.0,0.0,0.0,0.0,0.0,0.0,0.0,0.0,0.0,0.0,0.0,0.0,0.0,0.0,0.0,0.0,0.0,0.0,0.0,0.0,0.0,0.0,0.0,0.0,0.0,0.0,0.0,0.0,0.0,0.0,0.0,0.0,0.0,0.0,0.0,0.0,0.0,0.0,0.0,0.0,0.0,0.0,0.0,0.0,0.0,0.0,0.0,0.0,0.0,0.0,0.0,0.0,0.0,0.0,0.0,0.0,0.0,0.0,0.0,0.0,0.0,0.0,0.0,0.0,0.0,0.0,0.0,0.0,0.0,0.0,0.0,0.0,0.0,0.0,0.0,0.0,0.0,0.0,0.0,0.0,0.0,0.0,0.0,0.0,0.0,0.0,0.0,0.0,0.0,0.0,0.0,0.0,0.0,0.0,0.0,0.0,0.0,0.0,0.0,0.0,0.0,0.0,0.0,0.0,0.0,0.0,0.0,0.0,0.0,0.0,0.0,0.0,0.0,0.0,0.0,0.0,0.0,0.0,0.0,0.0,0.0,0.0,0.0,0.0,0.0,0.0,0.0,0.0,0.0,0.0,0.0,0.0,0.0,0.0,0.0,0.0,0.0,0.0,0.0,0.0,0.0,0.0,0.0,0.0,0.0,0.0,0.0,0.0,0.0,0.0,0.0,0.0,0.0,0.0,0.0,0.0,0.0,0.0,0.0,0.0,0.0,0.0,0.0,0.0,0.0,0.0,0.0,0.0,0.0,0.0,0.0,0.0,0.0,0.0,0.0,0.0,0.0,0.0,0.0,0.0,0.0,0.0,0.0,0.0,0.0,0.0,0.0,0.0,0.0,0.0,0.0,0.0,0.0,0.0,0.0,0.0,0.0,0.0,0.0,0.0,0.0,0.0,0.0,0.0,0.0,0.0,0.0,0.0,0.0,0.0,0.0,0.0,0.0,0.0,0.0,0.0,0.0,0.0,0.0,0.0,0.0,0.0,0.0,0.0,0.0,0.0,0.0,0.0,0.0,0.0,0.0,0.0,0.0,0.0,0.0,0.0,0.0,0.0,0.0,0.0,0.0,0.0,0.0,0.0,0.0,0.0,0.0,0.0,0.0,0.0,0.0,0.0,0.0,0.0,0.0,0.0,0.0,0.0,0.0,0.0,0.0,0.0,0.0,0.0,0.0,0.0,0.0,0.0,0.0,0.0,0.0,0.0,0.0,0.0,0.0,0.0,0.0,0.0,0.0,0.0,0.0,0.0,0.0,0.0,0.0,0.0,0.0,0.0,0.0,0.0,0.0,0.0,0.0,0.0,0.0,0.0,0.0,0.0,0.0,0.0,0.0,0.0,0.0,0.0,0.0,0.0,0.0,0.0,0.0,0.0,0.0,0.0,0.0,0.0,0.0,0.0,0.0,0.0,0.0,0.0,0.0,0.0,0.0,0.0,0.0,0.0,0.0,0.0,0.0,0.0,0.0,0.0,0.0,0.0,0.0,0.0,0.0,0.0,0.0,0.0,0.0,0.0,0.0,0.0,0.0,0.0,0.0,0.0,0.0,0.0,0.0,0.0,0.0,0.0,0.0,0.0,0.0,0.0,0.0,0.0,0.0,0.0,0.0,0.0,0.0,0.0,0.0,0.0,0.0,0.0,0.0,0.0,0.0,0.0,0.0,0.0,0.0,0.0,0.0,0.0,0.0,0.0,0.0,0.0,0.0,0.0,0.0,0.0,0.0,0.0,0.0,0.0,0.0,0.0,0.0,0.0,0.0,0.0,0.0,0.0,0.0,0.0,0.0,0.0,0.0,0.0,0.0,0.0,0.0,0.0,0.0,0.0,0.0,0.0,0.0,0.0,0.0,0.0,0.0,0.0,0.0,0.0,0.0,0.0,0.0,0.0,0.0,0.0,0.0,0.0,0.0,0.0,0.0,0.0,0.0,0.0,0.0,0.0,0.0,0.0,0.0,0.0,0.0,0.0,0.0,0.0,0.0,0.0,0.0,0.0,0.0,0.0,0.0,0.0,0.0,0.0,0.0,0.0,0.0,0.0,0.0,0.0,0.0,0.0,0.0,0.0,0.0,0.0,0.0,0.0,0.0,0.0,0.0,0.0,0.0,0.0,0.0,0.0,0.0,0.0,0.0,0.0,0.0,0.0,0.0,0.0,0.0,0.0,0.0,0.0,0.0,0.0,0.0,0.0,0.0,0.0,0.0,0.0,0.0,0.0,0.0,0.0,0.0,0.0,0.0,0.0,0.0,0.0,0.0,0.0,0.0,0.0,0.0,0.0,0.0,0.0,0.0,0.0,0.0,0.0,0.0,0.0,0.0,0.0,0.0,0.0,0.0,0.0,0.0,0.0,0.0,0.0,0.0,0.0,0.0,0.0,0.0,0.0,0.0,0.0,0.0,0.0,0.0,0.0,0.0,0.0,0.0,0.0,0.0,0.0,0.0,0.0,0.0,0.0,0.0,0.0,0.0,0.0,0.0,0.0,0.0,0.0,0.0,0.0,0.0,0.0,0.0,0.0,0.0,0.0,0.0,0.0,0.0,0.0,0.0,0.0,0.0,0.0,0.0,0.0,0.0,0.0,0.0,0.0,0.0,0.0,0.0,0.0,0.0,0.0,0.0,0.0,0.0,0.0,0.0,0.0,0.0,0.0,0.0,0.0,0.0,0.0,0.0,0.0,0.0,0.0,0.0,0.0,0.0,0.0,0.0,0.0,0.0,0.0,0.0,0.0,0.0,0.0,0.0,0.0,0.0,0.0,0.0,0.0,0.0,0.0,0.0,0.0,0.0,0.0,0.0,0.0,0.0,0.0,0.0,0.0,0.0,0.0,0.0,0.0,0.0,0.0,0.0,0.0,0.0,0.0,0.0,0.0,0.0,0.0,0.0,0.0,0.0,0.0,0.0,0.0,0.0,0.0,0.0,0.0,0.0,0.0,0.0,0.0,0.0,0.0,0.0,0.0,0.0,0.0,0.0,0.0,0.0,0.0,0.0,0.0,0.0,0.0,0.0,0.0,0.0,0.0,0.0,0.0,0.0,0.0,0.0,0.0,0.0,0.0,0.0,0.0,0.0,0.0,0.0,0.0,0.0,0.0,0.0,0.0,0.0,0.0,0.0,0.0,0.0,0.0,0.0,0.0,0.0,0.0,0.0,0.0,0.0,0.0,0.0,0.0,0.0,0.0,0.0,0.0,0.0,0.0,0.0,0.0,0.0,0.0,0.0,0.0,0.0,0.0,0.0,0.0,0.0,0.0,0.0,0.0,-0.6943,0.0,0.0,0.0,0.0,0.0,0.0,0.0,0.0,0.0,0.0,0.0,0.0,0.0,0.0,0.0,0.0,0.0,0.0,0.0,0.0,0.0,0.0,0.0,0.0,0.0,0.0,0.0,0.0,0.0,0.0,0.0,0.0,0.0,0.0,0.0,0.0,0.0,0.0,0.0,0.0,0.0,0.0,0.0,0.0,0.0,0.0,0.0,0.0,0.0,0.0,0.0,0.0,0.0,0.0,0.0,0.0,0.0,0.0,0.0,0.0,0.0,0.0,0.0,0.0,0.0,0.0,0.0,0.0,0.0,0.0,0.0,0.0,0.0,0.0,0.0,0.0,0.0,0.0,0.0,0.0,0.0,0.0,0.0,0.0,0.0,0.0,0.0,0.0,0.0,0.0,0.0,0.0,0.0,0.0,0.0,0.0,0.0,0.0,0.0,0.0,0.0,0.0,0.0,0.0,0.0,0.0,0.0,0.0,0.0,0.0,-0.7279,-0.7695,-0.711,-0.7005,-0.7457,0.0,0.0,0.0,0.0,0.0,0.0,0.0,0.0,0.0,0.0,0.0,0.0,0.0,0.0,0.0,0.0,0.0,0.0,0.0,0.0,0.0,0.0,0.0,0.0,0.0,0.0,0.0,0.0,0.0,0.0,0.0,0.0,0.0,0.0,0.0,0.0,0.0,0.0,0.0,0.0,0.0,0.0,0.0,0.0,0.0,0.0,0.0,0.0,0.0,0.0,0.0,0.0,0.0,0.0,0.0,0.0,0.0,0.0,0.0,0.0,0.0,0.0,0.0,0.0,0.0,0.0,0.0,0.0,0.0,0.0,0.0,0.0,0.0,0.0,0.0,0.0,0.0,0.0,0.0,0.0,0.0,0.0,0.0,0.0,0.0,0.0,0.0,0.0,0.0,0.0,0.0,0.0,0.0,0.0,0.0,0.0,0.0,0.0,0.0,0.0,0.0,0.0,0.0,0.0,0.0,0.0,0.0,0.0,0.0,0.0,0.0,0.0,-0.7926,-0.7803,-0.8183,0.0,0.0,0.0,0.0,0.0,0.0,0.0,0.0,0.0,0.0,0.0,0.0,0.0,0.0,0.0,0.0,0.0,0.0,0.0,0.0,0.0,0.0,0.0,0.0,0.0,0.0,0.0,0.0,0.0,0.0,0.0,0.0,0.0,0.0,0.0,0.0,0.0,0.0,0.0,0.0,0.0,0.0,0.0,0.0,0.0,0.0,0.0,0.0,0.0,0.0,0.0,0.0,0.0,0.0,0.0,0.0,0.0,0.0,0.0,0.0,0.0,0.0,0.0,0.0,0.0,0.0,0.0,0.0,0.0,0.0,0.0,0.0,0.0,0.0,0.0,0.0,0.0,0.0,0.0,0.0,0.0,0.0,0.0,0.0,0.0,0.0,0.0,0.0,0.0,0.0,0.0,0.0,0.0,0.0,0.0,0.0,0.0,0.0,0.0,0.0,0.0,0.0,0.0,0.0,0.0,0.0,0.0,0.0,0.0,0.0,-0.8524,-0.9285,-0.9337,0.0,-0.9426,0.0,0.0,0.0,0.0,0.0,0.0,0.0,0.0,0.0,0.0,0.0,0.0,0.0,0.0,0.0,0.0,0.0,0.0,0.0,0.0,0.0,0.0,0.0,0.0,0.0,0.0,0.0,0.0,0.0,0.0,0.0,0.0,0.0,0.0,0.0,0.0,0.0,0.0,0.0,0.0,0.0,0.0,0.0,0.0,0.0,0.0,0.0,0.0,0.0,0.0,0.0,0.0,0.0,0.0,0.0,0.0,0.0,0.0,0.0,0.0,0.0,0.0,0.0,0.0,0.0,0.0,0.0,0.0,0.0,0.0,0.0,0.0,0.0,0.0,0.0,0.0,0.0,0.0,0.0,0.0,0.0,0.0,0.0,0.0,0.0,0.0,0.0,0.0,0.0,0.0,0.0,0.0,0.0,0.0,0.0,0.0,0.0,0.0,0.0,0.0,0.0,0.0,0.0,0.0,0.0,0.0,0.0,0.0,0.0,0.0,-0.9477,-0.9809,-0.9879,-0.9756,0.0,0.0,0.0,0.0,0.0,0.0,0.0,0.0,0.0,0.0,0.0,0.0,0.0,0.0,0.0,0.0,0.0,0.0,0.0,0.0,0.0,0.0,0.0,0.0,0.0,0.0,0.0,0.0,0.0,0.0,0.0,0.0,0.0,0.0,0.0,0.0,0.0,0.0,0.0,0.0,0.0,0.0,0.0,0.0,0.0,0.0,0.0,0.0,0.0,0.0,0.0,0.0,0.0,0.0,0.0,0.0,0.0,0.0,0.0,0.0,0.0,0.0,0.0,0.0,0.0,0.0,0.0,0.0,0.0,0.0,0.0,0.0,0.0,0.0,0.0,0.0,0.0,0.0,0.0,0.0,0.0,0.0,0.0,0.0,0.0,0.0,0.0,0.0,0.0,0.0,0.0,0.0,0.0,0.0,0.0,0.0,0.0,0.0,0.0,0.0,0.0,0.0,0.0,0.0,0.0,0.0,0.0,0.0,0.0,0.0,-0.984,-1.0234,-1.0458,-1.0393,-1.0047,-0.939,0.0,0.0,0.0,0.0,0.0,0.0,0.0,0.0,0.0,0.0,0.0,0.0,0.0,0.0,0.0,0.0,0.0,0.0,0.0,0.0,0.0,0.0,0.0,0.0,0.0,0.0,0.0,0.0,0.0,0.0,0.0,0.0,0.0,0.0,0.0,0.0,0.0,0.0,0.0,0.0,0.0,0.0,0.0,0.0,0.0,0.0,0.0,0.0,0.0,0.0,0.0,0.0,0.0,0.0,0.0,0.0,0.0,0.0,0.0,0.0,0.0,0.0,0.0,0.0,0.0,0.0,0.0,0.0,0.0,0.0,0.0,0.0,0.0,0.0,0.0,0.0,0.0,0.0,0.0,0.0,0.0,0.0,0.0,0.0,0.0,0.0,0.0,0.0,0.0,0.0,0.0,0.0,0.0,0.0,0.0,0.0,0.0,0.0,0.0,0.0,0.0,0.0,0.0,0.0,0.0,0.0,0.0,0.0,-1.1016,-1.0445,-1.0524,-1.1373,-1.1116,-1.0449,0.0,0.0,0.0,0.0,0.0,0.0,0.0,0.0,0.0,0.0,0.0,0.0,0.0,0.0,0.0,0.0,0.0,0.0,0.0,0.0,0.0,0.0,0.0,0.0,0.0,0.0,0.0,0.0,0.0,0.0,0.0,0.0,0.0,0.0,0.0,0.0,0.0,0.0,0.0,0.0,0.0,0.0,0.0,0.0,0.0,0.0,0.0,0.0,0.0,0.0,0.0,0.0,0.0,0.0,0.0,0.0,0.0,0.0,0.0,0.0,0.0,0.0,0.0,0.0,0.0,0.0,0.0,0.0,0.0,0.0,0.0,0.0,0.0,0.0,0.0,0.0,0.0,0.0,0.0,0.0,0.0,0.0,0.0,0.0,0.0,0.0,0.0,0.0,0.0,0.0,0.0,0.0,0.0,0.0,0.0,0.0,0.0,0.0,0.0,0.0,0.0,0.0,0.0,0.0,0.0,0.0,0.0,0.0,0.0,-0.9622,-1.0008,-1.0703,-1.1623,-1.0925,-1.0294,0.0,0.0,0.0,0.0,0.0,0.0,0.0,0.0,0.0,0.0,0.0,0.0,0.0,0.0,0.0,0.0,0.0,0.0,0.0,0.0,0.0,0.0,0.0,0.0,0.0,0.0,0.0,0.0,0.0,0.0,0.0,0.0,0.0,0.0,0.0,0.0,0.0,0.0,0.0,0.0,0.0,0.0,0.0,0.0,0.0,0.0,0.0,0.0,0.0,0.0,0.0,0.0,0.0,0.0,0.0,0.0,0.0,0.0,0.0,0.0,0.0,0.0,0.0,0.0,0.0,0.0,0.0,0.0,0.0,0.0,0.0,0.0,0.0,0.0,0.0,0.0,0.0,0.0,0.0,0.0,0.0,0.0,0.0,0.0,0.0,0.0,0.0,0.0,0.0,0.0,0.0,0.0,0.0,0.0,0.0,0.0,0.0,0.0,0.0,0.0,0.0,0.0,0.0,0.0,0.0,0.0,0.0,0.0,0.0,-0.9526,0.0,-1.1023,-1.148,-1.0866,-1.0188,0.0,0.0,0.0,0.0,0.0,0.0,0.0,0.0,0.0,0.0,0.0,0.0,0.0,0.0,0.0,0.0,0.0,0.0,0.0,0.0,0.0,0.0,0.0,0.0,0.0,0.0,0.0,0.0,0.0,0.0,0.0,0.0,0.0,0.0,0.0,0.0,0.0,0.0,0.0,0.0,0.0,0.0,0.0,0.0,0.0,0.0,0.0,0.0,0.0,0.0,0.0,0.0,0.0,0.0,0.0,0.0,0.0,0.0,0.0,0.0,0.0,0.0,0.0,0.0,0.0,0.0,0.0,0.0,0.0,0.0,0.0,0.0,0.0,0.0,0.0,0.0,0.0,0.0,0.0,0.0,0.0,0.0,0.0,0.0,0.0,0.0,0.0,0.0,0.0,0.0,0.0,0.0,0.0,0.0,0.0,0.0,0.0,0.0,0.0,0.0,0.0,0.0,0.0,0.0,0.0,0.0,0.0,0.0,-0.9723,-1.1104,-1.153,-1.1516,-1.1056,-1.1035,-1.0118,0.0,0.0,0.0,0.0,0.0,0.0,0.0,0.0,0.0,0.0,0.0,0.0,0.0,0.0,0.0,0.0,0.0,0.0,0.0,0.0,0.0,0.0,0.0,0.0,0.0,0.0,0.0,0.0,0.0,0.0,0.0,0.0,0.0,0.0,0.0,0.0,0.0,0.0,0.0,0.0,0.0,0.0,0.0,0.0,0.0,0.0,0.0,0.0,0.0,0.0,0.0,0.0,0.0,0.0,0.0,0.0,0.0,0.0,0.0,0.0,0.0,0.0,0.0,0.0,0.0,0.0,0.0,0.0,0.0,0.0,0.0,0.0,0.0,0.0,0.0,0.0,0.0,0.0,0.0,0.0,0.0,0.0,0.0,0.0,0.0,0.0,0.0,0.0,0.0,0.0,0.0,0.0,0.0,0.0,0.0,0.0,0.0,0.0,0.0,0.0,0.0,0.0,0.0,0.0,0.0,0.0,0.0,0.0,0.0,-1.0699,-1.0942,-1.1446,-1.2206,-1.0855,-1.0314,0.0,0.0,0.0,0.0,0.0,0.0,0.0,0.0,0.0,0.0,0.0,0.0,0.0,0.0,0.0,0.0,0.0,0.0,0.0,0.0,0.0,0.0,0.0,0.0,0.0,0.0,0.0,0.0,0.0,0.0,0.0,0.0,0.0,0.0,0.0,0.0,0.0,0.0,0.0,0.0,0.0,0.0,0.0,0.0,0.0,0.0,0.0,0.0,0.0,0.0,0.0,0.0,0.0,0.0,0.0,0.0,0.0,0.0,0.0,0.0,0.0,0.0,0.0,0.0,0.0,0.0,0.0,0.0,0.0,0.0,0.0,0.0,0.0,0.0,0.0,0.0,0.0,0.0,0.0,0.0,0.0,0.0,0.0,0.0,0.0,0.0,0.0,0.0,0.0,0.0,0.0,0.0,0.0,0.0,0.0,0.0,0.0,0.0,0.0,0.0,0.0,0.0,0.0,0.0,0.0,0.0,0.0,0.0,0.0,-1.2248,-1.2072,-1.2306,-1.3042,-1.1659,-1.106,-1.1334,0.0,0.0,0.0,0.0,0.0,0.0,0.0,0.0,0.0,0.0,0.0,0.0,0.0,0.0,0.0,0.0,0.0,0.0,0.0,0.0,0.0,0.0,0.0,0.0,0.0,0.0,0.0,0.0,0.0,0.0,0.0,0.0,0.0,0.0,0.0,0.0,0.0,0.0,0.0,0.0,0.0,0.0,0.0,0.0,0.0,0.0,0.0,0.0,0.0,0.0,0.0,0.0,0.0,0.0,0.0,0.0,0.0,0.0,0.0,0.0,0.0,0.0,0.0,0.0,0.0,0.0,0.0,0.0,0.0,0.0,0.0,0.0,0.0,0.0,0.0,0.0,0.0,0.0,0.0,0.0,0.0,0.0,0.0,0.0,0.0,0.0,0.0,0.0,0.0,0.0,0.0,0.0,0.0,0.0,0.0,0.0,0.0,0.0,0.0,0.0,0.0,0.0,0.0,0.0,0.0,0.0,0.0,0.0,-1.5302,-1.4699,-1.4114,-1.3605,-1.3304,-1.2265,0.0,0.0,0.0,0.0,0.0,0.0,0.0,0.0,0.0,0.0,0.0,0.0,0.0,0.0,0.0,0.0,0.0,0.0,0.0,0.0,0.0,0.0,0.0,0.0,0.0,0.0,0.0,0.0,0.0,0.0,0.0,0.0,0.0,0.0,0.0,0.0,0.0,0.0,0.0,0.0,0.0,0.0,0.0,0.0,0.0,0.0,0.0,0.0,0.0,0.0,0.0,0.0,0.0,0.0,0.0,0.0,0.0,0.0,0.0,0.0,0.0,0.0,0.0,0.0,0.0,0.0,0.0,0.0,0.0,0.0,0.0,0.0,0.0,0.0,0.0,0.0,0.0,0.0,0.0,0.0,0.0,0.0,0.0,0.0,0.0,0.0,0.0,0.0,0.0,0.0,0.0,0.0,0.0,0.0,0.0,0.0,0.0,0.0,0.0,0.0,0.0,0.0,0.0,0.0,0.0,0.0,0.0,0.0,0.0,-1.5773,-1.6964,-1.7235,-1.6525,-1.4974,-1.396,0.0,0.0,0.0,0.0,0.0,0.0,0.0,0.0,0.0,0.0,0.0,0.0,0.0,0.0,0.0,0.0,0.0,0.0,0.0,0.0,0.0,0.0,0.0,0.0,0.0,0.0,0.0,0.0,0.0,0.0,0.0,0.0,0.0,0.0,0.0,0.0,0.0,0.0,0.0,0.0,0.0,0.0,0.0,0.0,0.0,0.0,0.0,0.0,0.0,0.0,0.0,0.0,0.0,0.0,0.0,0.0,0.0,0.0,0.0,0.0,0.0,0.0,0.0,0.0,0.0,0.0,0.0,0.0,0.0,0.0,0.0,0.0,0.0,0.0,0.0,0.0,0.0,0.0,0.0,0.0,0.0,0.0,0.0,0.0,0.0,0.0,0.0,0.0,0.0,0.0,0.0,0.0,0.0,0.0,0.0,0.0,0.0,0.0,0.0,0.0,0.0,0.0,0.0,0.0,0.0,0.0,0.0,0.0,-1.5279,-1.7559,-1.9202,-1.9902,-1.9674,-1.7725,-1.6052,0.0,0.0,0.0,0.0,0.0,0.0,0.0,0.0,0.0,0.0,0.0,0.0,0.0,0.0,0.0,0.0,0.0,0.0,0.0,0.0,0.0,0.0,0.0,0.0,0.0,0.0,0.0,0.0,0.0,0.0,0.0,0.0,0.0,0.0,0.0,0.0,0.0,0.0,0.0,0.0,0.0,0.0,0.0,0.0,0.0,0.0,0.0,0.0,0.0,0.0,0.0,0.0,0.0,0.0,0.0,0.0,0.0,0.0,0.0,0.0,0.0,0.0,0.0,0.0,0.0,0.0,0.0,0.0,0.0,0.0,0.0,0.0,0.0,0.0,0.0,0.0,0.0,0.0,0.0,0.0,0.0,0.0,0.0,0.0,0.0,0.0,0.0,0.0,0.0,0.0,0.0,0.0,0.0,0.0,0.0,0.0,0.0,0.0,0.0,0.0,0.0,0.0,0.0,0.0,0.0,0.0,0.0,0.0,-1.6881,-1.9619,-2.1129,-2.2062,-2.2441,-2.0718,-1.8202,0.0,0.0,0.0,0.0,0.0,0.0,0.0,0.0,0.0,0.0,0.0,0.0,0.0,0.0,0.0,0.0,0.0,0.0,0.0,0.0,0.0,0.0,0.0,0.0,0.0,0.0,0.0,0.0,0.0,0.0,0.0,0.0,0.0,0.0,0.0,0.0,0.0,0.0,0.0,0.0,0.0,0.0,0.0,0.0,0.0,0.0,0.0,0.0,0.0,0.0,0.0,0.0,0.0,0.0,0.0,0.0,0.0,0.0,0.0,0.0,0.0,0.0,0.0,0.0,0.0,0.0,0.0,0.0,0.0,0.0,0.0,0.0,0.0,0.0,0.0,0.0,0.0,0.0,0.0,0.0,0.0,0.0,0.0,0.0,0.0,0.0,0.0,0.0,0.0,0.0,0.0,0.0,0.0,0.0,0.0,0.0,0.0,0.0,0.0,0.0,0.0,0.0,0.0,0.0,0.0,0.0,0.0,0.0,-1.7705,-1.9001,-2.1551,-2.2993,-2.3153,-2.1117,-1.9015,0.0,0.0,0.0,0.0,0.0,0.0,0.0,0.0,0.0,0.0,0.0,0.0,0.0,0.0,0.0,0.0,0.0,0.0,0.0,0.0,0.0,0.0,0.0,0.0,0.0,0.0,0.0,0.0,0.0,0.0,0.0,0.0,0.0,0.0,0.0,0.0,0.0,0.0,0.0,0.0,0.0,0.0,0.0,0.0,0.0,0.0,0.0,0.0,-1.5095,0.0,0.0,0.0,0.0,0.0,0.0,0.0,0.0,0.0,0.0,0.0,0.0,0.0,0.0,0.0,0.0,0.0,0.0,0.0,0.0,0.0,0.0,0.0,0.0,0.0,0.0,0.0,0.0,0.0,0.0,0.0,0.0,0.0,0.0,0.0,0.0,0.0,0.0,0.0,0.0,0.0,0.0,0.0,0.0,0.0,0.0,0.0,0.0,0.0,0.0,0.0,0.0,0.0,0.0,0.0,0.0,0.0,0.0,0.0,-1.876,-2.0393,-2.2459,-2.3706,-2.4074,-2.2187,-2.0197,0.0,0.0,0.0,0.0,0.0,0.0,0.0,0.0,0.0,0.0,0.0,0.0,0.0,0.0,0.0,0.0,0.0,0.0,0.0,0.0,0.0,0.0,0.0,0.0,0.0,0.0,0.0,0.0,0.0,0.0,0.0,0.0,0.0,0.0,0.0,0.0,0.0,0.0,0.0,0.0,0.0,0.0,0.0,0.0,0.0,0.0,0.0,0.0,0.0,0.0,0.0,0.0,0.0,0.0,0.0,0.0,0.0,0.0,0.0,0.0,0.0,0.0,0.0,0.0,0.0,0.0,0.0,0.0,0.0,0.0,0.0,0.0,0.0,0.0,0.0,0.0,0.0,0.0,0.0,0.0,0.0,0.0,0.0,0.0,0.0,0.0,0.0,0.0,0.0,0.0,0.0,0.0,0.0,0.0,0.0,0.0,0.0,0.0,0.0,0.0,0.0,0.0,0.0,0.0,0.0,0.0,0.0,-1.7343,-1.9749,-2.2152,-2.3407,-2.4378,-2.4964,-2.3281,-2.1271,-1.9016,0.0,0.0,0.0,0.0,0.0,0.0,0.0,0.0,0.0,0.0,0.0,0.0,0.0,0.0,0.0,0.0,0.0,0.0,0.0,0.0,0.0,0.0,0.0,0.0,0.0,0.0,0.0,0.0,0.0,0.0,0.0,0.0,0.0,0.0,0.0,0.0,0.0,0.0,-1.5091,-1.6112,0.0,0.0,0.0,0.0,0.0,0.0,0.0,0.0,-1.5677,0.0,0.0,0.0,0.0,0.0,0.0,0.0,0.0,0.0,0.0,0.0,0.0,0.0,0.0,0.0,0.0,0.0,0.0,0.0,0.0,0.0,0.0,0.0,0.0,0.0,0.0,0.0,0.0,0.0,0.0,0.0,0.0,0.0,0.0,0.0,0.0,0.0,0.0,0.0,0.0,0.0,0.0,0.0,0.0,0.0,0.0,0.0,0.0,0.0,0.0,0.0,0.0,0.0,0.0,0.0,0.0,-1.572,-1.8095,-2.0267,-2.2253,-2.396,-2.4868,-2.4951,-2.3465,-2.1657,-1.96,0.0,0.0,0.0,0.0,0.0,0.0,0.0,0.0,0.0,0.0,0.0,0.0,0.0,0.0,0.0,0.0,0.0,0.0,0.0,0.0,0.0,0.0,0.0,0.0,0.0,0.0,0.0,0.0,0.0,0.0,0.0,0.0,0.0,0.0,0.0,0.0,0.0,0.0,0.0,-1.6774,-1.7106,0.0,0.0,0.0,0.0,0.0,0.0,0.0,0.0,-1.6667,0.0,0.0,0.0,0.0,0.0,0.0,0.0,0.0,0.0,0.0,0.0,0.0,0.0,0.0,0.0,0.0,0.0,0.0,0.0,0.0,0.0,0.0,0.0,0.0,0.0,0.0,0.0,0.0,0.0,0.0,0.0,0.0,0.0,0.0,0.0,0.0,0.0,0.0,0.0,0.0,0.0,0.0,0.0,0.0,0.0,0.0,0.0,0.0,0.0,0.0,0.0,0.0,0.0,0.0,0.0,-1.6416,-1.8771,-2.0918,-2.2727,-2.4232,-2.4856,-2.4489,-2.291,-2.1172,0.0,0.0,0.0,0.0,0.0,0.0,0.0,0.0,0.0,0.0,0.0,0.0,0.0,0.0,0.0,0.0,0.0,0.0,0.0,0.0,0.0,0.0,0.0,0.0,0.0,0.0,0.0,0.0,0.0,0.0,0.0,0.0,0.0,0.0,0.0,0.0,0.0,0.0,0.0,0.0,-1.7485,-1.793,-1.8346,0.0,0.0,0.0,0.0,0.0,0.0,-1.7819,-1.7448,0.0,0.0,0.0,0.0,0.0,0.0,0.0,0.0,0.0,0.0,0.0,0.0,0.0,0.0,0.0,0.0,0.0,0.0,0.0,0.0,0.0,0.0,0.0,0.0,0.0,0.0,0.0,0.0,0.0,0.0,0.0,0.0,0.0,0.0,0.0,0.0,0.0,0.0,0.0,0.0,0.0,0.0,0.0,0.0,0.0,0.0,0.0,0.0,0.0,0.0,0.0,0.0,0.0,0.0,0.0,-1.689,-1.9146,-2.1253,-2.3147,-2.4136,-2.4476,-2.4069,-2.2251,-2.0529,0.0,0.0,0.0,0.0,0.0,0.0,0.0,0.0,0.0,0.0,0.0,0.0,0.0,0.0,0.0,0.0,0.0,0.0,0.0,0.0,0.0,0.0,0.0,0.0,0.0,0.0,0.0,0.0,0.0,0.0,0.0,0.0,0.0,0.0,0.0,0.0,0.0,0.0,0.0,0.0,0.0,-1.8825,-1.884,-1.884,0.0,0.0,0.0,0.0,-1.983,-1.9137,0.0,0.0,0.0,0.0,0.0,0.0,0.0,0.0,0.0,0.0,0.0,0.0,0.0,0.0,0.0,0.0,0.0,0.0,0.0,0.0,0.0,0.0,0.0,0.0,0.0,0.0,0.0,0.0,0.0,0.0,0.0,0.0,0.0,0.0,0.0,0.0,0.0,0.0,0.0,0.0,0.0,0.0,0.0,0.0,0.0,0.0,0.0,0.0,0.0,0.0,0.0,0.0,0.0,0.0,0.0,0.0,-1.6863,-1.869,-2.0786,-2.3079,-2.335,-2.3635,-2.4042,-2.1956,-2.0188,0.0,0.0,0.0,0.0,0.0,0.0,0.0,0.0,0.0,0.0,0.0,0.0,0.0,0.0,0.0,0.0,0.0,0.0,0.0,0.0,0.0,0.0,0.0,0.0,0.0,0.0,0.0,0.0,0.0,0.0,0.0,0.0,0.0,0.0,0.0,0.0,0.0,0.0,0.0,0.0,0.0,-1.9515,-1.9641,-1.9641,-1.9673,0.0,0.0,-2.0494,-2.0652,-2.1079,0.0,0.0,0.0,0.0,0.0,0.0,0.0,0.0,0.0,0.0,0.0,0.0,0.0,0.0,0.0,0.0,0.0,0.0,0.0,0.0,0.0,0.0,0.0,0.0,0.0,0.0,0.0,0.0,0.0,0.0,0.0,0.0,0.0,0.0,0.0,0.0,0.0,0.0,0.0,0.0,0.0,0.0,0.0,0.0,0.0,0.0,0.0,0.0,0.0,0.0,0.0,0.0,0.0,0.0,0.0,-1.4829,-1.721,-1.9108,-2.088,-2.2516,-2.2973,-2.3174,-2.3066,-2.1172,-1.9606,0.0,0.0,0.0,0.0,0.0,0.0,0.0,0.0,0.0,0.0,0.0,0.0,0.0,0.0,0.0,0.0,0.0,0.0,0.0,0.0,0.0,0.0,0.0,0.0,0.0,0.0,0.0,0.0,0.0,0.0,0.0,0.0,0.0,0.0,0.0,0.0,0.0,0.0,0.0,0.0,0.0,0.0,-2.0257,-2.0368,0.0,0.0,0.0,-2.2013,-2.1997,0.0,0.0,0.0,0.0,0.0,0.0,0.0,0.0,0.0,0.0,0.0,0.0,0.0,0.0,0.0,0.0,0.0,0.0,0.0,0.0,0.0,0.0,0.0,0.0,0.0,0.0,0.0,0.0,0.0,0.0,0.0,0.0,0.0,0.0,0.0,0.0,0.0,0.0,0.0,0.0,0.0,0.0,0.0,0.0,0.0,0.0,0.0,0.0,0.0,0.0,0.0,0.0,0.0,0.0,0.0,0.0,0.0,-1.7489,-1.9284,-2.0819,-2.2062,-2.2624,-2.2647,-2.2049,-2.0687,0.0,0.0,0.0,0.0,0.0,0.0,0.0,0.0,0.0,0.0,0.0,0.0,0.0,0.0,0.0,0.0,0.0,0.0,0.0,0.0,0.0,0.0,0.0,0.0,0.0,0.0,0.0,-1.1228,0.0,0.0,0.0,0.0,0.0,0.0,0.0,0.0,0.0,0.0,0.0,0.0,0.0,0.0,-1.9878,-2.0905,-2.1347,-2.1711,0.0,0.0,-2.3167,-2.3151,-2.2898,-2.2076,0.0,0.0,0.0,0.0,0.0,0.0,0.0,0.0,0.0,0.0,0.0,0.0,0.0,0.0,0.0,0.0,0.0,0.0,0.0,0.0,0.0,0.0,0.0,0.0,0.0,0.0,0.0,0.0,0.0,0.0,0.0,0.0,0.0,0.0,0.0,0.0,0.0,0.0,0.0,0.0,0.0,0.0,0.0,0.0,0.0,0.0,0.0,0.0,0.0,0.0,0.0,0.0,0.0,0.0,0.0,-1.7469,-1.8742,-2.0288,-2.201,-2.2143,-2.1924,-2.1467,-2.092,-1.9554,0.0,0.0,0.0,0.0,0.0,0.0,0.0,0.0,0.0,0.0,0.0,0.0,0.0,0.0,0.0,0.0,0.0,0.0,0.0,0.0,0.0,0.0,0.0,0.0,0.0,0.0,0.0,0.0,0.0,0.0,0.0,0.0,0.0,0.0,0.0,0.0,0.0,0.0,0.0,0.0,0.0,-2.1695,-2.1741,-2.2862,-2.348,0.0,0.0,-2.3841,-2.3825,-2.4369,-2.3882,-2.124,0.0,0.0,0.0,0.0,0.0,0.0,0.0,0.0,0.0,0.0,0.0,0.0,0.0,0.0,0.0,0.0,0.0,0.0,0.0,0.0,0.0,0.0,0.0,0.0,0.0,0.0,0.0,0.0,0.0,0.0,0.0,0.0,0.0,0.0,0.0,0.0,0.0,0.0,0.0,0.0,0.0,0.0,0.0,0.0,0.0,0.0,0.0,0.0,0.0,0.0,0.0,0.0,0.0,-1.5623,-1.731,-1.8981,-2.0353,-2.1354,-2.2201,-2.221,-2.1304,-2.0793,-1.9658,0.0,0.0,0.0,0.0,0.0,0.0,0.0,0.0,0.0,0.0,0.0,0.0,0.0,0.0,0.0,0.0,0.0,0.0,0.0,0.0,0.0,0.0,0.0,0.0,0.0,0.0,0.0,0.0,-1.3842,-1.4731,-1.5195,0.0,0.0,0.0,0.0,0.0,0.0,0.0,0.0,0.0,0.0,-2.1379,-2.1821,-2.2675,0.0,0.0,-2.373,-2.3888,-2.3888,-2.3781,-2.304,-2.1144,-2.0544,0.0,0.0,0.0,0.0,0.0,0.0,0.0,0.0,0.0,0.0,0.0,0.0,0.0,0.0,0.0,0.0,0.0,0.0,0.0,0.0,0.0,0.0,0.0,0.0,0.0,0.0,0.0,0.0,0.0,0.0,0.0,0.0,0.0,0.0,0.0,0.0,0.0,0.0,0.0,0.0,0.0,0.0,0.0,0.0,0.0,0.0,0.0,0.0,0.0,0.0,0.0,0.0,-1.5995,-1.746,-1.9403,-2.0653,-2.1139,-2.2324,-2.2307,-2.1016,-2.0678,-1.97,0.0,0.0,0.0,0.0,0.0,0.0,0.0,0.0,0.0,0.0,0.0,0.0,0.0,0.0,0.0,0.0,0.0,0.0,0.0,0.0,0.0,0.0,0.0,0.0,0.0,0.0,0.0,0.0,-1.4616,-1.5551,-1.5856,0.0,0.0,0.0,0.0,0.0,0.0,0.0,0.0,0.0,0.0,-2.1916,-2.2438,-2.3104,-2.3626,-2.3856,-2.3888,-2.3983,-2.4191,-2.3638,-2.2819,-2.165,0.0,0.0,0.0,0.0,0.0,0.0,0.0,0.0,0.0,0.0,0.0,0.0,0.0,0.0,0.0,0.0,0.0,0.0,0.0,0.0,0.0,0.0,0.0,0.0,0.0,0.0,0.0,0.0,0.0,0.0,-1.4867,0.0,0.0,0.0,0.0,0.0,0.0,0.0,0.0,0.0,0.0,0.0,0.0,0.0,0.0,0.0,0.0,0.0,0.0,0.0,0.0,0.0,0.0,-1.6911,-1.8087,-1.9914,-2.1124,-2.1666,-2.2419,-2.2042,-2.0506,-2.0489,-1.9678,-1.7957,0.0,0.0,0.0,0.0,0.0,0.0,0.0,0.0,0.0,0.0,0.0,0.0,0.0,0.0,0.0,0.0,0.0,0.0,0.0,0.0,0.0,0.0,0.0,0.0,0.0,0.0,-1.4793,-1.5209,-1.561,0.0,0.0,0.0,0.0,0.0,0.0,0.0,0.0,0.0,0.0,-2.2917,-2.3844,-2.3841,-2.446,-2.4638,-2.4014,-2.3888,-2.4144,-2.4812,-2.4318,-2.367,0.0,0.0,0.0,0.0,0.0,0.0,0.0,0.0,0.0,0.0,0.0,0.0,0.0,0.0,0.0,0.0,0.0,0.0,0.0,0.0,0.0,0.0,0.0,0.0,0.0,0.0,0.0,-1.9644,-1.8385,0.0,0.0,0.0,0.0,0.0,0.0,0.0,0.0,0.0,0.0,0.0,-2.1367,-2.2063,0.0,0.0,0.0,0.0,0.0,0.0,0.0,0.0,0.0,0.0,0.0,0.0,-1.7329,-1.9172,-2.0239,-2.1038,-2.1576,-2.23,-2.206,-2.076,-2.0815,-1.9856,-1.7828,0.0,0.0,0.0,0.0,0.0,0.0,0.0,0.0,0.0,0.0,0.0,0.0,0.0,0.0,0.0,0.0,0.0,0.0,0.0,0.0,0.0,0.0,0.0,0.0,0.0,-1.5768,0.0,0.0,0.0,0.0,0.0,0.0,0.0,0.0,0.0,0.0,0.0,-2.0815,-2.2121,-2.3242,-2.3885,-2.3843,-2.409,-2.4349,0.0,0.0,0.0,0.0,0.0,0.0,0.0,0.0,0.0,0.0,0.0,0.0,0.0,0.0,-2.5144,-2.3031,-2.2153,-2.1628,-2.1184,0.0,0.0,0.0,0.0,0.0,0.0,0.0,0.0,0.0,0.0,0.0,0.0,0.0,0.0,-2.1908,0.0,-2.0784,0.0,0.0,0.0,0.0,0.0,0.0,0.0,0.0,-2.2779,-2.3804,-2.4103,-2.4602,-2.4517,0.0,-2.3623,-2.1902,0.0,0.0,0.0,0.0,0.0,0.0,0.0,0.0,-1.8414,-2.0098,-2.1144,-2.1812,-2.2086,-2.2431,-2.2141,-2.1205,-2.0669,-1.955,-1.7753,-1.6408,-1.564,0.0,0.0,0.0,0.0,0.0,0.0,0.0,0.0,0.0,0.0,0.0,0.0,0.0,0.0,0.0,0.0,0.0,0.0,0.0,0.0,0.0,0.0,0.0,-1.6119,0.0,0.0,0.0,0.0,0.0,0.0,0.0,0.0,0.0,-1.9983,-2.0788,-2.1887,-2.3414,-2.3947,-2.4205,-2.4147,0.0,0.0,0.0,0.0,0.0,0.0,0.0,-2.3559,-2.4239,-2.4294,-2.4297,-2.4489,-2.6095,-2.7195,-2.6656,0.0,0.0,-2.476,-2.3813,-2.3262,-2.276,-2.3134,-2.3408,-2.3019,-2.3249,-2.3796,0.0,0.0,0.0,0.0,0.0,0.0,0.0,0.0,-2.4036,-2.3964,0.0,-2.2923,0.0,0.0,0.0,0.0,0.0,-2.2113,0.0,0.0,-2.5777,-2.6956,-2.7027,-2.6552,-2.6459,-2.6758,-2.6776,-2.5621,-2.3234,-2.0319,0.0,0.0,0.0,0.0,0.0,0.0,-2.0137,-2.083,-2.2497,-2.3365,-2.3132,-2.2746,-2.226,-2.1653,-2.0125,-1.8817,-1.78,-1.7043,-1.6468,-1.6109,-1.4896,0.0,0.0,0.0,0.0,0.0,0.0,0.0,0.0,0.0,0.0,0.0,0.0,0.0,0.0,0.0,0.0,0.0,0.0,0.0,0.0,-1.524,0.0,0.0,0.0,0.0,0.0,0.0,0.0,0.0,0.0,0.0,-2.1516,-2.2121,-2.3293,-2.5251,0.0,0.0,0.0,0.0,-2.5005,-2.5005,-2.5017,-2.5492,-2.6814,-2.6435,-2.6198,-2.6925,0.0,0.0,-2.6579,-2.7852,-2.8467,-2.7012,-2.7926,-2.8485,-2.6911,-2.6114,-2.5656,-2.549,-2.5521,-2.5672,-2.5591,-2.552,-2.5892,-2.9136,0.0,0.0,0.0,0.0,-2.6344,-2.6791,-2.7615,-2.7194,-2.6498,-2.5523,-2.5135,0.0,0.0,0.0,0.0,0.0,0.0,-2.5033,-2.576,-2.7467,-2.802,-2.7635,-2.8537,-2.8595,-2.7936,-2.7517,-2.6968,-2.6184,-2.4171,-2.185,-1.9355,0.0,0.0,0.0,0.0,-2.0688,-2.2374,-2.2651,-2.269,-2.2637,-2.2101,-2.155,-2.0986,-1.9795,-1.902,-1.8698,-1.7767,-1.7036,-1.6628,-1.6227,0.0,0.0,0.0,0.0,0.0,0.0,0.0,0.0,0.0,0.0,0.0,0.0,0.0,0.0,0.0,0.0,0.0,0.0,0.0,-1.5455,-1.6317,-1.7168,0.0,0.0,0.0,0.0,0.0,0.0,0.0,0.0,0.0,-2.4575,-2.4287,-2.4477,0.0,0.0,-2.5503,-2.5436,-2.5197,-2.5005,-2.5005,0.0,0.0,0.0,-2.6151,-2.6261,-2.6988,-2.7557,-2.7886,-2.7838,-2.8488,-2.8688,-2.7672,-2.7841,-2.7807,-2.6962,-2.6979,-2.6793,-2.593,-2.6031,-2.6216,-2.5842,-2.647,-2.7131,-3.2007,-2.9576,-2.8814,-2.8821,-2.9368,-2.9094,-2.938,-2.9955,-2.9463,-2.8831,-2.8143,-2.7511,-2.6213,-2.4415,-2.3887,0.0,0.0,0.0,-2.676,-2.7842,-2.885,-2.9096,-2.875,-2.9454,-2.9431,-2.8747,-2.7983,-2.7556,-2.7477,-2.6319,-2.4449,-2.1904,0.0,0.0,-2.1444,-2.1275,-2.1812,-2.3117,-2.3104,-2.2962,-2.2701,-2.197,-2.1445,-2.1064,-1.9798,-1.9106,-1.9165,-1.8028,-1.7309,-1.7162,-1.6868,-1.6163,0.0,0.0,0.0,0.0,0.0,0.0,0.0,0.0,0.0,0.0,0.0,-1.2802,0.0,0.0,0.0,0.0,-1.4852,-1.6187,-1.7282,-1.7901,0.0,0.0,0.0,0.0,0.0,0.0,0.0,-2.2729,-2.367,-2.4663,-2.5917,-2.5613,-2.5744,-2.7011,-2.6361,-2.5847,-2.6059,0.0,-2.5211,-2.576,-2.6182,-2.6625,-2.7146,-2.7219,-2.7464,-2.8153,-2.8584,-2.8873,-2.8965,-2.9231,-2.9161,-2.8518,-2.8281,-2.8044,-2.7283,-2.7503,-2.7469,-2.6319,-2.6623,-2.6894,-2.6233,-2.6996,-2.7689,-3.3909,-3.332,-3.2379,-3.1898,-3.1837,-3.1837,-3.156,-3.1103,-3.1019,-3.0983,-3.0898,-2.9833,-2.8907,-2.8001,-2.6208,0.0,-2.722,-2.7462,-2.8325,-2.9667,-2.999,-3.0103,-3.0074,-2.964,-2.9428,-2.9362,-2.8373,-2.7821,-2.7654,-2.7184,-2.6348,-2.5153,-2.3981,-2.3203,-2.2748,-2.3031,-2.3208,-2.3289,-2.3796,-2.3799,-2.3158,-2.218,-2.1641,-2.1522,-1.9951,-1.9112,-1.9163,-1.7907,-1.7357,-1.7645,-1.7043,-1.647,-1.598,0.0,0.0,0.0,0.0,0.0,0.0,0.0,0.0,0.0,0.0,0.0,0.0,0.0,0.0,0.0,-1.7654,0.0,-1.9324,-1.9764,0.0,0.0,0.0,-2.1045,-2.1804,-2.2945,-2.3917,-2.4582,0.0,0.0,-2.6161,0.0,-2.6995,-2.8218,-2.6838,-2.5965,-2.6682,-2.5811,-2.555,-2.6846,-2.713,-2.7598,-2.8546,-2.8861,-2.906,-2.9501,-3.0049,-3.0034,-2.9831,-2.9844,-2.9683,-2.8924,-2.8857,-2.8535,-2.7807,-2.7638,-2.7503,-2.6793,-2.7199,-2.7469,-2.6843,-2.7249,-2.7756,-3.5304,-3.4451,-3.4186,-3.3633,-3.2911,-3.2899,-3.2827,-3.2647,-3.1829,-3.1512,-3.1452,-3.0405,-2.9656,-2.9184,-2.8374,-2.8337,-2.8875,-2.8662,-2.9173,-3.0183,-3.0288,-3.0245,-3.0113,-3.0438,-3.0346,-2.9902,-2.9231,-2.8939,-2.8817,-2.7857,-2.7059,-2.6446,-2.5612,-2.47,-2.3778,-2.338,-2.3404,-2.3874,-2.4005,-2.3616,-2.261,-2.1904,-2.1144,-2.028,-1.9415,-1.877,-1.8398,-1.7633,-1.7303,-1.7529,-1.7363,-1.7096,-1.674,-1.6059,0.0,0.0,0.0,0.0,0.0,0.0,0.0,0.0,0.0,-1.5168,-1.3782,0.0,-1.6902,0.0,-1.8187,-1.938,-1.9919,-2.0661,0.0,0.0,-2.2668,-2.2956,-2.3548,-2.3955,-2.4469,-2.5123,-2.6015,-2.6814,-2.7297,-2.7601,-2.7867,-2.8183,-2.6671,-2.5998,-2.719,-2.6459,-2.6025,-2.6935,-2.7541,-2.7968,-2.8316,-2.8805,-2.9007,-2.8816,-2.9578,-3.0032,-2.9576,-2.9376,-2.9008,-2.8247,-2.7604,-2.7215,-2.7012,-2.6962,-2.6928,-2.6742,-2.6843,-2.6911,-2.6742,-2.7283,-2.7638,-3.5701,-3.5159,-3.5425,-3.5064,-3.4306,-3.4078,-3.3717,-3.3248,-3.2692,-3.2163,-3.1645,-3.0924,-3.0314,-2.9787,-2.9413,-2.944,-2.9742,-2.9245,-2.9542,-3.052,-3.0444,-3.0286,-3.0113,-3.0427,-3.0438,-3.0087,-2.9549,-2.931,-2.9258,-2.8347,-2.7661,-2.717,-2.6523,-2.5759,-2.4853,-2.4018,-2.3757,-2.4112,-2.3851,-2.3393,-2.2767,-2.1983,-2.1275,-2.067,-1.9819,-1.912,-1.8556,-1.7948,-1.7579,-1.7509,-1.7481,-1.7297,-1.6937,-1.6856,-1.6437,0.0,0.0,0.0,0.0,0.0,0.0,0.0,0.0,0.0,0.0,0.0,-1.8292,-1.8473,-1.9777,-2.0921,-2.1595,-2.2258,-2.3098,-2.42,-2.4304,-2.4557,-2.5209,-2.5331,-2.5631,-2.6296,-2.6885,-2.7263,-2.7353,-2.7598,-2.7767,-2.7752,-2.668,-2.6313,-2.7278,-2.6864,-2.6623,-2.7337,-2.7813,-2.8117,-2.8117,-2.8231,-2.8299,-2.8201,-2.8774,-2.9235,-2.9022,-2.8643,-2.8225,-2.7805,-2.7147,-2.6674,-2.6708,-2.6708,-2.6708,-2.6708,-2.6708,-2.6708,-2.6708,-2.7029,-2.7165,-3.5627,-3.5653,-3.611,-3.6038,-3.5569,-3.5003,-3.4318,-3.3477,-3.3344,-3.2671,-3.1681,-3.1409,-3.0949,-3.0296,-2.9973,-2.9968,-3.0193,-2.9475,-2.9635,-3.047,-3.0368,-3.0263,-3.0131,-3.0205,-3.0205,-3.0192,-2.9653,-2.9353,-2.9261,-2.8673,-2.8085,-2.749,-2.6961,-2.6386,-2.5767,-2.4736,-2.4161,-2.4083,-2.3602,-2.3274,-2.3169,-2.2285,-2.172,-2.1535,-2.0533,-1.9661,-1.9001,-1.8481,-1.8004,-1.7635,-1.7625,-1.7481,-1.7202,-1.7605,-1.739,0.0,-1.6813,0.0,0.0,0.0,0.0,0.0,0.0,0.0,0.0,-1.9136,-1.9846,-2.0734,-2.1921,-2.292,-2.3555,-2.4063,-2.4681,-2.5461,-2.5622,-2.5905,-2.6479,-2.6637,-2.6901,-2.7395,-2.763,-2.754,-2.7043,-2.7109,-2.7283,-2.7337,-2.7026,-2.6957,-2.745,-2.7275,-2.7249,-2.7924,-2.8075,-2.8063,-2.7911,-2.7657,-2.7501,-2.762,-2.798,-2.824,-2.8519,-2.8037,-2.7627,-2.7597,-2.7094,-2.664,-2.6674,-2.6691,-2.6708,-2.6691,-2.6674,-2.6708,-2.6708,-2.6725,-2.6708,-3.6002,-3.5641,-3.5725,-3.5713,-3.5569,-3.5052,-3.4667,-3.4426,-3.3645,-3.2671,-3.1717,-3.1797,-3.1787,-3.161,-3.1138,-3.0681,-3.0338,-2.9581,-2.9309,-2.9404,-2.969,-3.0024,-3.0366,-3.068,-3.083,-3.0777,-3.0241,-2.9732,-2.9274,-2.8673,-2.8098,-2.749,-2.6961,-2.6386,-2.5793,0.0,0.0,0.0,-2.3979,-2.3678,-2.3195,-2.2612,-2.1826,-2.0921,-2.0214,0.0,-1.8367,-1.8593,-1.8591,-1.8254,-1.868,0.0,0.0,0.0,0.0,0.0,0.0,0.0,0.0,0.0,0.0,0.0,-1.9354,-1.8922,-1.9558,-2.1328,-2.276,-2.3474,-2.4212,-2.4522,-2.419,-2.5177,-2.5663,-2.5366,-2.6312,-2.6817,-2.6411,-2.6856,-2.711,-2.6688,-2.7205,-2.758,-2.747,-2.7595,-2.7733,-2.7801,-2.7832,-2.7962,-2.8165,-2.7829,-2.7903,-2.8667,-2.8388,-2.7889,-2.7383,-2.7301,-2.7153,-2.7106,-2.766,-2.8174,-2.8336,-2.797,-2.7593,-2.756,-2.7059,-2.6589,-2.6555,-2.664,-2.6691,-2.6657,-2.6657,-2.6708,-2.6708,-2.6708,-2.6691,-3.6242,0.0,-3.6002,-3.6014,0.0,-3.5437,-3.5064,-3.4751,-3.3741,-3.2671,-3.1717,-3.1805,-3.1849,-3.1825,-3.1281,-3.0737,-3.0217,-2.9615,-2.9246,-2.9143,-2.9302,-2.9729,-3.0406,-3.0596,-3.0798,-3.0973,-3.0699,-3.0218,-2.9693,-2.9118,-2.8529,-2.7941,-2.7379,-2.6674,-2.578,-2.4975,-2.44,-2.4125,-2.4125,-2.3812,-2.3237,-2.2936,-2.227,-2.1158,0.0,0.0,0.0,0.0,0.0,0.0,0.0,0.0,0.0,0.0,0.0,-2.0003,-2.0388,-2.0666,-2.0772,-2.0827,-2.1227,-2.2011,-2.1676,-2.1218,-2.0733,-2.2178,-2.3428,-2.4227,-2.4642,-2.5038,-2.5411,-2.5898,-2.6258,-2.6406,-2.6985,-2.7238,-2.7011,-2.7239,-2.7339,-2.7096,-2.7365,-2.7585,-2.7585,-2.77,-2.7815,-2.7905,-2.8029,-2.8162,-2.8356,-2.8333,-2.8381,-2.8463,-2.7942,-2.7286,-2.6661,-2.6436,-2.6406,-2.628,-2.6746,-2.7205,-2.7334,-2.7126,-2.6914,-2.6934,-2.6668,-2.6468,-2.6554,-2.6606,-2.664,-2.6657,-2.6674,-2.6708,-2.6708,-2.6708,-2.6708,-3.6411,-3.6398,-3.6302,-3.6254,-3.623,-3.5701,-3.5172,-3.4583,0.0,0.0,0.0,-3.1849,-3.1801,-3.1737,-3.1259,-3.0766,-3.0206,-2.9677,-2.931,-2.916,-2.9101,-2.947,-3.0177,-3.033,-3.0558,-3.0861,-3.0949,-3.0699,-3.0087,-2.9666,-2.9118,-2.8577,-2.7954,-2.7066,-2.5793,-2.4792,-2.4217,-2.4125,-2.4125,-2.3848,-2.3365,-2.3248,-2.2727,-2.1707,-2.1655,-2.1119,-1.9995,-2.0152,-2.0092,-1.9724,-1.9614,-1.9713,-2.0093,-2.0954,-2.1439,-2.1567,-2.2582,-2.305,-2.2702,-2.3111,-2.3267,-2.2925,-2.3346,-2.3122,-2.1998,-2.2807,-2.3689,-2.4549,-2.4851,-2.5444,-2.6439,-2.6476,-2.6658,-2.7315,-2.7414,-2.7488,-2.7575,-2.7585,-2.7585,-2.7585,-2.757,-2.7585,-2.76,-2.7675,-2.7765,-2.7815,-2.7905,-2.8069,-2.8348,-2.8605,-2.8638,-2.8306,-2.7762,-2.7007,-2.6451,-2.6113,-2.5783,-2.5937,-2.6173,-2.6297,-2.6219,-2.6185,-2.6221,-2.636,-2.6294,-2.6382,-2.652,-2.6571,-2.6589,-2.6657,-2.6708,-2.6691,-2.6708,-2.6708,-2.6691,-3.6411,-3.6374,-3.5918,-3.5725,-3.5689,-3.516,-3.4631,-3.4102,-3.3946,-3.3437,-3.2629,-3.2461,-3.2207,-3.1937,-3.1721,-3.1308,-3.079,-3.0218,-2.973,0.0,-2.9154,-2.917,-2.9314,-3.005,-3.0444,-3.052,-3.0823,-3.0699,-3.014,-3.0022,-2.9719,-2.9144,-2.8543,-2.7445,-2.5903,-2.5171,-2.4609,-2.4138,-2.4125,-2.4044,-2.3952,-2.3456,-2.2908,-2.2322,-2.2283,-2.1734,-2.0635,-2.1498,-2.1812,-2.1402,-2.1825,-2.2141,-2.2338,-2.2563,-2.2749,-2.2762,-2.3055,-2.3227,-2.3275,-2.3344,-2.3254,-2.2967,-2.3592,-2.3791,-2.3326,-2.4305,-2.5188,-2.5722,-2.6391,-2.6757,-2.6401,-2.6836,-2.702,-2.6748,-2.7195,-2.76,-2.7585,-2.7585,-2.7585,-2.7585,-2.7585,-2.7585,-2.76,-2.7625,-2.769,-2.7765,-2.784,-2.798,-2.8348,-2.8677,-2.8889,-2.8847,-2.8372,-2.7946,-2.7541,-2.7386,-2.6828,-2.6512,-2.658,-2.6545,-2.6232,-2.6185,-2.622,-2.6221,-2.6259,-2.6329,-2.6348,-2.6434,-2.6537,-2.6606,-2.6623,-2.6623,-2.6674,-2.6691,-2.6674,-3.6663,-3.635,-3.5833,-3.5617,-3.5569,-3.5003,-3.4655,-3.4426,-3.4414,-3.3764,-3.2675,-3.2548,-3.2247,-3.1829,-3.1749,-3.1416,-3.0843,-3.0326,-2.9953,-2.9689,-2.9387,-2.9333,-2.9573,-3.0154,-3.0419,-3.0406,-3.0785,-3.0856,-3.0581,-3.0257,-2.9957,-2.9631,-2.8529,-2.751,-2.6694,-2.5563,-2.4861,-2.4612,-2.4269,-2.4125,-2.4083,-2.3851,-2.342,-2.2871,-2.2831,-2.2439,-2.1668,-2.2113,-2.2336,-2.2207,-2.2391,-2.2562,-2.2697,-2.307,-2.3297,-2.3379,-2.3755,-2.4067,-2.4245,-2.4327,-2.4175,-2.3718,-2.4158,-2.424,-2.3723,-2.4367,-2.511,-2.572,-2.6312,-2.672,-2.684,-2.7121,-2.7242,-2.7081,-2.7335,-2.7524,-2.76,-2.7585,-2.7585,-2.7585,-2.7585,-2.7585,-2.7585,-2.7585,-2.7625,-2.7675,-2.7806,-2.7989,-2.8275,-2.8612,-2.8717,-2.841,-2.8149,-2.7832,-2.7539,-2.7063,-2.6689,-2.6451,-2.6389,-2.6272,-2.6058,-2.6114,-2.6185,-2.6203,-2.6239,-2.6276,-2.6294,-2.6347,-2.6434,-2.6537,-2.6572,-2.6589,-2.6589,-2.6606,-2.664,-3.6776,-3.6261,-3.5783,-3.5557,-3.54,-3.5004,-3.4775,-3.4775,-3.4763,-3.4078,-3.2947,-3.2839,-3.2524,-3.1966,-3.1886,-3.1597,-3.1079,-3.0506,-3.0266,-3.0206,-2.9725,-2.9625,-2.9939,-3.0233,-3.0396,-3.0458,-3.0737,-3.0898,-3.0934,-3.0529,-3.0218,-2.997,-2.8743,-2.7894,-2.7477,-2.6203,-2.5384,-2.5005,-2.453,-2.4256,-2.4125,-2.4125,-2.3825,-2.3248,-2.3326,-2.3143,-2.2635,-2.2714,-2.282,-2.2917,-2.282,-2.282,-2.2956,-2.3393,-2.3715,-2.3867,-2.4268,-2.4649,-2.4892,-2.5061,-2.4914,-2.4422,-2.4733,-2.4713,-2.4221,-2.4493,-2.4943,-2.5454,-2.5977,-2.6553,-2.7089,-2.7258,-2.7335,-2.7524,-2.7488,-2.7514,-2.7575,-2.7585,-2.7585,-2.7585,-2.7585,-2.7585,-2.7585,-2.7585,-2.7585,-2.7625,-2.779,-2.794,-2.8113,-2.8444,-2.8372,-2.8132,-2.8051,-2.8054,-2.7441,-2.702,-2.6745,-2.6577,-2.6306,-2.6131,-2.6014,-2.6078,-2.6184,-2.6203,-2.6185,-2.6222,-2.6294,-2.6294,-2.6347,-2.6468,-2.652,-2.6503,-2.652,-2.6555,-2.6623,-3.6554,-3.6057,-3.5745,-3.5328,-3.4871,-3.4847,-3.4775,-3.4775,-3.4775,-3.445,-3.385,-3.385,-3.3401,-3.275,-3.2473,-3.2058,-3.1573,-3.1091,-3.0838,-3.0747,-3.0254,-3.0055,-3.0091,-3.0012,-3.0146,-3.0459,-3.0484,-3.0672,-3.0936,-3.0857,-3.0634,-3.0153,-2.9931,-2.903,-2.7686,-2.732,-2.653,-2.5044,-2.4953,-2.4635,-2.4151,-2.4125,-2.3838,-2.3221,-2.3731,-2.3759,-2.3156,-2.3639,-2.3955,-2.3955,-2.3929,-2.3942,-2.3971,-2.4113,-2.4242,-2.4242,-2.4281,-2.4421,-2.4635,-2.4863,-2.4872,-2.4585,-2.5053,-2.5258,-2.4955,-2.5414,-2.5579,-2.5536,-2.6255,-2.6823,-2.6884,-2.717,-2.7361,-2.7437,-2.7524,-2.76,-2.7585,-2.7585,-2.7585,-2.7585,-2.7585,-2.7585,-2.7585,-2.7585,-2.7585,-2.7585,-2.7665,-2.775,-2.789,-2.8137,-2.8389,-2.8512,-2.8756,-2.8879,-2.8633,-2.8309,-2.7549,-2.7216,-2.68,-2.6302,-2.6003,-2.6023,-2.6185,-2.6185,-2.6185,-2.6205,-2.6241,-2.6241,-2.6292,-2.6398,-2.6433,-2.6365,-2.6485,-2.6554,-2.6589,-3.6775,-3.603,-3.6069,-3.5593,-3.4823,-3.4775,-3.4775,-3.4775,-3.4775,-3.4655,-3.4438,-3.4138,-3.3511,-3.2614,-3.2199,-3.1922,-3.1669,-3.112,-3.1103,-3.1308,-3.0838,-3.0543,-3.0579,-3.0418,-3.0424,-3.0505,-3.0432,-3.0482,-3.0532,-3.0261,-3.0144,-3.0195,-2.9871,-2.9275,-2.8634,-2.791,-2.717,-2.6491,-2.5811,-2.5197,-2.4678,-2.4295,-2.4008,-2.377,-2.3952,-2.4021,-2.3799,-2.3965,-2.4125,-2.4125,-2.4125,-2.4125,-2.4125,-2.4171,-2.4232,-2.4292,-2.4421,-2.452,-2.4591,-2.4706,-2.4755,-2.4791,-2.5135,-2.5301,-2.5327,-2.5658,-2.5794,-2.5747,-2.6289,-2.6765,-2.6925,-2.7196,-2.7437,-2.7514,-2.7575,-2.7585,-2.7585,-2.7585,-2.7585,-2.7585,-2.7585,-2.7585,-2.7585,-2.7585,-2.7585,-2.76,-2.765,-2.7725,-2.7905,-2.8137,-2.8356,-2.8573,-2.8818,-2.8778,-2.8455,-2.7809,-2.7192,-2.6546,-2.6018,-2.5616,-2.5697,-2.586,-2.6043,-2.6168,-2.6185,-2.6203,-2.6222,-2.6239,-2.6256,-2.6327,-2.631,-2.6276,-2.6468,-2.6451,-2.6452,-3.685,-3.6189,-3.6174,-3.5665,-3.4799,-3.4775,-3.4775,-3.4775,-3.4775,-3.4775,-3.4727,-3.4222,-3.3561,-3.2719,-3.2187,-3.1862,-3.1669,-3.1308,-3.1332,-3.1645,-3.1308,-3.1139,-3.1079,-3.0682,-3.0544,-3.0493,-3.0198,-3.0088,-3.0126,-2.9642,-2.9628,-2.9983,-2.9611,-2.9411,-2.9321,-2.843,-2.7803,-2.7425,-2.6543,-2.5707,-2.5044,-2.4599,-2.4347,-2.4334,-2.4191,-2.4191,-2.4334,-2.4174,-2.4125,-2.4125,-2.4125,-2.4125,-2.4125,-2.4227,-2.4393,-2.4471,-2.4514,-2.4549,-2.4591,-2.4591,-2.4734,-2.5005,-2.5104,-2.523,-2.5494,-2.5674,-2.5798,-2.5852,-2.6177,-2.6513,-2.6817,-2.7119,-2.7361,-2.7499,-2.7575,-2.7585,-2.7585,-2.7585,-2.7585,-2.7585,-2.7585,-2.7585,-2.7585,-2.7585,-2.7585,-2.76,-2.7675,-2.7765,-2.7905,-2.8088,-2.8323,-2.8493,-2.8677,-2.8545,-2.7948,-2.7381,-2.6616,-2.5926,-2.5431,-2.521,-2.5339,-2.5659,-2.5917,-2.6061,-2.6133,-2.6203,-2.6187,-2.6203,-2.622,-2.6185,-2.6203,-2.6239,-2.6345,-2.6329,-2.6365,-3.6612,-3.6331,-3.5872,-3.5352,-3.4787,-3.4775,-3.4775,-3.4775,-3.4775,-3.4775,-3.4703,-3.4222,-3.3694,-3.3188,-3.2647,-3.2154,-3.1753,-3.1657,-3.1657,-3.1705,-3.1657,-3.1657,-3.1597,-3.0633,-3.0325,-3.0569,-2.9791,-2.9468,-2.9717,-2.924,-2.92,-2.9524,-2.9444,-2.9445,-2.9337,-2.9151,-2.8634,-2.7659,-2.7027,-2.6143,-2.5175,-2.4992,-2.4966,-2.4913,-2.44,-2.436,-2.4796,-2.44,-2.4125,-2.4125,-2.4151,-2.4109,-2.4164,-2.4652,-2.4913,-2.4904,-2.4563,-2.4392,-2.4563,-2.4563,-2.4734,-2.509,-2.5061,-2.5131,-2.5411,-2.5522,-2.5592,-2.5716,-2.5948,-2.6233,-2.6498,-2.6884,-2.7159,-2.7401,-2.7524,-2.756,-2.7585,-2.7585,-2.7585,-2.7585,-2.7585,-2.7645,-2.763,-2.7585,-2.763,-2.7645,-2.763,-2.7625,-2.77,-2.789,-2.8079,-2.825,-2.8383,-2.8396,-2.7789,-2.7208,-2.6557,-2.5754,-2.5111,-2.4993,-2.5246,-2.5511,-2.577,-2.5972,-2.6115,-2.6185,-2.6185,-2.6185,-2.6185,-2.6185,-2.6185,-2.6239,-2.6274,-2.6277,-2.6329,-3.6467,-3.6085,-3.5565,-3.5107,-3.4787,-3.4775,-3.4775,-3.4775,-3.4775,-3.4775,-3.4691,-3.4222,-3.3765,-3.326,-3.2731,-3.219,-3.1741,-3.1705,-3.1705,-3.1705,-3.1705,-3.1705,-3.1633,-3.0958,-3.0652,-3.0584,-2.9963,-2.9648,-2.9539,-2.8612,-2.84,-2.8849,-2.8453,-2.852,-2.922,-2.905,-2.8792,-2.8599,-2.8106,-2.7072,-2.5667,-2.5511,-2.5511,-2.544,-2.4596,-2.4387,-2.4979,-2.4413,-2.4125,-2.4125,-2.4465,-2.4491,-2.4187,-2.4661,-2.5005,-2.4979,-2.4842,-2.4656,-2.4443,-2.4332,-2.4419,-2.475,-2.4863,-2.4989,-2.5173,-2.5383,-2.5522,-2.5578,-2.5661,-2.5839,-2.6165,-2.6698,-2.717,-2.7284,-2.7448,-2.76,-2.7585,-2.7585,-2.7585,-2.7585,-2.76,-2.775,-2.7989,-2.7869,-2.7779,-2.8098,-2.7884,-2.767,-2.77,-2.7815,-2.793,-2.8054,-2.818,-2.7957,-2.6826,-2.6751,-2.6312,-2.532,-2.4683,-2.4882,-2.5123,-2.5496,-2.5759,-2.5954,-2.6115,-2.6185,-2.6185,-2.6185,-2.6185,-2.6185,-2.6185,-2.6185,-2.6185,-2.6258,-2.6294,-3.6532,-3.6014,-3.5711,-3.5262,-3.4799,-3.4775,-3.4738,-3.4689,-3.4787,-3.4726,-3.4605,-3.4402,-3.3921,-3.3344,-3.308,-3.2599,-3.1961,-3.1813,-3.1705,-3.1705,-3.1705,-3.1705,-3.1621,-3.112,-3.0761,-3.0401,-2.976,-2.9309,-2.8954,-2.7875,-2.7631,-2.8089,-2.744,-2.7841,-2.8901,-2.869,-2.8763,-2.9229,-2.8621,-2.7484,-2.6419,-2.5976,-2.5884,-2.5903,-2.4988,-2.4753,-2.5489,-2.4975,-2.4674,-2.4713,-2.504,-2.5158,-2.5001,-2.4979,-2.5083,-2.5184,-2.49,-2.4711,-2.4606,-2.4491,-2.4672,-2.5082,-2.5081,-2.5172,-2.5434,-2.5569,-2.574,-2.5906,-2.5975,-2.6048,-2.6162,-2.6694,-2.7074,-2.7122,-2.7321,-2.7524,-2.7575,-2.7585,-2.7585,-2.7585,-2.7585,-2.7824,-2.8098,-2.7839,-2.7854,-2.8233,-2.7854,-2.768,-2.7725,-2.779,-2.7815,-2.7945,-2.8054,-2.7655,-2.7009,-2.6849,-2.6059,-2.5064,-2.4874,-2.4967,-2.5053,-2.5429,-2.5751,-2.5948,-2.6063,-2.6151,-2.6185,-2.6185,-2.6185,-2.6185,-2.6185,-2.6185,-2.6203,-2.6239,-2.6293,-3.6638,-3.6086,-3.6234,-3.5735,-3.4907,-3.4799,-3.4677,-3.4531,-3.4677,-3.4677,-3.447,-3.4629,-3.4174,-3.3561,-3.367,-3.3416,-3.2551,-3.2102,-3.1849,-3.1801,-3.1741,-3.1705,-3.1681,-3.1235,-3.0681,-3.0145,-2.9092,-2.8318,-2.7915,-2.7312,-2.6954,-2.6809,-2.6757,-2.7338,-2.8703,-2.8292,-2.8602,-2.9402,-2.8521,-2.7594,-2.7359,-2.6374,-2.6061,-2.6452,-2.5576,-2.5506,-2.6569,-2.6046,-2.5636,-2.5688,-2.5754,-2.6086,-2.6321,-2.5725,-2.5306,-2.5524,-2.4775,-2.4577,-2.5054,-2.5107,-2.5365,-2.5794,-2.5798,-2.5751,-2.6012,-2.6013,-2.6149,-2.6649,-2.6788,-2.6781,-2.6489,-2.6693,-2.6873,-2.6902,-2.706,-2.7321,-2.7499,-2.7585,-2.7615,-2.7645,-2.766,-2.7615,-2.763,-2.7645,-2.769,-2.7794,-2.769,-2.7585,-2.765,-2.77,-2.779,-2.7815,-2.786,-2.7576,-2.73,-2.6984,-2.5892,-2.5004,-2.5145,-2.5232,-2.515,-2.5376,-2.5686,-2.5903,-2.6079,-2.6168,-2.6185,-2.6185,-2.6185,-2.6185,-2.6185,-2.6185,-2.6203,-2.6239,-2.6276,-3.6584,-3.6277,-3.6145,-3.5851,-3.5303,-3.4931,-3.4738,-3.4689,-3.4775,-3.4628,-3.4482,-3.4677,-3.4354,-3.3779,-3.3887,-3.3681,-3.3056,-3.2839,-3.2599,-3.2238,-3.191,-3.1741,-3.1681,-3.1524,-3.0951,-3.011,-2.9388,-2.8775,-2.8162,-2.7318,-2.7014,-2.7066,-2.6237,-2.6814,-2.8567,-2.8331,-2.8782,-2.9806,-2.9222,-2.8386,-2.7509,-2.6531,-2.6246,-2.6576,-2.6084,-2.6233,-2.7124,-2.6334,-2.5806,-2.5832,-2.6203,-2.6674,-2.6987,-2.6588,-2.6059,-2.578,-2.5493,-2.5132,-2.5052,-2.5096,-2.5187,-2.5432,-2.5682,-2.5716,-2.5728,-2.6086,-2.6385,-2.6705,-2.6766,-2.6791,-2.6742,-2.6823,-2.6803,-2.6399,-2.6721,-2.7089,-2.7295,-2.7499,-2.7799,-2.8128,-2.7899,-2.7824,-2.8064,-2.7974,-2.7824,-2.8124,-2.7899,-2.76,-2.7615,-2.768,-2.765,-2.7675,-2.7665,-2.765,-2.737,-2.7118,-2.6451,-2.5623,-2.5549,-2.5277,-2.5194,-2.5405,-2.5683,-2.5861,-2.6056,-2.6168,-2.6185,-2.6185,-2.6185,-2.6185,-2.6185,-2.6203,-2.622,-2.6221,-2.6258,-3.6743,-3.6513,-3.628,-3.5857,-3.5432,-3.4954,-3.4726,-3.4677,-3.4775,-3.4628,-3.4396,-3.4628,-3.4402,-3.3899,-3.4102,-3.3994,-3.3609,-3.3573,-3.338,-3.302,-3.2527,-3.2235,-3.197,-3.156,-3.0995,-3.0146,-2.9544,-2.8919,-2.8186,-2.7342,-2.6939,-2.6748,-2.6178,-2.6682,-2.8397,-2.8486,-2.8999,-2.9932,-2.923,-2.8511,-2.7897,-2.6994,-2.665,-2.6997,-2.6821,-2.6919,-2.7425,-2.6772,-2.6419,-2.6485,-2.6817,-2.717,-2.7411,-2.6778,-2.6203,-2.5819,-2.5388,-2.5079,-2.5018,-2.5214,-2.5437,-2.5664,-2.6054,-2.6201,-2.6012,-2.6498,-2.6818,-2.6889,-2.7286,-2.7393,-2.7203,-2.7196,-2.699,-2.6497,-2.6688,-2.6915,-2.7085,-2.7382,-2.7709,-2.8034,-2.8053,-2.8109,-2.8038,-2.8233,-2.8083,-2.8427,-2.8034,-2.7764,-2.7809,-2.7764,-2.766,-2.7585,-2.7595,-2.753,-2.7333,-2.7143,-2.6966,-2.6444,-2.5997,-2.5474,-2.5075,-2.5516,-2.5874,-2.5891,-2.6043,-2.6132,-2.6168,-2.6185,-2.6185,-2.6185,-2.6185,-2.6185,-2.6203,-2.6221,-2.624,-3.6968,-3.6759,-3.6497,-3.5994,-3.5292,-3.4941,-3.4677,-3.4531,-3.4677,-3.4543,-3.4261,-3.4592,-3.4401,-3.3982,-3.4438,-3.4487,-3.4102,-3.4042,-3.403,-3.3874,-3.3549,-3.3044,-3.225,-3.1553,-3.0867,-3.0098,-2.9677,-2.8895,-2.7918,-2.7306,-2.6681,-2.6468,-2.6542,-2.7149,-2.8109,-2.85,-2.9145,-2.9895,-2.8769,-2.8333,-2.8711,-2.7652,-2.7199,-2.7646,-2.7451,-2.7395,-2.7351,-2.7339,-2.7385,-2.7464,-2.7398,-2.7438,-2.7307,-2.6446,-2.5968,-2.5871,-2.4827,-2.4831,-2.5092,-2.5615,-2.5994,-2.6353,-2.6684,-2.6833,-2.6588,-2.696,-2.7395,-2.7386,-2.8003,-2.8275,-2.7854,-2.7759,-2.7557,-2.7149,-2.6973,-2.6927,-2.7024,-2.7376,-2.7603,-2.7788,-2.8158,-2.8323,-2.7794,-2.8184,-2.8442,-2.8353,-2.8019,-2.8094,-2.8049,-2.7884,-2.766,-2.7585,-2.7585,-2.76,-2.7474,-2.7493,-2.7297,-2.6848,-2.6305,-2.5666,-2.5123,-2.5483,-2.5858,-2.591,-2.599,-2.6079,-2.615,-2.6168,-2.6185,-2.6185,-2.6185,-2.6185,-2.6203,-2.6205,-2.6205,-3.6942,-3.6689,-3.6474,-3.6174,-3.5708,-3.5084,-3.4787,-3.4689,-3.4787,-3.4543,-3.4261,-3.4592,-3.4508,-3.4083,-3.4557,-3.4691,-3.457,-3.4546,-3.457,-3.4558,-3.4462,-3.3392,-3.2274,-3.2022,-3.1336,-3.029,-3.0284,-2.9713,-2.8354,-2.7726,-2.7378,-2.726,-2.6674,-2.7005,-2.8101,-2.84,-2.89,-2.9656,-2.9113,-2.8635,-2.8662,-2.7927,-2.7376,-2.7324,-2.7328,-2.7267,-2.7172,-2.739,-2.7503,-2.7503,-2.7503,-2.7503,-2.7438,-2.6831,-2.6386,-2.6269,-2.5798,-2.5589,-2.6104,-2.6353,-2.6347,-2.6151,-2.6876,-2.6804,-2.5629,-2.7038,-2.7544,-2.76,-2.8061,-2.8532,-2.8383,-2.8343,-2.8107,-2.7711,-2.7349,-2.7311,-2.762,-2.7513,-2.7524,-2.8033,-2.7928,-2.7767,-2.7799,-2.8184,-2.8472,-2.8199,-2.8169,-2.8259,-2.8244,-2.7869,-2.7585,-2.7585,-2.7585,-2.7675,-2.7695,-2.7785,-2.7597,-2.7145,-2.6551,-2.5882,-2.5419,-2.5296,-2.5609,-2.5789,-2.5989,-2.6114,-2.615,-2.6185,-2.6185,-2.6169,-2.6185,-2.6168,-2.6185,-2.6203,-2.6203,-3.6808,-3.6684,-3.6471,-3.622,-3.5871,-3.5256,-3.4963,-3.4953,-3.481,-3.4592,-3.4347,-3.464,-3.458,-3.431,-3.4628,-3.4775,-3.4775,-3.4775,-3.4726,-3.4581,-3.4377,-3.3575,-3.2611,-3.2346,-3.1529,-3.0579,-3.0754,-3.0086,-2.8967,-2.8306,-2.7969,-2.7671,-2.7255,-2.7505,-2.8246,-2.8719,-2.8994,-2.9308,-2.8922,-2.8685,-2.8679,-2.8173,-2.7804,-2.7648,-2.7677,-2.7656,-2.733,-2.739,-2.7503,-2.7503,-2.7503,-2.7503,-2.7451,-2.702,-2.6719,-2.668,-2.6138,-2.5981,-2.6282,-2.6549,-2.6575,-2.6412,-2.7066,-2.6831,-2.6325,-2.7226,-2.7872,-2.7397,-2.8101,-2.85,-2.8587,-2.8587,-2.8384,-2.802,-2.7734,-2.7769,-2.8171,-2.7992,-2.7958,-2.817,-2.8092,-2.7782,-2.7705,-2.8423,-2.8708,-2.8618,-2.8532,-2.8603,-2.8543,-2.8004,-2.7585,-2.7585,-2.7585,-2.765,-2.7675,-2.775,-2.7725,-2.7315,-2.6788,-2.6098,-2.5641,-2.5323,-2.5499,-2.5791,-2.5965,-2.6112,-2.6196,-2.6198,-2.6133,-2.6133,-2.6133,-2.6168,-2.6168,-2.6185,-2.6185,-3.67,-3.6665,-3.6443,-3.6221,-3.5864,-3.5415,-3.5158,-3.5149,-3.4893,-3.4628,-3.4482,-3.4628,-3.458,-3.4433,-3.458,-3.4775,-3.4775,-3.4775,-3.4593,-3.4268,-3.3887,-3.3314,-3.2959,-3.225,-3.1541,-3.0927,-3.0934,-3.029,-2.9388,-2.8763,-2.8318,-2.7972,-2.8025,-2.8118,-2.8303,-2.898,-2.9241,-2.8772,-2.8574,-2.837,-2.8409,-2.8271,-2.8097,-2.7916,-2.8178,-2.8106,-2.7799,-2.7743,-2.7777,-2.7725,-2.762,-2.7699,-2.7654,-2.7216,-2.6928,-2.685,-2.6425,-2.6002,-2.6106,-2.6634,-2.6771,-2.6784,-2.7157,-2.721,-2.6855,-2.7457,-2.7859,-2.7322,-2.8088,-2.85,-2.8587,-2.8587,-2.8511,-2.8281,-2.8198,-2.827,-2.8368,-2.8494,-2.8494,-2.8363,-2.8457,-2.8211,-2.8169,-2.8588,-2.9397,-2.8423,-2.8472,-2.8532,-2.8393,-2.7944,-2.766,-2.7585,-2.7585,-2.7585,-2.765,-2.77,-2.763,-2.7412,-2.6923,-2.6358,-2.5792,-2.5532,-2.5616,-2.5831,-2.6252,-2.6372,-2.6303,-2.6255,-2.611,-2.6081,-2.6079,-2.6115,-2.6168,-2.6185,-2.6185,-3.658,-3.6394,-3.639,-3.6233,-3.5823,-3.5415,-3.5168,-3.5182,-3.4917,-3.464,-3.4482,-3.4482,-3.4482,-3.4433,-3.4482,-3.4592,-3.4787,-3.4751,-3.4534,-3.4054,-3.3363,-3.2944,-3.2709,-3.2346,-3.1781,-3.1204,-3.1324,-3.0687,-2.9593,-2.916,-2.8847,-2.8342,-2.8023,-2.7845,-2.7982,-2.846,-2.8276,-2.7688,-2.8038,-2.8255,-2.8093,-2.83,-2.8264,-2.7895,-2.8126,-2.8286,-2.8466,-2.8707,-2.8895,-2.8791,-2.8516,-2.8438,-2.8529,-2.7876,-2.7549,-2.7589,-2.7027,-2.6674,-2.702,-2.7137,-2.7144,-2.6876,-2.7144,-2.7157,-2.6398,-2.7423,-2.783,-2.7664,-2.8138,-2.856,-2.8587,-2.8587,-2.8588,-2.8598,-2.8764,-2.9035,-2.9225,-2.877,-2.8458,-2.8429,-2.8332,-2.8062,-2.7739,-2.8412,-2.8712,-2.8274,-2.8304,-2.8368,-2.8184,-2.7899,-2.772,-2.7585,-2.7585,-2.7585,-2.7585,-2.7635,-2.7595,-2.7474,-2.7048,-2.691,-2.6364,-2.5921,-2.6061,-2.633,-2.669,-2.662,-2.6321,-2.6131,-2.5936,-2.5972,-2.6026,-2.6079,-2.6132,-2.615,-2.6151,-3.644,-3.6309,-3.6367,-3.6263,-3.6024,-3.5587,-3.5395,-3.5292,-3.4803,-3.4628,-3.458,-3.4482,-3.4482,-3.458,-3.4592,-3.4689,-3.4738,-3.4677,-3.4546,-3.4138,-3.3422,-3.292,-3.2733,-3.2334,-3.1745,-3.132,-3.1271,-3.0657,-2.9869,-2.9376,-2.9003,-2.8546,-2.817,-2.7969,-2.7786,-2.8234,-2.8065,-2.7657,-2.8065,-2.8354,-2.821,-2.833,-2.8376,-2.8114,-2.8226,-2.8435,-2.859,-2.9022,-2.9382,-2.9523,-2.9379,-2.917,-2.9118,-2.8451,-2.815,-2.8137,-2.7628,-2.721,-2.7425,-2.7477,-2.7346,-2.7118,-2.7346,-2.7256,-2.709,-2.7708,-2.7977,-2.8005,-2.8287,-2.8587,-2.8587,-2.8587,-2.8651,-2.8683,-2.8862,-2.9121,-2.9389,-2.9122,-2.8914,-2.897,-2.8887,-2.8453,-2.8337,-2.8576,-2.8629,-2.848,-2.8816,-2.8876,-2.8323,-2.8064,-2.772,-2.7585,-2.7585,-2.7585,-2.7585,-2.7595,-2.7585,-2.7434,-2.714,-2.7296,-2.7272,-2.6884,-2.6576,-2.6778,-2.6876,-2.6426,-2.6108,-2.5933,-2.586,-2.5937,-2.6008,-2.6043,-2.6079,-2.6115,-2.6115,-3.6286,-3.6162,-3.6151,-3.6117,-3.6018,-3.5561,-3.5406,-3.5411,-3.4748,-3.4602,-3.4773,-3.4541,-3.4531,-3.4726,-3.4726,-3.4726,-3.4738,-3.4482,-3.4399,-3.4246,-3.3458,-3.3077,-3.2917,-3.2361,-3.1913,-3.1765,-3.1216,-3.0579,-3.005,-2.9556,-2.9027,-2.8595,-2.851,-2.8174,-2.7906,-2.8158,-2.8138,-2.757,-2.8126,-2.8402,-2.8342,-2.8402,-2.8415,-2.8502,-2.8575,-2.8744,-2.8904,-2.9209,-2.958,-2.9995,-3.0108,-2.9832,-2.9347,-2.8882,-2.8516,-2.8503,-2.7889,-2.749,-2.7464,-2.7503,-2.7503,-2.7581,-2.7516,-2.7681,-2.7881,-2.7921,-2.8045,-2.8222,-2.8425,-2.8541,-2.8587,-2.8587,-2.8587,-2.8619,-2.8587,-2.8798,-2.9195,-2.9448,-2.9506,-2.9375,-2.9123,-2.8726,-2.8535,-2.8622,-2.8634,-2.8717,-2.9065,-2.9149,-2.8607,-2.8158,-2.7788,-2.7705,-2.775,-2.7615,-2.7585,-2.7585,-2.7575,-2.7505,-2.7263,-2.75,-2.7847,-2.7617,-2.7209,-2.6938,-2.6834,-2.6463,-2.6109,-2.5891,-2.5875,-2.5946,-2.5937,-2.5917,-2.5972,-2.6079,-2.6078,-3.6025,-3.5646,-3.5646,-3.5416,-3.5044,-3.4755,-3.4955,-3.5147,-3.466,-3.4695,-3.5018,-3.4635,-3.4543,-3.4677,-3.4531,-3.4592,-3.4689,-3.4433,-3.4169,-3.4029,-3.347,-3.3244,-3.2944,-3.2577,-3.2298,-3.2082,-3.1396,-3.0603,-3.0086,-2.9556,-2.8979,-2.8595,-2.851,-2.8246,-2.7966,-2.8174,-2.8026,-2.7486,-2.8014,-2.833,-2.8174,-2.8318,-2.8581,-2.8792,-2.8867,-2.9085,-2.9378,-2.9542,-2.9682,-2.9796,-3.0139,-2.9969,-2.954,-2.9236,-2.9104,-2.8843,-2.8072,-2.7516,-2.7673,-2.7568,-2.7811,-2.7994,-2.7816,-2.7891,-2.8204,-2.8146,-2.8027,-2.8151,-2.8281,-2.8444,-2.8587,-2.8587,-2.8587,-2.8587,-2.8619,-2.8748,-2.9058,-2.9282,-2.9275,-2.8987,-2.8944,-2.9043,-2.8845,-2.8609,-2.8411,-2.8302,-2.8311,-2.8565,-2.8375,-2.8036,-2.7757,-2.7793,-2.7944,-2.7764,-2.7585,-2.7585,-2.7595,-2.762,-2.7505,-2.7579,-2.7858,-2.8021,-2.7857,-2.7555,-2.7227,-2.6915,-2.652,-2.6081,-2.5937,-2.6048,-2.5919,-2.5807,-2.5864,-2.5989,-2.6124,-3.5588,-3.5187,-3.5416,-3.5393,-3.5193,-3.5173,-3.5242,-3.5303,-3.4854,-3.4776,-3.4803,-3.4515,-3.4445,-3.4628,-3.4531,-3.4531,-3.464,-3.4445,-3.4253,-3.4161,-3.3767,-3.3375,-3.311,-3.2733,-3.2346,-3.1925,-3.1284,-3.0657,-3.005,-2.9256,-2.8835,-2.8595,-2.851,-2.8246,-2.793,-2.821,-2.799,-2.763,-2.8014,-2.839,-2.815,-2.8426,-2.8605,-2.8776,-2.9013,-2.9197,-2.9341,-2.9639,-2.9691,-2.9718,-2.9821,-2.973,-2.9545,-2.9365,-2.9287,-2.9104,-2.8229,-2.7829,-2.8203,-2.8203,-2.8124,-2.8315,-2.8111,-2.8043,-2.8104,-2.7967,-2.7921,-2.8137,-2.8235,-2.8365,-2.8554,-2.8587,-2.8587,-2.8587,-2.8587,-2.8683,-2.8812,-2.9004,-2.8825,-2.8635,-2.9073,-2.9232,-2.9012,-2.8697,-2.8307,-2.7992,-2.7738,-2.7928,-2.8204,-2.8085,-2.7899,-2.7823,-2.7929,-2.775,-2.7585,-2.7585,-2.7585,-2.7625,-2.7665,-2.77,-2.78,-2.7934,-2.8122,-2.8097,-2.7752,-2.7441,-2.7015,-2.6615,-2.6383,-2.613,-2.5991,-2.5901,-2.584,-2.5895,-2.6049,-3.5233,-3.4842,-3.5324,-3.5462,-3.5382,-3.5582,-3.5602,-3.5465,-3.5039,-3.4831,-3.482,-3.4455,-3.4445,-3.4677,-3.4628,-3.4628,-3.4787,-3.4531,-3.4507,-3.4484,-3.4113,-3.3708,-3.3432,-3.2993,-3.2605,-3.2271,-3.1334,-3.0748,-3.0236,-2.9304,-2.8787,-2.8679,-2.8631,-2.8342,-2.8062,-2.829,-2.8122,-2.8122,-2.8246,-2.8498,-2.851,-2.851,-2.855,-2.859,-2.8855,-2.9013,-2.9157,-2.9263,-2.9341,-2.9384,-2.9428,-2.939,-2.9311,-2.9295,-2.9314,-2.9168,-2.8356,-2.8556,-2.8804,-2.8904,-2.866,-2.8895,-2.866,-2.8436,-2.8163,-2.8072,-2.7829,-2.8124,-2.8189,-2.8249,-2.8392,-2.8509,-2.8509,-2.8554,-2.8554,-2.8619,-2.8651,-2.8771,-2.8856,-2.897,-2.9416,-2.9189,-2.8668,-2.8749,-2.8334,-2.8018,-2.7765,-2.8323,-2.853,-2.8419,-2.8226,-2.7942,-2.7839,-2.769,-2.7585,-2.7585,-2.7585,-2.76,-2.7625,-2.765,-2.7725,-2.78,-2.7989,-2.8171,-2.8381,-2.8043,-2.7599,-2.7057,-2.6579,-2.6241,-2.6097,-2.5942,-2.5796,-2.5868,-2.6057,-3.5233,-3.4831,-3.5313,-3.5279,-3.4934,-3.4998,-3.5097,-3.5207,-3.4973,-3.4943,-3.5055,-3.4844,-3.4689,-3.4738,-3.4775,-3.4775,-3.4738,-3.4531,-3.4433,-3.4507,-3.4363,-3.4183,-3.4102,-3.3737,-3.3148,-3.2666,-3.1668,-3.1112,-3.0628,-2.9713,-2.9196,-2.91,-2.8763,-2.841,-2.8354,-2.8438,-2.8474,-2.8386,-2.8462,-2.8462,-2.8438,-2.8426,-2.8609,-2.8767,-2.8727,-2.8712,-2.8937,-2.8885,-2.8703,-2.8752,-2.9005,-2.8878,-2.8647,-2.9112,-2.9396,-2.9426,-2.9246,-2.9166,-2.9388,-2.9261,-2.9327,-2.9523,-2.9405,-2.9218,-2.8808,-2.814,-2.7748,-2.7796,-2.7875,-2.7987,-2.821,-2.8281,-2.8333,-2.843,-2.8509,-2.8587,-2.8619,-2.8683,-2.8757,-2.8879,-2.9199,-2.8553,-2.7911,-2.8208,-2.8401,-2.8061,-2.7949,-2.8478,-2.8734,-2.8536,-2.8467,-2.8159,-2.7799,-2.763,-2.7585,-2.7585,-2.7585,-2.7585,-2.7585,-2.7625,-2.765,-2.774,-2.779,-2.7987,-2.8263,-2.8419,-2.7951,-2.7359,-2.6718,-2.6401,-2.6273,-2.6005,-2.57,-2.5856,-2.6012,-3.4475,-3.4231,-3.5136,-3.5297,-3.512,-3.5476,-3.5566,-3.5444,-3.5329,-3.5124,-3.4962,-3.4711,-3.458,-3.4628,-3.4726,-3.4775,-3.4726,-3.4531,-3.4482,-3.4531,-3.4458,-3.4327,-3.4043,-3.3645,-3.3246,-3.2726,-3.2014,-3.154,-3.1019,-3.0302,-2.9641,-2.9304,-2.9051,-2.8787,-2.8546,-2.851,-2.851,-2.8414,-2.8222,-2.7909,-2.7738,-2.7897,-2.8156,-2.83,-2.818,-2.8376,-2.856,-2.8292,-2.8258,-2.8421,-2.8663,-2.8667,-2.8774,-2.9188,-2.956,-2.9855,-3.0144,-3.0241,-3.0241,-2.9928,-2.9967,-2.997,-2.9876,-2.9627,-2.9222,-2.8564,-2.8035,-2.8303,-2.796,-2.7928,-2.8046,-2.8216,-2.8254,-2.8352,-2.8444,-2.8554,-2.8587,-2.8683,-2.8762,-2.8886,-2.8915,-2.8368,-2.7925,-2.8067,-2.8306,-2.8125,-2.799,-2.8318,-2.8481,-2.8364,-2.8355,-2.8375,-2.7972,-2.76,-2.7585,-2.7585,-2.7585,-2.7585,-2.7585,-2.76,-2.76,-2.7665,-2.77,-2.7669,-2.7793,-2.7891,-2.7977,-2.7665,-2.7084,-2.6748,-2.6462,-2.6015,-2.558,-2.5653,-2.604,-3.3869,-3.3819,-3.493,-3.5328,-3.5283,-3.5813,-3.5805,-3.5514,-3.5392,-3.515,-3.4832,-3.4628,-3.4531,-3.4531,-3.4726,-3.4775,-3.4787,-3.458,-3.4628,-3.4677,-3.4569,-3.4341,-3.403,-3.3571,-3.31,-3.2491,-3.2059,-3.1573,-3.1136,-3.0675,-3.0025,-2.9496,-2.91,-2.8871,-2.8619,-2.851,-2.851,-2.8474,-2.8158,-2.7822,-2.7594,-2.7786,-2.7906,-2.7969,-2.7969,-2.8062,-2.8378,-2.821,-2.8234,-2.837,-2.8602,-2.8728,-2.8935,-2.9492,-2.9855,-3.0167,-3.0548,-3.0742,-3.0664,-3.0431,-3.0348,-3.0231,-2.9931,-2.9614,-2.9274,-2.8721,-2.8198,-2.8215,-2.7952,-2.7828,-2.7921,-2.8039,-2.8137,-2.8235,-2.836,-2.8457,-2.8554,-2.8587,-2.8702,-2.8925,-2.8941,-2.8789,-2.8415,-2.824,-2.818,-2.8074,-2.8128,-2.8312,-2.8404,-2.8476,-2.832,-2.8385,-2.7899,-2.7554,-2.76,-2.76,-2.76,-2.7585,-2.7585,-2.76,-2.76,-2.7625,-2.765,-2.7593,-2.754,-2.78,-2.8129,-2.78,-2.7458,-2.699,-2.6502,-2.5858,-2.5497,-2.5567,-2.5938,-3.3869,-3.3772,-3.4767,-3.5161,-3.5201,-3.5219,-3.5273,-3.5209,-3.5011,-3.4892,-3.4823,-3.4787,-3.4726,-3.4775,-3.4775,-3.4775,-3.4775,-3.4787,-3.4739,-3.4739,-3.4727,-3.4378,-3.3969,-3.3498,-3.3143,-3.2536,-3.2083,-3.1456,-3.0929,-3.0819,-3.0386,-3.0013,-2.922,-2.8739,-2.8522,-2.851,-2.8438,-2.8402,-2.8246,-2.8222,-2.8114,-2.8222,-2.8306,-2.8342,-2.8402,-2.8486,-2.851,-2.8354,-2.8354,-2.8474,-2.8706,-2.8919,-2.9116,-2.963,-2.9999,-3.0277,-3.0518,-3.0672,-3.057,-3.0745,-3.0908,-3.062,-3.0176,-2.9666,-2.9562,-2.832,-2.7758,-2.7871,-2.7812,-2.7583,-2.7623,-2.7709,-2.7941,-2.8052,-2.8197,-2.836,-2.8411,-2.8398,-2.856,-2.8926,-2.9014,-2.8968,-2.9104,-2.8954,-2.8455,-2.8337,-2.8795,-2.8968,-2.8993,-2.8983,-2.8591,-2.8346,-2.7776,-2.7537,-2.759,-2.76,-2.76,-2.7585,-2.7585,-2.7585,-2.76,-2.7585,-2.7625,-2.7665,-2.7682,-2.7981,-2.8091,-2.7673,-2.7302,-2.7031,-2.6487,-2.568,-2.5543,-2.5769,-2.6076,-3.3892,-3.3776,-3.431,-3.4598,-3.4737,-3.524,-3.527,-3.5014,-3.5005,-3.4909,-3.4775,-3.4775,-3.4775,-3.4775,-3.4775,-3.4775,-3.4775,-3.4775,-3.4583,-3.4378,-3.4234,-3.4018,-3.3608,-3.315,-3.2704,-3.244,-3.2026,-3.1701,-3.1352,-3.0819,-3.0386,-2.9869,-2.9304,-2.8859,-2.8643,-2.8486,-2.8354,-2.8126,-2.8029,-2.7921,-2.7621,-2.7846,-2.8017,-2.8017,-2.7978,-2.8222,-2.8402,-2.8162,-2.8258,-2.8454,-2.8697,-2.8855,-2.9091,-2.9509,-2.9767,-2.9999,-3.0228,-3.0317,-3.0482,-3.0748,-3.0986,-3.0947,-3.0581,-3.0241,-3.0043,-2.917,-2.8699,-2.8464,-2.7876,-2.7529,-2.7523,-2.7676,-2.7855,-2.7921,-2.802,-2.8164,-2.8322,-2.8354,-2.8457,-2.8794,-2.9149,-2.9369,-2.9549,-2.9756,-2.9129,-2.8627,-2.9146,-2.9522,-2.9402,-2.9078,-2.853,-2.8137,-2.7613,-2.7424,-2.7478,-2.7524,-2.7575,-2.76,-2.7575,-2.7585,-2.7585,-2.7585,-2.761,-2.7685,-2.775,-2.7875,-2.7799,-2.7441,-2.7124,-2.6801,-2.6141,-2.5318,-2.5457,-2.5934,-2.6326,-3.3965,-3.3866,-3.4064,-3.4214,-3.4377,-3.4903,-3.5046,-3.4878,-3.4869,-3.49,-3.4775,-3.4775,-3.4775,-3.4775,-3.4775,-3.4631,-3.4546,-3.4462,-3.4234,-3.3994,-3.3765,-3.3489,-3.308,-3.2719,-3.2476,-3.2226,-3.1925,-3.1613,-3.1213,-3.0608,-3.0152,-2.9827,-2.9587,-2.9196,-2.8619,-2.8486,-2.8318,-2.8053,-2.7921,-2.7825,-2.7522,-2.7789,-2.7966,-2.799,-2.8026,-2.8146,-2.8378,-2.823,-2.8206,-2.8454,-2.8657,-2.8828,-2.9052,-2.9236,-2.9419,-2.9639,-2.9871,-2.9999,-3.0228,-3.071,-3.0986,-3.0998,-3.0464,-3.0372,-3.0252,-2.947,-2.8451,-2.8464,-2.7855,-2.7503,-2.749,-2.7623,-2.7756,-2.7822,-2.7756,-2.7901,-2.8304,-2.8475,-2.8519,-2.8673,-2.9082,-2.9444,-2.9376,-2.9543,-2.9716,-2.9217,-2.9349,-2.945,-2.9042,-2.8631,-2.8,-2.7656,-2.738,-2.7336,-2.7325,-2.7412,-2.7488,-2.7539,-2.7524,-2.7575,-2.7585,-2.7585,-2.7585,-2.761,-2.7675,-2.7725,-2.7472,-2.7089,-2.6819,-2.6581,-2.5936,-2.5384,-2.5771,-2.6266,-2.6535,-3.4113,-3.4113,-3.4298,-3.4261,-3.4146,-3.4172,-3.443,-3.4736,-3.4626,-3.4639,-3.4787,-3.4775,-3.4775,-3.4775,-3.4775,-3.4546,-3.4198,-3.409,-3.379,-3.3416,-3.3284,-3.2984,-3.2671,-3.237,-3.2154,-3.1837,-3.1693,-3.1412,-3.0854,-3.0788,-3.0205,-2.9654,-2.9581,-2.9417,-2.8582,-2.851,-2.8498,-2.8474,-2.8438,-2.8366,-2.8318,-2.833,-2.8354,-2.8366,-2.8314,-2.8386,-2.8426,-2.8426,-2.8414,-2.8474,-2.8736,-2.8895,-2.9013,-2.9302,-2.9445,-2.9523,-2.996,-2.9999,-2.9832,-3.0545,-3.0911,-3.0921,-3.0438,-2.998,-2.9415,-2.8582,-2.8059,-2.8451,-2.7824,-2.7568,-2.7516,-2.7523,-2.7623,-2.7656,-2.7623,-2.7749,-2.8139,-2.8565,-2.8624,-2.8795,-2.9129,-2.937,-2.9173,-2.9233,-2.986,-2.9893,-2.9783,-2.9435,-2.8884,-2.8142,-2.7484,-2.736,-2.7158,-2.7192,-2.7222,-2.7325,-2.7401,-2.7452,-2.7488,-2.7524,-2.7575,-2.7585,-2.7585,-2.7585,-2.7625,-2.765,-2.721,-2.6702,-2.6733,-2.6715,-2.6201,-2.5888,-2.6243,-2.6561,-2.681,-3.4445,-3.4298,-3.4396,-3.4335,-3.4347,-3.4494,-3.4543,-3.458,-3.4628,-3.4726,-3.4775,-3.4775,-3.4775,-3.4775,-3.4727,-3.4498,-3.4066,-3.3958,-3.3634,-3.2839,-3.2779,-3.2406,-3.2118,-3.203,-3.1922,-3.1765,-3.1693,-3.1613,-3.14,-3.1132,-3.064,-3.0073,-2.9458,-2.9185,-2.896,-2.8775,-2.851,-2.851,-2.8498,-2.8498,-2.851,-2.851,-2.851,-2.851,-2.851,-2.851,-2.851,-2.851,-2.851,-2.851,-2.8749,-2.8736,-2.8736,-2.8961,-2.8961,-2.8922,-2.917,-2.938,-2.9639,-3.0266,-3.071,-3.0704,-3.0581,-3.0228,-3.0268,-2.9683,-2.9148,-2.8595,-2.8164,-2.7941,-2.7594,-2.7516,-2.7556,-2.7556,-2.7556,-2.7656,-2.7987,-2.8457,-2.8758,-2.904,-2.9348,-2.9582,-2.9543,-2.9199,-2.9582,-2.9719,-2.9537,-2.9261,-2.8781,-2.7794,-2.6994,-2.7033,-2.698,-2.7044,-2.7093,-2.7196,-2.7299,-2.735,-2.7412,-2.7488,-2.7524,-2.7575,-2.7585,-2.7585,-2.7585,-2.754,-2.708,-2.6742,-2.7001,-2.6925,-2.6392,-2.6304,-2.6687,-2.6919,-2.7067,-3.4677,-3.4531,-3.4531,-3.4531,-3.4531,-3.4628,-3.458,-3.458,-3.4726,-3.4775,-3.4775,-3.4775,-3.4775,-3.4775,-3.4739,-3.4498,-3.4006,-3.3813,-3.3428,-3.2539,-3.2274,-3.2022,-3.1825,-3.1705,-3.1753,-3.1705,-3.1705,-3.1693,-3.1613,-3.1312,-3.0922,-3.0332,-2.9351,-2.9072,-2.8955,-2.8823,-2.851,-2.851,-2.851,-2.851,-2.851,-2.851,-2.851,-2.851,-2.851,-2.851,-2.851,-2.851,-2.851,-2.851,-2.851,-2.851,-2.851,-2.851,-2.851,-2.851,-2.8855,-2.9263,-2.9922,-3.0394,-3.0785,-3.091,-3.083,-3.0699,-3.0594,-2.9879,-2.9392,-2.8922,-2.8669,-2.815,-2.7659,-2.7568,-2.7503,-2.7503,-2.7536,-2.7623,-2.7894,-2.8383,-2.8929,-2.9241,-2.9632,-2.9802,-2.975,-2.9513,-2.9353,-2.9329,-2.9247,-2.8971,-2.8652,-2.7679,-2.6953,-2.7023,-2.6945,-2.6899,-2.6963,-2.7041,-2.7144,-2.7248,-2.731,-2.7412,-2.7488,-2.7524,-2.7575,-2.7585,-2.7585,-2.745,-2.7005,-2.6829,-2.6923,-2.688,-2.6554,-2.6675,-2.7127,-2.7296,-2.7386,-3.4775,-3.4775,-3.4775,-3.4775,-3.4775,-3.458,-3.458,-3.4787,-3.4787,-3.4775,-3.4775,-3.4775,-3.4775,-3.4775,-3.4775,-3.4474,-3.403,-3.3633,-3.3092,-3.2563,-3.2166,-3.191,-3.1753,-3.1705,-3.1705,-3.1705,-3.1705,-3.1705,-3.1705,-3.1339,-3.1074,-3.0549,-2.9265,-2.8943,-2.8831,-2.8735,-2.8483,-2.851,-2.851,-2.851,-2.851,-2.851,-2.851,-2.851,-2.851,-2.851,-2.851,-2.851,-2.851,-2.851,-2.851,-2.851,-2.851,-2.851,-2.851,-2.8697,-2.9197,-2.9613,-3.0114,-3.0508,-3.0798,-3.0822,-3.047,-3.022,-3.0189,-3.0059,-2.9666,-2.9157,-2.8739,-2.8216,-2.7738,-2.7607,-2.7503,-2.7503,-2.7503,-2.7668,-2.792,-2.839,-2.8989,-2.9432,-2.9888,-2.9957,-2.9426,-2.916,-2.8998,-2.9139,-2.9131,-2.9059,-2.8653,-2.7795,-2.7258,-2.7389,-2.7227,-2.6849,-2.6873,-2.698,-2.7067,-2.7196,-2.7248,-2.7325,-2.7386,-2.7514,-2.7524,-2.7575,-2.7585,-2.743,-2.7214,-2.6935,-2.6745,-2.6635,-2.6636,-2.7076,-2.7529,-2.7577,-2.7716,-3.4775,-3.4775,-3.4775,-3.4775,-3.4775,-3.4726,-3.4726,-3.4787,-3.4775,-3.4775,-3.4775,-3.4775,-3.4739,-3.4775,-3.4763,-3.4414,-3.4114,-3.373,-3.3236,-3.2707,-3.2238,-3.1985,-3.1837,-3.1705,-3.1705,-3.1705,-3.1705,-3.1693,-3.1544,-3.1238,-3.0615,-2.9941,-2.914,-2.8759,-2.8542,-2.8435,-2.8479,-2.8507,-2.8519,-2.851,-2.851,-2.851,-2.851,-2.851,-2.851,-2.851,-2.851,-2.851,-2.851,-2.851,-2.851,-2.851,-2.851,-2.851,-2.851,-2.851,-2.8776,-2.9079,-2.9716,-2.9883,-3.0088,-3.0558,-3.0403,-3.0566,-3.0574,-3.0388,-3.0022,-2.9549,-2.8935,-2.8425,-2.7994,-2.7751,-2.7594,-2.7503,-2.7503,-2.7575,-2.7893,-2.836,-2.8958,-2.9503,-2.9985,-2.9709,-2.9176,-2.8702,-2.8594,-2.8859,-2.9014,-2.9044,-2.8771,-2.8017,-2.7726,-2.7871,-2.7607,-2.7273,-2.6953,-2.6989,-2.7047,-2.7119,-2.7185,-2.7262,-2.7412,-2.7499,-2.7524,-2.7504,-2.7455,-2.755,-2.7624,-2.7273,-2.6749,-2.6841,-2.6886,-2.7439,-2.7868,-2.7848,-2.7997,-3.4884,-3.4932,-3.4823,-3.4775,-3.4787,-3.4703,-3.4764,-3.4896,-3.4835,-3.4775,-3.4751,-3.4546,-3.4583,-3.4679,-3.4414,-3.4198,-3.4306,-3.3514,-3.3056,-3.2984,-3.2394,-3.2018,-3.1777,-3.1705,-3.1705,-3.1705,-3.1705,-3.1705,-3.1404,-3.0772,-3.0122,-2.9912,-2.9137,-2.8654,-2.8445,-2.8409,-2.8426,-2.8478,-2.8546,-2.8507,-2.851,-2.851,-2.851,-2.851,-2.851,-2.851,-2.851,-2.851,-2.8471,-2.8419,-2.8379,-2.8351,-2.8311,-2.8311,-2.8391,-2.8379,-2.8618,-2.8803,-2.9184,-2.9341,-2.9613,-2.9922,-3.0165,-3.0343,-3.0391,-3.0258,-3.016,-2.9918,-2.9301,-2.8734,-2.8294,-2.7928,-2.7699,-2.7503,-2.7503,-2.7503,-2.7915,-2.8333,-2.8922,-2.9491,-2.9574,-2.9358,-2.8946,-2.847,-2.8253,-2.8577,-2.9011,-2.9437,-2.9157,-2.8569,-2.8439,-2.8568,-2.8175,-2.7737,-2.7432,-2.7128,-2.719,-2.7208,-2.7129,-2.7218,-2.7376,-2.7473,-2.7499,-2.7405,-2.733,-2.7385,-2.7408,-2.7137,-2.6753,-2.6808,-2.6864,-2.7257,-2.7659,-2.7964,-2.8207,-3.4933,-3.5163,-3.4933,-3.4764,-3.4751,-3.4556,-3.4712,-3.5126,-3.486,-3.4812,-3.4691,-3.4318,-3.4342,-3.4414,-3.3979,-3.4016,-3.398,-3.3449,-3.3112,-3.3222,-3.2382,-3.1922,-3.1809,-3.1705,-3.1705,-3.1705,-3.1597,-3.1404,-3.1235,-3.0633,-3.0091,-2.9989,-2.9107,-2.8593,-2.8656,-2.8597,-2.8556,-2.8468,-2.8536,-2.8575,-2.8455,-2.8471,-2.851,-2.851,-2.851,-2.851,-2.851,-2.8471,-2.8431,-2.8299,-2.8179,-2.8151,-2.807,-2.807,-2.8151,-2.8219,-2.8419,-2.8578,-2.8697,-2.8831,-2.8976,-2.9289,-2.9574,-2.9819,-2.9897,-3.0263,-3.028,-2.9999,-2.9382,-2.8817,-2.8325,-2.7894,-2.7607,-2.7631,-2.7702,-2.7845,-2.8217,-2.8643,-2.9153,-2.9577,-2.953,-2.9292,-2.8911,-2.8456,-2.8397,-2.8536,-2.8867,-2.9439,-2.9428,-2.8954,-2.9001,-2.9088,-2.8422,-2.794,-2.7824,-2.7563,-2.7432,-2.7355,-2.7158,-2.7181,-2.735,-2.7412,-2.7463,-2.7434,-2.739,-2.7091,-2.696,-2.6804,-2.6648,-2.6402,-2.6566,-2.6946,-2.7306,-2.7535,-2.8123,-3.4763,-3.5174,-3.4928,-3.4805,-3.4792,-3.473,-3.4764,-3.4899,-3.4805,-3.465,-3.4531,-3.4492,-3.431,-3.3938,-3.3786,-3.3847,-3.3661,-3.3383,-3.3198,-3.295,-3.2409,-3.1962,-3.1874,-3.1653,-3.1633,-3.1573,-3.1344,-3.0934,-3.0603,-3.0218,-2.9881,-2.9556,-2.8961,-2.8887,-2.8787,-2.8763,-2.8756,-2.8407,-2.8451,-2.8429,-2.8255,-2.8299,-2.8339,-2.8431,-2.851,-2.851,-2.851,-2.8459,-2.8471,-2.8431,-2.8259,-2.8111,-2.7933,-2.7962,-2.7962,-2.799,-2.807,-2.8231,-2.8327,-2.8359,-2.8418,-2.8624,-2.8912,-2.9184,-2.9537,-3.0101,-3.0258,-2.9876,-2.935,-2.8799,-2.8369,-2.7926,-2.7579,-2.7759,-2.7971,-2.8244,-2.8529,-2.9012,-2.947,-2.9506,-2.9502,-2.9215,-2.8818,-2.8625,-2.863,-2.8746,-2.8921,-2.9265,-2.9456,-2.9264,-2.9297,-2.9201,-2.8394,-2.7971,-2.8014,-2.7897,-2.7708,-2.7343,-2.7033,-2.7125,-2.7299,-2.7386,-2.7488,-2.7534,-2.7465,-2.718,-2.6941,-2.6776,-2.6566,-2.6402,-2.6177,-2.6552,-2.635,-2.645,-2.7396,-3.4285,-3.467,-3.4762,-3.4638,-3.445,-3.4287,-3.4345,-3.4505,-3.4333,-3.413,-3.398,-3.4038,-3.3943,-3.3561,-3.3498,-3.3554,-3.3433,-3.3174,-3.2995,-3.2759,-3.2447,-3.1986,-3.1736,-3.1547,-3.1079,-3.0983,-3.0754,-3.035,-3.0122,-3.0074,-2.9893,-2.9599,-2.9368,-2.9118,-2.8951,-2.8965,-2.8757,-2.821,-2.8274,-2.8093,-2.799,-2.8139,-2.8339,-2.8471,-2.851,-2.851,-2.8471,-2.8419,-2.8311,-2.8151,-2.7909,-2.7606,-2.7497,-2.7567,-2.7684,-2.7696,-2.7736,-2.7788,-2.7799,-2.7749,-2.7608,-2.7755,-2.8059,-2.8249,-2.8114,-2.87,-2.9997,-2.9646,-2.8555,-2.7889,-2.8291,-2.807,-2.776,-2.7769,-2.8049,-2.8364,-2.8883,-2.9437,-2.9642,-2.9665,-2.949,-2.9096,-2.8654,-2.809,-2.8153,-2.8369,-2.8633,-2.894,-2.9135,-2.9435,-2.9506,-2.9424,-2.8685,-2.8538,-2.8812,-2.8448,-2.791,-2.7501,-2.6963,-2.7059,-2.7222,-2.7386,-2.7514,-2.7519,-2.7455,-2.7285,-2.7061,-2.6881,-2.6941,-2.6896,-2.6467,-2.6138,-2.5833,-2.5601,-2.6425,-3.3717,-3.4024,-3.4445,-3.4354,-3.3975,-3.3677,-3.3816,-3.4127,-3.3767,-3.3563,-3.3469,-3.3316,-3.3498,-3.3342,-3.3042,-3.3183,-3.3142,-3.2872,-3.2697,-3.2609,-3.2301,-3.212,-3.1741,-3.1276,-3.0996,-3.0742,-3.0573,-3.0314,-3.0098,-3.0182,-3.023,-3.0044,-2.9785,-2.9574,-2.9209,-2.878,-2.8379,-2.8068,-2.7921,-2.7597,-2.7743,-2.8047,-2.8259,-2.8379,-2.8471,-2.8471,-2.8379,-2.8299,-2.8111,-2.7869,-2.7615,-2.7331,-2.7198,-2.7342,-2.7435,-2.7482,-2.7319,-2.7238,-2.7129,-2.6771,-2.662,-2.6607,-2.6999,-2.713,-2.7062,-2.7676,-2.8988,-2.9094,-2.8026,-2.7597,-2.7984,-2.8178,-2.788,-2.7879,-2.8193,-2.8586,-2.9205,-2.9729,-2.9678,-2.9701,-2.9395,-2.9004,-2.8325,-2.7764,-2.784,-2.8014,-2.8243,-2.8522,-2.8844,-2.918,-2.94,-2.948,-2.924,-2.9274,-2.9291,-2.8667,-2.7868,-2.743,-2.6963,-2.7021,-2.7104,-2.7258,-2.7382,-2.7464,-2.7385,-2.731,-2.7141,-2.6956,-2.7091,-2.7146,-2.6419,-2.5774,-2.539,-2.5265,-2.5619,-3.3526,-3.3915,-3.4016,-3.4016,-3.389,-3.3834,-3.3928,-3.3934,-3.3846,-3.3627,-3.3258,-3.3158,-3.3115,-3.2946,-3.3058,-3.3065,-3.2913,-3.2655,-3.2674,-3.2611,-3.2449,-3.2358,-3.2081,-3.1473,-3.1269,-3.1002,-3.079,-3.0814,-3.0266,-3.041,-3.029,-2.9665,-2.9749,-2.9444,-2.885,-2.857,-2.8453,-2.805,-2.7895,-2.7747,-2.7499,-2.7725,-2.7886,-2.8059,-2.8247,-2.8259,-2.8259,-2.8207,-2.807,-2.7869,-2.7603,-2.7308,-2.718,-2.7151,-2.7267,-2.7232,-2.71,-2.6933,-2.6703,-2.6358,-2.6198,-2.6122,-2.6473,-2.662,-2.6581,-2.6609,-2.7767,-2.8697,-2.7901,-2.7378,-2.7601,-2.7763,-2.7655,-2.8112,-2.8494,-2.8979,-2.9577,-2.9534,-2.945,-2.9445,-2.9323,-2.8629,-2.7712,-2.7559,-2.785,-2.7967,-2.7947,-2.8262,-2.8651,-2.8972,-2.9306,-2.9392,-2.9501,-2.904,-2.8642,-2.8292,-2.7625,-2.7217,-2.6951,-2.6954,-2.7041,-2.713,-2.7229,-2.7352,-2.7418,-2.7388,-2.719,-2.6962,-2.6922,-2.6827,-2.6054,-2.5411,-2.5035,-2.4929,-2.5281]}]]